[[{"header":{"parameterUnit":"m.s-1","parameterCategory":1,"la1":30.6,"la2":29.2853,"lo1":-89.7004,"lo2":-87.6739,"dy":0.0162,"dx":0.0183,"nx":112,"ny":82,"refTime":"2026-04-06T12:00:00:Z","depth":0,"parameterNumber":2,"parameterNumberName":"U-component_of_WINDS"},"data":[0.0,0.0,0.0,0.0,0.0,0.0,0.0,0.0,0.0,0.0,0.0,0.0,0.0,0.0,0.0,0.0,0.0,0.0,0.0,0.0,0.0,0.0,0.0,0.0,0.0,0.0,0.0,0.0,0.0,0.0,0.0,0.0,0.0,0.0,0.0,0.0,0.0,0.0,0.0,0.0,0.0,0.0,0.0,0.0,0.0,0.0,0.0,0.0,0.0,0.0,0.0,0.0,0.0,0.0,0.0,0.0,0.0,0.0,0.0,0.0,0.0,0.0,0.0,0.0,0.0,0.0,0.0,0.0,0.0,0.0,0.0,0.0,0.0,0.0,0.0,0.0,0.0,0.0,0.0,0.0,0.0,0.0,0.0,0.0,0.0,0.0,0.0,0.0,0.0,0.0,2.668,2.6627,2.7617,2.8301,2.8301,2.7936,2.7135,2.5771,0.0,0.0,0.0,0.0,0.0,0.0,0.0,0.0,0.0,0.0,0.0,0.0,0.0,0.0,0.0,0.0,0.0,0.0,0.0,0.0,0.0,0.0,0.0,0.0,0.0,0.0,0.0,0.0,0.0,0.0,0.0,0.0,0.0,0.0,0.0,0.0,0.0,0.0,0.0,0.0,0.0,0.0,0.0,0.0,0.0,0.0,0.0,0.0,0.0,0.0,0.0,0.0,0.0,0.0,0.0,0.0,0.0,0.0,0.0,0.0,0.0,0.0,0.0,0.0,0.0,0.0,0.0,0.0,0.0,0.0,0.0,0.0,0.0,0.0,0.0,0.0,0.0,0.0,0.0,0.0,0.0,0.0,0.0,0.0,0.0,0.0,0.0,0.0,0.0,0.0,0.0,0.0,0.0,0.0,0.0,0.0,0.0,0.0,0.0,0.0,0.0,0.0,0.0,0.0,2.5923,2.735,2.7995,2.8301,2.8301,2.7936,2.7135,2.5771,0.0,0.0,0.0,0.0,0.0,0.0,0.0,0.0,0.0,0.0,0.0,0.0,0.0,0.0,0.0,0.0,0.0,0.0,0.0,0.0,0.0,0.0,0.0,0.0,0.0,0.0,0.0,0.0,0.0,0.0,0.0,0.0,0.0,0.0,0.0,0.0,0.0,0.0,0.0,0.0,0.0,0.0,0.0,0.0,0.0,0.0,0.0,0.0,0.0,0.0,0.0,0.0,0.0,0.0,0.0,0.0,0.0,0.0,0.0,0.0,0.0,0.0,0.0,0.0,0.0,0.0,0.0,0.0,0.0,0.0,0.0,0.0,0.0,0.0,0.0,0.0,0.0,0.0,0.0,0.0,0.0,0.0,0.0,0.0,0.0,0.0,0.0,0.0,0.0,0.0,0.0,0.0,0.0,0.0,0.0,0.0,0.0,0.0,0.0,0.0,0.0,0.0,0.0,2.5684,2.6392,2.7878,2.8184,2.8301,2.8301,2.7936,2.7252,2.6152,2.5644,0.0,0.0,0.0,0.0,0.0,0.0,0.0,0.0,0.0,0.0,0.0,0.0,0.0,0.0,0.0,0.0,0.0,0.0,0.0,0.0,0.0,0.0,0.0,0.0,0.0,0.0,0.0,0.0,0.0,0.0,0.0,0.0,0.0,0.0,0.0,0.0,0.0,0.0,0.0,0.0,0.0,0.0,0.0,0.0,0.0,0.0,0.0,0.0,0.0,0.0,0.0,0.0,0.0,0.0,0.0,0.0,0.0,0.0,0.0,0.0,0.0,0.0,0.0,0.0,0.0,0.0,0.0,0.0,0.0,0.0,0.0,0.0,0.0,0.0,0.0,0.0,0.0,0.0,0.0,0.0,0.0,0.0,0.0,0.0,0.0,0.0,0.0,0.0,0.0,0.0,0.0,0.0,0.0,0.0,0.0,0.0,0.0,0.0,0.0,0.0,0.0,0.0,2.6699,2.7135,2.8184,2.8301,2.8301,2.8301,2.7839,2.7174,2.6289,2.5434,0.0,0.0,0.0,0.0,0.0,0.0,0.0,0.0,0.0,0.0,0.0,0.0,0.0,0.0,0.0,0.0,0.0,0.0,0.0,0.0,0.0,0.0,0.0,0.0,0.0,0.0,0.0,0.0,0.0,0.0,0.0,0.0,0.0,0.0,0.0,0.0,0.0,0.0,0.0,0.0,0.0,0.0,0.0,0.0,0.0,0.0,0.0,0.0,0.0,0.0,0.0,0.0,0.0,0.0,0.0,0.0,0.0,0.0,0.0,0.0,0.0,0.0,0.0,0.0,0.0,0.0,0.0,0.0,0.0,0.0,0.0,0.0,0.0,0.0,0.0,0.0,0.0,0.0,0.0,0.0,0.0,0.0,0.0,0.0,0.0,0.0,0.0,0.0,0.0,0.0,0.0,0.0,0.0,0.0,0.0,0.0,0.0,0.0,0.0,0.0,0.0,0.0,2.6855,2.778,2.8242,2.8301,2.8301,2.8301,2.7539,2.6674,2.5815,2.4937,0.0,0.0,0.0,0.0,0.0,0.0,0.0,0.0,0.0,0.0,0.0,0.0,0.0,0.0,0.0,0.0,0.0,0.0,0.0,0.0,0.0,0.0,0.0,0.0,0.0,0.0,0.0,0.0,0.0,0.0,0.0,0.0,0.0,0.0,0.0,0.0,0.0,0.0,0.0,0.0,0.0,0.0,0.0,0.0,0.0,0.0,0.0,0.0,0.0,0.0,0.0,0.0,0.0,0.0,0.0,0.0,0.0,0.0,0.0,0.0,0.0,0.0,0.0,0.0,0.0,0.0,0.0,0.0,0.0,0.0,0.0,0.0,0.0,0.0,0.0,0.0,0.0,0.0,0.0,0.0,0.0,0.0,0.0,0.0,0.0,0.0,0.0,0.0,0.0,0.0,0.0,0.0,0.0,0.0,0.0,0.0,0.0,0.0,0.0,0.0,0.0,0.0,2.7057,2.7956,0.0,2.8664,2.8574,2.832,2.7988,2.7344,2.6211,0.0,0.0,0.0,0.0,0.0,0.0,0.0,0.0,0.0,0.0,0.0,0.0,0.0,0.0,0.0,0.0,0.0,0.0,0.0,0.0,0.0,0.0,0.0,0.0,0.0,0.0,0.0,0.0,0.0,0.0,0.0,0.0,0.0,0.0,0.0,0.0,0.0,0.0,0.0,0.0,0.0,0.0,0.0,0.0,0.0,0.0,0.0,0.0,0.0,0.0,0.0,0.0,0.0,0.0,0.0,0.0,0.0,0.0,0.0,0.0,0.0,0.0,0.0,0.0,0.0,0.0,0.0,0.0,0.0,0.0,0.0,0.0,0.0,0.0,0.0,0.0,0.0,0.0,0.0,0.0,0.0,0.0,0.0,0.0,0.0,0.0,0.0,0.0,0.0,0.0,0.0,0.0,0.0,0.0,0.0,0.0,0.0,0.0,0.0,0.0,0.0,0.0,2.625,2.7363,2.8367,0.0,2.9004,2.8781,2.8516,2.8125,2.7402,2.625,0.0,0.0,0.0,0.0,0.0,0.0,0.0,0.0,0.0,0.0,0.0,0.0,0.0,0.0,0.0,0.0,0.0,0.0,0.0,0.0,0.0,0.0,0.0,0.0,0.0,0.0,0.0,0.0,0.0,0.0,0.0,0.0,0.0,0.0,0.0,0.0,0.0,0.0,0.0,0.0,0.0,0.0,0.0,0.0,0.0,0.0,0.0,0.0,0.0,0.0,0.0,0.0,0.0,0.0,0.0,0.0,0.0,0.0,0.0,0.0,0.0,0.0,0.0,0.0,0.0,0.0,0.0,0.0,0.0,0.0,0.0,0.0,0.0,0.0,0.0,0.0,0.0,0.0,0.0,0.0,0.0,0.0,0.0,0.0,0.0,0.0,0.0,0.0,0.0,0.0,0.0,0.0,0.0,0.0,0.0,0.0,0.0,0.0,0.0,0.0,0.0,0.0,2.6348,2.7871,2.9101,2.9559,2.9199,2.8898,2.8898,2.7747,2.6635,0.0,0.0,0.0,0.0,0.0,0.0,0.0,0.0,0.0,0.0,0.0,0.0,0.0,0.0,0.0,0.0,0.0,0.0,0.0,0.0,0.0,0.0,0.0,0.0,0.0,0.0,0.0,0.0,0.0,0.0,0.0,0.0,0.0,0.0,0.0,0.0,0.0,0.0,0.0,0.0,0.0,0.0,0.0,0.0,0.0,0.0,0.0,0.0,0.0,0.0,0.0,0.0,0.0,0.0,0.0,0.0,0.0,0.0,0.0,0.0,0.0,0.0,0.0,0.0,0.0,0.0,0.0,0.0,0.0,0.0,0.0,0.0,0.0,0.0,0.0,0.0,0.0,0.0,0.0,0.0,0.0,0.0,0.0,0.0,0.0,0.0,0.0,0.0,0.0,0.0,0.0,0.0,0.0,0.0,0.0,0.0,0.0,0.0,0.0,0.0,0.0,0.0,0.0,2.6777,2.8574,2.9863,3.0,2.9902,2.9707,2.9422,2.875,2.7734,2.6289,0.0,0.0,0.0,0.0,0.0,0.0,0.0,0.0,0.0,0.0,0.0,0.0,0.0,0.0,0.0,0.0,0.0,0.0,0.0,0.0,0.0,0.0,0.0,0.0,0.0,0.0,0.0,0.0,0.0,0.0,0.0,0.0,0.0,0.0,0.0,0.0,0.0,0.0,0.0,0.0,0.0,0.0,0.0,0.0,0.0,0.0,0.0,0.0,0.0,0.0,0.0,0.0,0.0,0.0,0.0,0.0,0.0,0.0,0.0,0.0,0.0,0.0,0.0,0.0,0.0,0.0,0.0,0.0,0.0,0.0,0.0,0.0,0.0,0.0,0.0,0.0,0.0,0.0,0.0,0.0,0.0,0.0,0.0,0.0,0.0,0.0,0.0,0.0,0.0,0.0,0.0,0.0,0.0,0.0,0.0,0.0,0.0,0.0,0.0,0.0,0.0,0.0,2.6947,2.8867,3.0273,3.0449,3.0312,3.0098,2.9872,2.9258,2.8235,2.6738,0.0,0.0,0.0,0.0,0.0,0.0,0.0,0.0,0.0,0.0,0.0,0.0,0.0,0.0,0.0,0.0,0.0,0.0,0.0,0.0,0.0,0.0,0.0,0.0,0.0,0.0,0.0,0.0,0.0,0.0,0.0,0.0,0.0,0.0,0.0,0.0,0.0,0.0,0.0,0.0,0.0,0.0,0.0,0.0,0.0,0.0,0.0,0.0,0.0,0.0,0.0,0.0,0.0,0.0,0.0,0.0,0.0,0.0,0.0,0.0,0.0,0.0,0.0,0.0,0.0,0.0,0.0,0.0,0.0,0.0,0.0,0.0,0.0,0.0,0.0,0.0,0.0,0.0,0.0,0.0,0.0,0.0,0.0,0.0,0.0,0.0,0.0,0.0,0.0,0.0,0.0,0.0,0.0,0.0,0.0,0.0,0.0,0.0,0.0,0.0,0.0,0.0,2.709,2.9004,3.0488,3.0898,3.0566,3.0312,3.0273,2.9512,2.845,2.7168,0.0,0.0,0.0,0.0,0.0,0.0,0.0,0.0,0.0,0.0,0.0,0.0,0.0,0.0,0.0,0.0,0.0,0.0,0.0,0.0,0.0,0.0,0.0,0.0,0.0,0.0,0.0,0.0,0.0,0.0,0.0,0.0,0.0,0.0,0.0,0.0,0.0,0.0,0.0,0.0,0.0,0.0,0.0,0.0,0.0,0.0,0.0,0.0,0.0,0.0,0.0,0.0,0.0,0.0,0.0,0.0,0.0,0.0,0.0,0.0,2.7995,2.7246,0.0,0.0,0.0,0.0,0.0,0.0,0.0,0.0,0.0,0.0,0.0,0.0,0.0,0.0,0.0,0.0,0.0,0.0,0.0,0.0,0.0,0.0,0.0,0.0,0.0,0.0,0.0,0.0,0.0,0.0,0.0,0.0,0.0,0.0,0.0,0.0,0.0,0.0,0.0,0.0,2.7969,2.9902,3.124,3.1367,3.1289,3.1094,3.0762,3.0234,2.9238,2.7663,2.7109,0.0,0.0,0.0,0.0,0.0,0.0,0.0,0.0,0.0,0.0,0.0,0.0,0.0,0.0,0.0,0.0,0.0,0.0,0.0,0.0,0.0,0.0,0.0,0.0,0.0,0.0,0.0,0.0,0.0,0.0,0.0,0.0,0.0,0.0,0.0,0.0,0.0,0.0,0.0,0.0,0.0,0.0,0.0,0.0,0.0,0.0,0.0,0.0,0.0,0.0,0.0,0.0,0.0,0.0,0.0,0.0,0.0,0.0,0.0,2.8804,2.875,0.0,0.0,0.0,0.0,0.0,0.0,0.0,0.0,0.0,0.0,0.0,0.0,0.0,0.0,0.0,0.0,0.0,0.0,0.0,0.0,0.0,0.0,0.0,0.0,0.0,0.0,0.0,0.0,0.0,0.0,0.0,0.0,0.0,0.0,0.0,0.0,0.0,0.0,0.0,0.0,2.8242,3.0176,3.1601,3.1816,3.1836,3.1738,3.1553,3.0928,3.0059,2.8973,2.7715,0.0,0.0,0.0,0.0,0.0,0.0,0.0,0.0,0.0,0.0,0.0,0.0,0.0,0.0,0.0,0.0,0.0,0.0,0.0,0.0,0.0,0.0,0.0,0.0,0.0,0.0,0.0,0.0,0.0,0.0,0.0,0.0,0.0,0.0,0.0,0.0,0.0,0.0,0.0,0.0,0.0,0.0,0.0,0.0,0.0,0.0,0.0,0.0,0.0,0.0,0.0,0.0,0.0,2.642,2.6663,2.6987,2.7052,2.7214,2.7506,2.9341,2.9957,2.9617,2.9646,0.0,0.0,0.0,0.0,0.0,0.0,0.0,0.0,0.0,0.0,0.0,0.0,0.0,0.0,0.0,0.0,0.0,0.0,0.0,0.0,0.0,0.0,2.9737,3.0087,3.0165,2.9676,2.7917,0.0,0.0,0.0,0.0,0.0,0.0,0.0,0.0,0.0,0.0,0.0,2.8574,3.0449,3.1875,3.2276,3.2316,3.2276,3.2198,3.1553,3.0859,3.0234,2.8555,2.7246,0.0,0.0,0.0,0.0,0.0,0.0,0.0,0.0,0.0,0.0,0.0,0.0,0.0,0.0,0.0,0.0,0.0,0.0,0.0,0.0,0.0,0.0,0.0,0.0,0.0,0.0,0.0,0.0,0.0,0.0,0.0,0.0,2.0374,2.017,0.0,0.0,0.0,0.0,0.0,0.0,0.0,0.0,0.0,0.0,0.0,0.0,0.0,2.4526,2.6308,2.6712,2.7036,2.7293,2.8074,2.8595,2.8952,2.9295,2.9458,2.9525,2.9818,0.0,2.7338,2.7466,0.0,0.0,0.0,0.0,0.0,0.0,0.0,0.0,0.0,0.0,0.0,0.0,0.0,0.0,0.0,0.0,0.0,0.0,0.0,0.0,0.0,0.0,3.2723,3.2441,3.2363,3.2285,3.2012,2.9941,2.7851,2.6934,2.683,2.6615,0.0,0.0,0.0,0.0,0.0,0.0,2.9883,3.1523,3.2656,3.2695,3.2715,3.2559,3.2237,3.2101,3.1514,3.0273,2.9933,2.8918,2.7012,2.6406,0.0,0.0,0.0,0.0,0.0,0.0,0.0,0.0,0.0,0.0,0.0,0.0,0.0,0.0,0.0,0.0,0.0,0.0,0.0,0.0,0.0,0.0,0.0,0.0,0.0,0.0,0.0,0.0,0.0,2.0726,2.1034,2.0535,2.0913,2.102,0.0,0.0,0.0,0.0,0.0,0.0,0.0,0.0,0.0,2.3046,2.3535,2.4232,2.5217,2.5537,2.5908,2.6366,2.675,2.718,2.7676,2.7859,2.802,2.8127,2.799,2.7449,2.6685,2.7639,2.7522,2.6568,0.0,0.0,0.0,0.0,2.581,2.6094,2.8372,2.8993,2.8799,2.8715,0.0,0.0,0.0,0.0,0.0,0.0,0.0,3.1055,3.1816,3.2891,3.3867,3.418,3.4434,3.4551,3.4316,3.3008,3.1348,2.9551,2.8984,2.8457,2.7363,2.7324,0.0,0.0,0.0,3.0106,3.0527,3.1875,3.2891,3.3125,3.3144,3.3066,3.2891,3.2656,3.2296,3.1699,3.0742,2.9785,2.8848,2.7715,2.6842,0.0,0.0,0.0,0.0,0.0,0.0,0.0,0.0,0.0,0.0,0.0,0.0,0.0,0.0,0.0,0.0,0.0,0.0,0.0,0.0,0.0,0.0,0.0,0.0,0.0,0.0,0.0,0.0,2.1315,2.1703,2.1114,2.1636,2.181,0.0,0.0,0.0,0.0,0.0,0.0,2.2144,2.2672,2.3126,2.3455,2.4058,2.4499,2.4756,2.4983,2.5306,2.5852,2.5772,2.6052,2.6653,2.6453,2.6547,2.6814,2.652,2.6386,2.6463,2.7539,2.7482,2.6629,2.5261,2.4482,2.4204,2.4956,2.5178,2.5465,2.8048,2.8724,2.8463,2.8332,2.7831,2.7116,2.643,0.0,0.0,0.0,0.0,3.2207,3.3659,3.4414,3.4955,3.5703,3.6113,3.6269,3.5937,3.5351,3.4219,3.1973,3.1094,3.0371,2.9297,2.9023,0.0,2.8562,2.9774,3.082,3.1172,3.2226,3.3066,3.3347,3.3386,3.3386,3.3386,3.3144,3.291,3.2793,3.1582,3.0762,3.0547,2.9246,2.8269,2.7676,0.0,0.0,0.0,0.0,0.0,0.0,0.0,0.0,0.0,0.0,0.0,0.0,0.0,0.0,0.0,0.0,0.0,0.0,0.0,0.0,0.0,0.0,0.0,0.0,0.0,0.0,0.0,0.0,0.0,2.2024,2.2699,0.0,0.0,0.0,0.0,2.3118,2.3172,2.334,2.3683,2.4209,2.4626,2.4994,2.5583,2.6024,2.6279,2.6293,2.6453,2.6707,2.648,2.6653,2.7242,2.664,2.6547,2.6814,2.652,2.6386,2.6386,2.587,2.5289,2.4699,2.4367,2.4071,2.3993,2.5571,2.6115,2.6439,2.8538,2.926,2.9393,3.0186,2.9645,2.8887,2.9985,3.0102,0.0,0.0,3.3887,3.4726,3.5644,3.6211,3.6695,3.709,3.7226,3.7226,3.7207,3.623,3.4941,3.3555,3.2637,3.1944,3.1445,0.0,3.0762,3.0723,3.1534,3.2101,3.212,3.2851,3.3367,3.3386,3.3386,3.3386,3.3386,3.3367,3.3223,3.2812,3.2715,3.2305,3.1484,3.0996,3.0361,2.9481,2.8249,0.0,0.0,0.0,0.0,0.0,0.0,0.0,0.0,0.0,0.0,0.0,0.0,0.0,0.0,0.0,0.0,0.0,0.0,0.0,0.0,0.0,0.0,0.0,0.0,0.0,0.0,0.0,0.0,2.2899,2.3794,0.0,2.3621,2.3567,2.3741,2.4106,2.4479,2.4863,2.5195,2.5732,2.6053,2.6199,2.6587,2.6881,2.6988,2.6988,2.7041,2.7108,2.7001,2.7108,2.7309,2.7241,2.7188,2.7108,2.7041,2.6841,2.664,2.6239,2.5838,2.5451,2.5157,2.4983,2.4965,2.5533,2.588,2.6172,2.6908,2.7162,2.717,2.7095,2.7671,2.8565,2.9693,3.0813,3.2217,3.4445,3.5312,3.5742,3.6621,3.7148,3.7519,3.7676,3.791,3.8047,3.7754,3.7344,3.6797,3.6055,3.4316,3.293,3.2742,3.2586,3.2422,3.2168,3.2851,3.343,3.343,3.3684,3.3848,3.3848,3.3594,3.3386,3.3386,3.3386,3.3328,3.3203,3.2949,3.2656,3.2363,3.1934,3.1455,3.084,3.0117,2.8611,0.0,0.0,0.0,0.0,0.0,0.0,0.0,0.0,0.0,0.0,0.0,0.0,0.0,0.0,0.0,0.0,0.0,0.0,0.0,0.0,0.0,0.0,0.0,0.0,0.0,2.3442,2.4209,2.4209,2.4983,2.5371,2.4983,2.485,2.4957,2.5306,2.5693,2.6079,2.6426,2.6854,2.7121,2.7121,2.7443,2.7603,2.7603,2.7603,2.7603,2.7603,2.7496,2.751,2.7603,2.7603,2.7495,2.7443,2.7349,2.7148,2.6961,2.676,2.652,2.6265,2.5919,2.5812,2.5812,2.5812,2.5932,2.6145,2.6145,2.6198,2.6185,2.561,2.6838,2.8752,2.9932,3.1702,3.3782,3.6005,3.6625,3.6801,3.7539,3.793,3.8144,3.8144,3.8359,3.8496,3.8203,3.7991,3.7816,3.7559,3.5762,3.4264,3.4264,3.4011,3.3711,3.3281,3.386,3.4271,3.4114,3.4231,3.431,3.431,3.4023,3.3789,3.3652,3.3496,3.3386,3.3386,3.2891,3.2656,3.2793,3.1873,3.1157,3.0708,2.9576,2.7755,2.5233,0.0,0.0,0.0,0.0,0.0,0.0,0.0,0.0,0.0,0.0,0.0,0.0,0.0,0.0,0.0,0.0,0.0,0.0,0.0,0.0,0.0,0.0,0.0,2.379,2.4606,2.5382,2.5971,2.6266,2.6453,2.644,2.6225,2.6292,2.6814,2.6854,2.6987,2.7322,2.7562,2.7709,2.7709,2.8031,2.8179,2.8179,2.8179,2.8179,2.8165,2.7884,2.7884,2.8138,2.7576,2.7469,2.7669,2.7443,2.7309,2.7309,2.7309,2.7094,2.6814,2.652,2.64,2.6386,2.6386,2.6386,2.6386,2.6386,2.6613,2.6814,2.6316,2.7731,2.9884,3.1144,3.3003,3.5118,3.733,3.7933,3.803,3.8513,3.8611,3.8611,3.8611,3.8611,3.8611,3.8611,3.8242,3.7913,3.7913,3.6899,3.604,3.6035,3.5332,3.4629,3.4231,3.4473,0.0,3.4212,3.4473,3.4726,3.4707,3.4687,3.4512,3.4134,3.3672,3.3386,3.3343,3.2594,3.2291,3.2638,3.0742,2.9454,2.9076,2.6576,2.5011,2.4493,0.0,0.0,0.0,0.0,0.0,0.0,0.0,0.0,0.0,0.0,0.0,0.0,0.0,0.0,0.0,0.0,0.0,0.0,0.0,0.0,0.0,2.3928,2.4556,2.4422,2.5518,2.648,2.6907,2.7549,2.7909,2.7724,2.763,2.7563,2.7455,2.7697,2.7857,2.7938,2.8018,2.8058,2.8058,2.8138,2.8179,2.8179,2.8179,2.8072,2.7816,2.7736,2.7629,2.755,2.7603,2.7509,2.7429,2.7522,2.7455,2.7309,2.7309,2.7255,2.7108,2.6814,2.6573,2.6386,2.6386,2.6386,2.6386,2.6386,2.7618,2.9177,2.9041,3.1589,3.4834,3.5199,3.6771,3.8472,3.8759,3.8848,3.8809,3.8633,3.8611,3.8611,3.8611,3.8611,3.8611,3.8611,3.8513,3.8398,3.8398,3.7851,3.7207,3.6601,3.6323,3.601,3.5547,3.5586,3.5605,3.5508,3.5312,3.5078,3.4726,3.4434,3.4231,3.4114,3.3672,3.2995,3.2004,3.146,3.0678,2.9513,2.8941,2.8563,2.8429,2.5865,2.444,0.0,0.0,0.0,0.0,0.0,0.0,0.0,0.0,0.0,0.0,0.0,0.0,0.0,0.0,0.0,0.0,0.0,0.0,0.0,0.0,0.0,0.0,2.513,2.5879,2.6079,2.6734,2.7388,2.7949,2.8364,2.8577,2.8524,2.8326,2.8112,2.7938,2.8085,2.8179,2.8179,2.8179,2.8179,2.8179,2.8179,2.8179,2.8179,2.8179,2.8098,2.7924,2.7924,2.7844,2.7684,2.7844,2.7831,2.7684,2.7857,2.7831,2.767,2.767,2.7603,2.7456,0.0,0.0,0.0,0.0,2.6573,2.6547,2.6426,2.7973,3.0021,3.01,3.3086,3.6723,3.68,3.8253,3.9805,3.9336,3.9199,3.9101,3.8691,3.8747,3.8828,3.8828,3.8828,3.8828,3.8828,3.8828,3.8828,3.8828,3.8633,0.0,3.7614,3.7203,3.6797,3.6348,3.6289,3.6289,3.6289,3.5918,3.5684,3.5781,3.5254,3.4611,3.3945,3.3199,0.0,0.0,0.0,2.8671,2.6899,2.669,0.0,0.0,0.0,0.0,0.0,2.2476,0.0,0.0,2.2041,2.1657,0.0,0.0,0.0,0.0,0.0,0.0,0.0,0.0,0.0,0.0,0.0,0.0,0.0,0.0,0.0,0.0,2.64,2.7268,2.8165,2.8085,2.819,2.8948,2.8855,2.8845,2.9028,2.8647,2.8326,2.8286,2.8286,2.8286,2.8286,2.8286,0.0,0.0,0.0,2.8232,2.8232,2.8232,2.8259,2.8286,2.8286,2.8286,2.8286,2.8286,2.8286,2.8286,2.8259,2.8232,2.8232,2.8205,2.8031,2.7722,2.7429,2.7309,2.7269,2.6974,2.6867,2.6827,2.6573,0.0,0.0,3.046,3.3431,3.6992,3.7108,3.8424,3.9805,3.9336,3.9199,3.9101,3.8691,3.8887,3.9199,3.9141,3.916,3.9199,3.9199,3.9199,3.9199,3.9199,3.9199,3.9062,3.8689,3.791,3.7226,3.6851,3.6773,3.6773,3.6773,3.6406,3.6322,3.6813,3.6178,0.0,3.3393,3.229,3.0855,2.9005,2.7912,2.6599,2.4922,2.4576,2.3866,2.2659,2.2638,2.306,2.391,2.391,2.4168,2.4653,2.2853,2.2572,0.0,0.0,0.0,0.0,0.0,0.0,0.0,0.0,0.0,0.0,0.0,0.0,0.0,0.0,0.0,2.6413,2.7308,2.8152,2.8778,2.9018,2.9205,2.9379,2.9553,2.9593,2.9419,2.9285,2.9125,2.8885,2.8871,2.8871,2.8871,2.8871,2.8764,2.8524,2.8524,2.8524,2.8524,2.8524,2.8631,2.8871,2.8871,0.0,2.8871,2.8871,2.8871,2.8815,2.8617,2.8524,2.8497,2.8286,2.8152,2.8045,2.751,2.7309,2.7296,2.7242,2.7175,2.7215,2.7162,2.9647,3.2891,3.293,3.5804,3.9259,3.9297,3.9581,0.0,3.9336,3.9199,3.9101,3.8691,3.8887,3.9121,3.8769,3.8965,3.9199,3.9199,3.9199,3.9199,3.9199,3.9199,3.9062,3.8689,3.8144,3.7656,3.7246,3.7168,3.7168,3.7168,3.7109,3.6358,3.4494,3.4171,3.3269,3.1323,3.0641,2.9676,2.8215,2.6257,2.5046,2.4666,2.4611,2.4431,2.4172,2.4172,2.4252,2.4439,2.4439,2.4733,2.5331,2.469,2.4649,0.0,0.0,0.0,0.0,0.0,0.0,0.0,0.0,0.0,0.0,0.0,2.4079,2.4556,0.0,2.6627,2.7362,2.811,2.8751,2.9205,2.9513,2.9646,2.9499,2.9606,2.9646,2.9499,2.9352,2.9205,2.9001,2.9001,2.9001,2.9001,2.9001,2.8935,2.8788,2.8775,2.8775,2.8775,2.8775,2.8855,2.9001,2.9001,2.9001,2.9001,2.9001,2.9001,2.8988,2.8841,2.8775,2.8775,2.8657,2.8591,2.8564,2.827,2.7976,2.7724,2.7576,2.7482,2.762,2.8585,3.098,3.3808,3.5131,3.7649,4.0254,4.0469,4.0527,4.0449,3.998,3.9863,3.9766,3.9336,3.9551,3.9805,3.9609,3.9707,3.9863,3.9863,3.9863,3.9863,3.9863,3.9687,3.9473,3.9277,3.7846,3.7003,3.7825,3.6892,3.6151,3.6357,3.5138,3.3945,3.3137,3.2664,3.1742,3.0121,2.8587,2.7429,2.6758,2.5384,2.4666,2.485,2.4679,2.4666,2.485,2.4959,2.5186,2.5518,2.5626,2.5959,2.6426,2.7541,2.7951,0.0,0.0,0.0,0.0,0.0,0.0,0.0,2.3545,2.3639,2.4035,2.4569,2.5133,2.5825,2.68,2.7697,2.8339,2.8858,2.9268,2.9606,2.99,3.0007,2.9766,2.974,2.974,2.974,2.9472,2.9255,2.9255,2.9202,2.9161,2.9161,2.9161,2.9135,2.9081,2.9081,2.9081,2.9081,2.9081,2.9108,2.9161,2.9161,2.9161,2.9161,2.9161,2.9161,2.9161,2.9108,2.9041,2.9001,2.9001,2.9001,2.9001,2.9001,2.8738,2.8326,2.8043,2.7923,2.8163,3.0077,3.2044,3.4081,3.6646,3.8778,4.0469,4.082,4.0957,4.0859,4.0508,4.0372,4.0332,3.998,4.0215,4.0469,4.0372,4.043,4.0489,4.0489,4.0489,4.0489,4.0489,3.9892,3.9355,3.9278,3.6957,3.5788,3.7792,3.6018,3.4599,3.5023,3.3008,3.1661,3.2025,3.1458,3.0476,2.913,2.7067,2.5852,2.5852,2.5373,2.5251,2.5529,2.5277,2.5237,2.5411,2.5705,2.6052,2.6466,2.676,2.7297,2.8071,3.0077,3.0751,1.1698,1.2928,1.5238,1.9197,2.054,2.1514,0.0,2.4452,2.4613,2.5197,2.5785,2.6453,2.7295,2.7817,2.8366,2.9236,2.9606,2.9927,3.0266,3.0515,3.0688,3.0648,3.0648,3.0648,3.0648,3.0426,3.0253,3.0253,2.9967,2.982,2.982,2.982,2.97,2.9446,2.9432,2.9432,2.9432,2.9432,2.9566,2.982,2.982,2.982,2.982,2.982,2.982,2.9806,2.9553,2.9285,2.9001,2.9001,2.9001,2.9001,2.9001,2.8961,2.8895,2.8855,2.8681,2.8782,3.0913,3.2673,3.4336,3.6578,3.8513,3.998,4.0019,4.0039,4.0019,3.998,3.9961,3.9961,3.9902,4.0215,4.043,4.0059,4.0254,4.0489,4.0489,4.0489,4.0489,4.0489,3.8931,3.7467,3.7027,3.5128,3.4242,3.6015,3.4284,3.2992,3.3559,3.31,3.2149,3.0709,3.044,2.9603,2.7717,2.727,2.7108,2.7108,2.7041,2.7028,2.7068,2.7028,2.6867,2.6587,2.6921,2.6974,2.6774,2.7068,2.8397,3.0584,3.0858,3.095,1.4638,1.6523,1.8645,2.059,2.2299,2.3851,2.5338,2.5919,2.6279,2.6707,2.7255,2.7789,2.8163,2.8751,2.9299,2.9673,3.0127,3.0949,3.2501,3.1757,3.1525,3.2728,3.1945,3.1169,3.0822,3.0688,3.0608,3.0608,3.0341,3.0181,3.0181,3.0007,2.986,2.974,2.974,2.974,2.974,2.974,2.9793,2.9913,2.9913,2.9913,2.9913,2.9913,3.0007,3.0154,2.986,2.9766,2.9793,2.9619,2.9508,2.9508,2.9508,2.9508,2.9632,3.0647,3.0981,3.1364,3.4886,3.6311,3.697,3.9212,4.0239,4.0683,4.0683,4.0683,4.0683,4.0683,4.0683,4.0683,4.0683,4.0762,4.0859,4.0722,4.0781,4.0898,4.0898,3.9891,3.8995,3.8995,3.703,3.5304,3.5111,3.3157,3.1912,3.2832,3.1952,3.1315,3.1571,3.046,2.9366,2.8637,2.857,2.8219,2.7391,2.7309,2.7309,2.7309,2.7309,2.7309,2.7309,2.7309,2.7242,2.7081,2.7375,2.8099,2.9234,2.9549,3.0858,3.3183,3.442,3.5023,1.7891,1.9825,2.1519,2.2546,2.4353,2.6026,2.6613,2.7122,2.7495,2.7869,2.8297,2.8657,2.8818,2.9432,2.994,3.002,3.1108,3.2521,3.4305,3.3282,3.2873,3.4349,3.279,3.1383,3.0955,3.0915,3.0915,3.0915,3.0648,3.052,3.052,3.0274,3.0154,3.0154,3.0154,3.0154,3.0154,3.0154,3.0114,3.0034,3.0034,2.9993,2.9913,3.0007,3.0194,3.052,3.0247,3.0274,3.0507,3.0247,3.0114,3.0034,3.0034,2.9993,3.0204,3.277,3.3218,3.3169,3.7019,3.851,3.9058,4.1258,4.1758,4.1523,4.1523,4.1426,4.1387,4.1387,4.1308,4.1211,4.1211,4.1211,4.1211,4.1211,4.1211,4.1055,4.0431,3.904,3.7737,3.7122,3.5,3.3291,3.3291,3.1285,2.9818,3.005,2.9891,2.9746,2.9746,2.8468,2.755,2.755,2.755,2.755,2.755,2.755,2.755,2.755,2.755,2.755,2.755,2.755,2.7784,2.8302,2.8593,2.9748,3.1872,3.2171,3.3431,3.5621,3.7162,3.8286,2.0251,2.1502,2.2834,2.5281,2.6307,2.6934,2.7522,2.7669,2.7856,2.8457,2.8591,2.8778,2.9352,2.9713,3.0007,3.0346,3.2848,3.4784,3.4876,3.5068,3.5096,3.4906,3.2719,3.1236,3.1162,3.1209,3.1209,3.1209,3.0942,3.0782,3.0782,3.0768,3.0768,3.0768,3.0768,3.0768,3.0768,3.0768,3.0621,3.0386,3.0386,3.0194,2.9927,3.0266,3.0547,3.0782,3.0768,3.0768,3.0782,3.0768,3.0595,3.0386,3.0386,3.0167,3.0437,3.4996,3.5079,3.3218,3.5488,3.7573,3.9518,4.17,4.2362,4.2343,4.2343,4.2109,4.1777,4.1777,4.1484,4.1211,4.1211,4.1211,4.1211,4.1211,4.1211,4.0607,3.8469,3.7935,3.7281,3.5177,3.3022,3.146,3.146,2.9704,2.8278,2.8292,2.8292,2.8278,2.8278,2.8194,2.8165,2.8165,2.8165,2.8165,2.8165,2.8165,2.8165,2.8165,2.8165,2.8165,2.8165,2.8165,2.9035,3.0873,3.113,3.2237,3.4107,3.4429,3.5702,3.7816,3.7856,3.9244,2.269,2.4057,2.5037,2.6215,2.7121,2.7844,2.8203,2.8604,2.8938,2.9152,2.9192,2.9245,2.9446,3.0973,3.18,3.0618,3.2862,3.5425,3.7367,3.4892,3.3952,3.6688,3.3579,3.1156,3.0955,3.1116,3.1303,3.1503,3.1249,3.1076,3.1076,3.0902,3.0795,3.0795,3.0795,3.0795,3.0795,3.0795,3.0742,3.0648,3.0648,3.0595,3.0501,3.0595,3.0808,3.1076,3.0875,3.0902,3.1062,3.0875,3.0742,3.0648,3.0648,3.156,3.3035,3.4346,3.6241,3.8486,4.0487,4.1463,4.192,4.2649,4.2656,4.2382,4.2382,4.2284,4.2207,4.2207,4.2109,4.2012,4.2012,4.2012,4.1635,4.0098,3.9718,3.9094,3.6802,3.5196,3.3927,3.2959,3.1039,2.9494,2.9328,2.867,2.8179,2.8179,2.8179,2.8179,2.8179,2.8179,2.8179,2.8179,2.8179,2.8179,2.8179,2.8179,2.8272,2.8444,2.8299,2.8272,2.8444,2.8299,2.916,3.1242,3.1639,3.3401,3.6649,3.7339,3.8626,4.0479,4.0745,4.1374,2.4661,2.5758,2.6453,2.7255,2.7883,2.846,2.8831,2.9219,2.9513,2.9619,2.9553,2.9486,2.9486,3.0889,3.1628,3.056,3.2862,3.5455,3.7388,3.4966,3.3952,3.6659,3.3447,3.1036,3.0955,3.1022,3.1236,3.1684,3.149,3.1383,3.1383,3.1209,3.1102,3.1102,3.1102,3.1102,3.1102,3.1102,3.1049,3.0942,3.0849,3.0849,3.0942,3.0942,3.1102,3.137,3.1183,3.1209,3.137,3.1183,3.1049,3.0942,3.0942,3.1817,3.3309,3.474,3.7205,4.0076,4.1868,4.2837,4.3301,4.3301,4.3105,4.285,4.285,4.2773,4.2656,4.2656,4.2539,4.2382,4.2382,4.18,4.0833,3.9373,3.8353,3.7139,3.4845,3.3256,3.1978,3.0979,2.9669,2.8698,2.854,2.85,2.85,2.85,2.85,2.8433,2.8219,2.8179,2.8179,2.8179,2.8179,2.8179,2.8179,2.8286,2.8433,2.8591,2.9307,2.9802,3.0012,3.0594,3.1945,3.4127,3.4435,3.6208,3.9507,4.0068,4.0903,4.2031,4.2265,4.25,2.6092,2.664,2.7161,2.8323,2.8631,2.8804,2.9379,2.9499,2.9566,2.986,2.9659,2.9446,2.9459,2.9591,2.9824,3.0293,3.2894,3.4996,3.5279,3.5214,3.5094,3.4936,3.2513,3.0929,3.1196,3.0982,3.1049,3.1671,3.1698,3.1698,3.1711,3.1724,3.1724,3.1711,3.1724,3.1724,3.1711,3.1711,3.153,3.1203,3.0969,3.0982,3.1249,3.1249,3.1396,3.1711,3.1711,3.1711,3.1711,3.1711,3.1503,3.1249,3.1249,3.1169,3.1592,3.6213,3.7981,3.8324,3.9987,4.1946,4.3769,4.3769,4.3769,4.3769,4.3769,4.3496,4.3183,4.3042,4.279,4.2478,4.2217,4.0662,3.9035,3.8789,3.7017,3.4809,3.2637,3.2182,3.1539,2.9436,2.9001,2.9001,2.9001,2.9001,2.9015,2.9001,2.9015,2.8845,2.8312,2.8232,2.8232,2.8232,2.8232,2.8232,2.8232,2.8457,2.8674,2.8816,3.1166,3.2536,3.2679,3.4777,3.6932,3.915,3.9227,4.0265,4.2382,4.244,4.244,4.2421,4.246,4.2754,2.6453,2.7255,2.7978,2.847,2.8938,2.9352,2.9726,2.9633,2.9566,2.986,2.9339,2.8898,2.9068,3.0547,3.1352,3.0196,3.266,3.4873,3.5232,3.3932,3.3417,3.4736,3.2649,3.1142,3.1176,3.1156,3.1263,3.1684,3.1463,3.1436,3.1711,3.1877,3.1891,3.1724,3.1877,3.1891,3.1724,3.1711,3.1684,3.1557,3.1476,3.149,3.1557,3.1557,3.1597,3.1711,3.1711,3.1711,3.1711,3.1711,3.1671,3.1557,3.1557,3.2653,3.4453,3.7198,3.9388,4.1239,4.3144,4.4203,4.4687,4.4687,4.4687,4.4687,4.4687,4.4609,4.4133,4.2337,4.3046,4.3476,3.9849,3.9637,3.9511,3.5949,3.4514,3.33,3.1019,3.0502,3.0315,2.9538,2.9192,2.9001,2.9001,2.9219,2.9299,2.9028,2.9232,2.9232,2.8858,2.8804,2.8804,2.8804,2.8804,2.8804,2.8804,2.8841,2.9742,3.17,3.2241,3.3352,3.5348,3.5705,3.6932,3.915,3.948,4.0544,4.2382,4.3066,4.3223,4.293,4.3594,4.3945,2.7161,2.7804,2.8326,2.8845,2.9245,2.9499,2.9482,2.9513,2.9419,2.9179,2.8751,2.8457,2.8617,2.9729,3.048,2.9989,3.172,3.3325,3.3827,3.3003,3.2687,3.379,3.2516,3.1664,3.1797,3.169,3.173,3.2072,3.1784,3.1677,3.1851,3.2131,3.2273,3.2112,3.226,3.2273,3.2099,3.1965,3.1965,3.2099,3.1845,3.1778,3.1851,3.173,3.1711,3.1711,3.1711,3.1791,3.1851,3.1764,3.1791,3.1994,3.3155,3.4403,3.6047,3.9478,4.1632,4.3124,4.5149,4.5816,4.5718,4.5172,4.4977,4.4977,4.4977,4.4977,4.4721,4.338,4.3208,4.2802,4.0053,3.8636,3.7298,3.4605,3.3112,3.1887,3.056,3.0301,3.0247,3.0087,2.9927,2.9806,2.9806,2.9953,3.0007,2.9833,2.9953,2.9953,2.9659,2.9242,2.9001,2.9001,2.9001,2.9001,2.9001,3.0251,3.1569,3.28,3.4947,3.6782,3.8064,3.9084,4.0196,4.1455,4.189,4.2546,4.3533,4.4043,4.416,4.3945,4.4433,4.4668,2.8072,2.8339,2.8553,2.9329,2.9486,2.9406,2.9068,2.9179,2.9142,2.8393,2.8179,2.8165,2.8286,2.8299,2.8687,2.9793,3.0675,3.1436,3.2024,3.2407,3.2594,3.2594,3.2318,3.2265,3.2567,3.2367,3.2265,3.2581,3.2345,3.2198,3.2158,3.2487,3.2648,3.2648,3.2621,3.2594,3.2594,3.2291,3.2291,3.2581,3.2072,3.1965,3.2158,3.1952,3.1831,3.1831,3.1831,3.1952,3.2091,3.1925,3.1891,3.2291,3.4645,3.5531,3.6145,4.1423,4.338,4.3758,4.6172,4.6967,4.6772,4.5543,4.5153,4.511,4.4791,4.4705,4.4558,4.3894,4.2431,4.0912,4.028,3.7217,3.4185,3.3882,3.2253,3.0795,3.0795,3.0795,3.0795,3.0795,3.0795,3.0795,3.0795,3.0795,3.0795,3.0795,3.0795,3.084,3.0935,2.9935,2.9175,2.9175,2.9468,2.97,2.9683,3.2456,3.417,3.4052,3.8408,4.0971,4.0947,4.3212,4.4492,4.4492,4.4844,4.4977,4.4977,4.5035,4.5074,4.5117,4.5192,4.5231,2.8711,2.9058,2.9329,2.9446,2.9486,2.9406,2.9068,2.8698,2.8446,2.8511,2.8123,2.8003,2.8751,2.8841,2.9192,3.0172,3.0808,3.1436,3.2024,3.2407,3.2594,3.2594,3.2554,3.2541,3.2594,3.2541,3.2541,3.2594,3.2768,3.2768,3.2527,3.2795,3.2955,3.2955,3.2728,3.2594,3.2594,3.2541,3.2541,3.2594,3.2487,3.2474,3.2514,3.246,3.2447,3.2447,3.2447,3.2326,3.2118,3.2367,3.2179,3.1845,3.2844,3.3016,3.3448,3.881,4.0768,4.1403,4.5936,4.7461,4.7324,4.6387,4.6074,4.5706,4.3656,4.3018,4.2156,3.8113,3.8159,3.8477,3.4432,3.4056,3.4266,3.2186,3.1234,3.0795,3.0795,3.0795,3.0795,3.0795,3.0795,3.0795,3.0795,3.0795,3.0795,3.0795,3.0795,3.1491,3.3478,3.1656,3.0172,3.0172,3.1958,3.3235,3.3455,3.5841,3.8102,3.9974,4.0984,4.2309,4.4087,4.4651,4.4922,4.4922,4.4938,4.4977,4.4977,4.5391,4.5566,4.5586,4.6269,4.6557,2.9112,2.9486,2.9713,2.9713,2.982,2.9744,2.8778,2.847,2.8257,2.7776,2.7562,2.7655,2.823,2.847,2.8818,2.9553,3.0167,3.0862,3.1744,3.2131,3.2527,3.2946,3.3,3.3,3.3,3.3,3.3,3.3,3.3133,3.308,3.2835,3.3053,3.32,3.32,3.3066,3.3,3.3,3.2888,3.2888,3.2986,3.2741,3.2674,3.2808,3.2661,3.2594,3.2594,3.2594,3.2594,3.2559,3.2594,3.2514,3.2517,3.4171,3.4719,3.5232,4.0668,4.2659,4.3158,4.6702,4.7055,4.6056,4.6747,4.6973,4.6489,4.3931,4.3144,4.2417,3.8704,3.7601,3.6961,3.4475,3.3752,3.3359,3.1988,3.169,3.1751,3.1751,3.1751,3.1751,3.1751,3.1751,3.1751,3.1751,3.1751,3.2212,3.3493,3.3539,3.4236,3.6597,3.556,3.4578,3.4412,3.544,3.6171,3.6284,3.8752,4.0614,4.1529,4.2963,4.41,4.4954,4.5449,4.5683,4.5683,4.6133,4.6348,4.6348,4.6562,4.666,4.6724,4.707,4.7266,2.9513,2.9887,3.0087,3.002,3.014,2.9945,2.8513,2.8326,2.8123,2.7121,2.7108,2.7443,2.7816,2.8125,2.8486,2.9045,2.9482,3.0261,3.1537,3.1864,3.2358,3.3293,3.3467,3.3507,3.3507,3.3574,3.3601,3.3601,3.3547,3.3414,3.3187,3.3387,3.3507,3.3507,3.3454,3.3414,3.3414,3.3187,3.3187,3.34,3.2946,3.2902,3.3066,3.2888,3.2781,3.2781,3.2781,3.2875,3.3009,3.2848,3.3178,3.3947,3.6134,3.7284,3.8316,4.32,4.4984,4.5325,4.7546,4.7063,4.5631,4.734,4.7354,4.6302,4.372,4.292,4.2302,3.9221,3.6915,3.5356,3.5156,3.3877,3.2541,3.2251,3.242,3.2594,3.2594,3.2594,3.2789,3.3297,3.297,3.2789,3.3297,3.297,3.3443,3.6023,3.6133,3.6945,3.9853,3.9869,3.9762,4.0097,3.9457,3.9018,3.9187,4.1603,4.2941,4.2628,4.4712,4.5781,4.5406,4.6172,4.6582,4.6582,4.7246,4.7578,4.7578,4.7818,4.7858,4.7715,4.8008,4.8086,3.0159,3.0488,3.0648,3.0426,3.014,2.9646,2.8486,2.7963,2.7682,2.7349,2.7282,2.7563,2.8364,2.8551,2.8751,2.9352,2.9486,3.002,3.151,3.1738,3.2131,3.328,3.3668,3.3841,3.3841,3.4082,3.4242,3.4242,3.3988,3.3828,3.3801,3.3828,3.3841,3.3841,3.3561,3.3414,3.3414,3.3387,3.3387,3.3414,3.336,3.3347,3.3374,3.3347,3.3334,3.3334,3.3334,3.32,3.3,3.324,3.4429,3.6175,3.6964,3.8534,4.0739,4.3833,4.4984,4.5361,4.7938,4.8697,4.8493,4.8704,4.6636,4.361,4.1187,4.0441,3.9409,3.4625,3.3116,3.2922,3.2895,3.2762,3.2581,3.2567,3.2581,3.2594,3.2594,3.2594,3.3297,3.5606,3.419,3.3346,3.564,3.4142,3.3443,3.6023,3.6376,3.8072,4.286,4.3439,4.4243,4.6498,4.3771,4.2101,4.2775,4.4737,4.5905,4.5866,4.645,4.6753,4.6714,4.7207,4.7461,4.7461,4.7539,4.7578,4.7578,4.8405,4.8581,4.8183,4.9375,4.9726,2.994,3.0568,3.0982,3.0688,3.0528,3.014,2.8965,2.8457,2.811,2.7629,2.7522,2.7696,2.8272,2.8366,2.8446,2.8687,2.8714,2.9115,3.0239,3.0707,3.1363,3.2478,3.32,3.3681,3.3868,3.4148,3.4322,3.4322,3.4215,3.4229,3.4402,3.4082,3.3881,3.3881,3.3761,3.3601,3.3414,3.3601,3.3694,3.3694,3.3868,3.3868,3.3708,3.3881,3.3868,3.3708,3.3881,3.3788,3.3534,3.3654,3.4027,3.4619,3.4871,3.5514,3.6613,3.9352,4.0368,4.0754,4.3357,4.3262,4.2195,4.3737,4.223,3.9947,4.0567,3.9659,3.7654,3.4077,3.3066,3.3026,3.2902,3.2848,3.2902,3.3026,3.3066,3.3066,3.3066,3.3066,3.3399,3.4408,3.3945,3.4217,3.6864,3.6647,3.7446,4.1426,4.1764,4.2771,4.6088,4.6273,4.6579,4.7839,4.6421,4.5559,4.5837,4.6613,4.707,4.707,4.7226,4.7324,4.7324,4.7734,4.7949,4.7949,4.8268,4.8476,4.875,4.9101,4.9316,4.9414,4.9941,5.0078,2.9967,3.0688,3.1122,3.0969,3.0795,3.0381,2.9242,2.8751,2.8323,2.7802,2.7696,2.7789,2.8125,2.8179,2.8179,2.8179,2.8179,2.8526,2.9472,2.9945,3.0574,3.1704,3.2465,3.308,3.3574,3.4202,3.4549,3.4456,3.4456,3.4536,3.4802,3.4376,3.4148,3.4148,3.3881,3.3721,3.3681,3.3814,3.3935,3.4015,3.4229,3.4215,3.4015,3.4229,3.4202,3.4028,3.4229,3.4202,3.4015,3.3921,3.4189,3.4673,3.4673,3.5586,3.7051,3.8989,4.0238,4.1159,4.3005,4.2545,4.1421,4.3255,4.1566,3.9225,4.1905,4.0206,3.677,3.4259,3.348,3.336,3.316,3.3173,3.3293,3.3507,3.3614,3.3681,3.3681,3.4309,3.5098,3.587,3.6206,3.7254,3.9962,3.9952,4.1025,4.5237,4.5591,4.6219,4.8485,4.8535,4.8418,4.8574,4.8457,4.8183,4.7793,4.7773,4.7715,4.7623,4.7949,4.8047,4.7773,4.8418,4.873,4.8594,4.907,4.9394,4.9726,4.9844,5.0,5.0243,5.043,5.0547,3.0461,3.0996,3.1176,3.1223,3.0795,3.0172,2.9202,2.8577,2.8098,2.7762,2.7696,2.7789,2.8125,2.8179,2.8179,2.8179,2.8179,2.8593,2.9753,2.9673,2.9927,3.1042,3.1503,3.2072,3.2955,3.4322,3.507,3.4829,3.4815,3.4815,3.4815,3.475,3.4698,3.4802,3.3881,3.3708,3.4309,3.4028,3.4028,3.4322,3.4322,3.4322,3.4322,3.4322,3.4322,3.4322,3.4322,3.4322,3.4295,3.4002,3.5408,3.7655,3.7655,4.0643,4.4944,4.5263,4.708,4.9371,4.9418,4.971,5.0061,5.0109,4.6483,4.2673,4.5399,4.2058,3.6829,3.4532,3.3654,3.3414,3.3414,3.3641,3.3881,3.3881,3.4095,3.4309,3.4309,3.6453,3.9073,4.1635,4.2229,4.3116,4.5739,4.4065,4.328,4.5902,4.629,4.7225,4.9852,5.0156,5.0,4.9551,4.9902,4.9629,4.832,4.8203,4.8027,4.7617,4.8789,4.9075,4.8242,4.9453,4.9961,4.9531,4.9941,5.0176,5.0176,5.0586,5.0586,5.0195,5.1035,5.1377,2.9379,2.9909,3.0327,3.0327,3.0047,2.9633,2.9108,2.8738,2.8377,2.8112,2.8045,2.8072,2.8165,2.8179,2.8259,2.843,2.8457,2.8591,2.8965,2.9633,3.0266,3.0595,3.2144,3.3454,3.4186,3.4803,3.5151,3.507,3.487,3.4909,3.5044,3.4496,3.4349,3.4802,3.4482,3.4336,3.4322,3.4429,3.4588,3.4629,3.483,3.4817,3.4629,3.483,3.4817,3.4629,3.483,3.5868,3.7213,3.5322,3.5963,3.8184,3.8184,3.9159,4.0735,4.2669,4.3941,4.4622,4.4622,4.4758,4.4571,4.2739,4.1006,3.947,3.8654,3.8278,3.7899,3.7178,3.6882,3.6392,3.4524,3.4108,3.4189,3.4189,3.4255,3.4822,3.6707,3.7793,3.9189,4.1833,4.2543,4.3603,4.6248,4.6217,4.6619,4.9049,4.9396,4.9608,5.012,5.0176,5.0117,4.998,5.0098,4.9883,4.918,4.9375,4.9492,4.9422,4.9746,4.9844,4.957,4.9961,5.0117,4.998,5.0098,5.0312,5.0605,5.0742,5.0879,5.1035,5.126,5.1377,2.8925,2.9472,2.978,2.9887,2.9619,2.9272,2.9041,2.8724,2.8419,2.8219,2.8179,2.8179,2.8179,2.8179,2.8245,2.8404,2.843,2.847,2.8591,2.9245,2.9905,3.036,3.2193,3.3664,3.4202,3.483,3.5151,3.5044,3.487,3.4895,3.5017,3.4402,3.4322,3.491,3.4603,3.4509,3.4643,3.4723,3.4869,3.4923,3.511,3.5097,3.4989,3.511,3.5661,3.6513,3.6642,3.8183,0.0,3.858,3.8759,4.0112,4.0112,4.0635,4.1618,4.3383,4.4682,4.5563,4.5563,4.5014,4.4,4.2358,4.1808,4.1304,3.8809,3.7585,3.7018,3.6888,3.7606,3.7743,3.5014,3.5888,3.7273,3.6228,3.6877,3.8147,3.986,4.1055,4.2308,4.3934,4.5279,4.6695,4.857,4.9058,4.9663,5.1066,5.1289,5.1133,5.0703,5.0644,5.0586,5.043,5.0547,5.0547,5.0226,5.0351,5.0351,5.0195,5.0469,5.0508,5.0195,5.0488,5.0586,5.041,5.0566,5.0859,5.1289,5.1445,5.166,5.1914,5.1914,5.1914,0.0,2.9352,2.9419,2.9713,2.9379,2.8935,2.8935,2.8551,0.0,2.8179,2.8179,2.8179,2.8165,2.8152,2.8152,2.8152,2.8165,2.8286,2.8537,2.8671,2.9179,3.0426,3.1818,3.2915,3.3427,3.4523,3.5084,3.4869,3.4842,3.4842,3.4842,3.4509,3.4616,3.5177,3.4582,3.4555,3.5191,3.4923,3.4923,3.5191,3.5191,3.5296,3.5507,3.5507,3.6988,3.958,3.958,4.1092,4.3538,4.3106,4.3023,4.3223,4.3223,4.451,4.6416,4.6893,4.8637,5.0859,5.0859,4.9436,4.7631,4.7482,4.7284,4.6619,4.4077,3.9867,3.5903,3.5356,3.707,3.8408,3.5632,3.8938,4.2271,3.9709,4.1265,4.3369,4.3571,4.5602,4.7482,4.7668,4.9746,5.1621,5.2051,5.2129,5.2129,5.2129,5.2129,5.1973,5.1582,5.1455,5.1328,5.0937,5.125,5.1436,5.1436,5.1113,5.0742,5.0371,5.1094,5.1172,5.0391,5.1113,5.1328,5.0957,5.1328,5.1719,5.2129,5.2519,5.2715,5.2715,5.2715,5.2715,2.7883,0.0,2.819,2.8526,2.85,2.8393,0.0,2.8286,2.8179,2.8179,2.8179,2.8112,2.7843,2.7802,2.7802,2.7802,2.8031,2.8205,2.8286,2.9276,3.0507,3.1912,3.2995,3.3708,3.4068,3.4763,3.5164,3.5097,3.5097,3.5097,3.5097,3.4817,3.4817,3.5191,3.6796,3.6871,3.5243,3.5124,3.5124,3.5191,3.5191,3.6321,3.8366,3.8366,3.9823,4.2353,4.2353,4.3925,4.6252,4.4094,4.4462,4.6328,4.6328,4.6672,4.7409,4.9519,5.0716,5.1289,5.1289,5.0891,5.0119,4.8077,4.5953,4.4127,4.3521,4.5283,4.7054,4.491,4.4776,4.4626,4.1909,4.2176,4.3035,4.2376,4.2796,4.3875,4.5953,4.6918,4.8119,5.0538,5.1521,5.207,5.248,5.2558,5.2558,5.2558,5.2558,5.2519,5.2422,5.2129,5.1894,5.1797,5.1875,5.1933,5.1933,5.1836,5.1875,5.2109,5.2305,5.2324,5.2129,5.2305,5.2363,5.2266,5.2363,5.2461,5.2558,5.2656,5.2715,5.2715,5.2715,5.2715,2.7575,2.7696,2.7762,2.8112,2.8085,2.7978,2.7978,2.7871,2.7777,2.7777,2.7777,2.7737,2.7535,2.7495,2.7549,2.7682,2.7829,2.8219,2.8858,2.9811,3.1002,3.2607,3.3414,3.4055,3.4482,3.4937,3.5137,3.5004,3.5004,3.5553,3.6763,3.6585,3.7217,3.8841,4.0051,3.954,3.7078,3.83,3.8908,3.8908,3.8908,3.972,4.1144,4.1144,4.2608,4.5201,4.5201,4.6719,4.91,4.7613,4.8038,4.951,4.9323,4.9379,4.9726,5.0948,5.1377,5.1377,5.1377,5.0559,4.91,4.6402,4.5352,4.5218,4.5391,4.8401,5.0916,4.6936,4.6859,4.7353,4.4632,4.5751,4.7285,4.6073,4.6731,4.8007,4.9511,4.981,5.0332,5.2057,5.2363,5.25,5.293,5.3008,5.3008,5.3008,5.3008,5.293,5.2734,5.2519,5.2363,5.2363,5.2363,5.2441,5.2706,5.2725,5.2676,5.2715,5.2715,5.2715,5.2715,5.2715,5.2715,5.2715,5.291,5.3008,5.3008,5.3223,5.332,5.332,5.332,5.332,2.7535,2.7629,2.7709,2.8098,2.7965,2.7709,2.7762,2.755,2.7322,2.7362,2.7336,2.7309,2.7309,2.7309,2.7403,2.7655,2.7816,2.8404,2.9847,3.0341,3.1229,3.2853,3.3587,3.4162,3.4762,3.5436,3.57,3.5507,3.5896,3.7097,3.9347,3.9292,4.0447,4.32,4.3473,4.2618,4.0543,4.2353,4.3318,4.3318,4.3318,4.3521,4.3925,4.3925,4.5452,4.8027,4.8027,4.9297,5.1377,5.1377,5.168,5.2051,5.168,5.1758,5.2051,5.1738,5.1494,5.1377,5.1377,4.9904,4.7631,4.5353,4.624,4.821,4.8594,5.0415,5.1355,4.6756,4.7306,4.8759,4.6423,4.9266,5.2127,4.9841,5.1056,5.2715,5.2715,5.2715,5.2734,5.2793,5.2812,5.2949,5.3429,5.3507,5.3507,5.3507,5.3507,5.334,5.2949,5.2851,5.2812,5.2812,5.2812,5.2949,5.339,5.3527,5.3379,5.2949,5.291,5.291,5.291,5.291,5.291,5.291,5.3281,5.3507,5.3457,5.3906,5.4141,5.4141,5.4141,5.4141,2.7229,2.7376,2.751,2.8045,2.7965,2.7762,2.8058,2.7697,2.7376,2.7589,2.7483,2.7309,2.7309,2.7309,2.7403,2.7655,2.8337,2.9259,3.0488,3.1176,3.1979,3.32,3.3881,3.4389,3.4788,3.7155,3.8648,3.859,4.0707,4.2171,4.2577,4.2579,4.2798,4.3268,4.555,4.6498,4.6153,4.4279,4.3318,4.3318,4.3318,4.4531,4.6769,4.6769,4.8244,5.0774,5.0774,5.1017,5.1377,5.1377,5.168,5.207,5.2012,5.2031,5.2109,5.2402,5.2051,5.1377,5.1377,5.1134,5.0783,5.0736,5.1048,5.144,5.1865,5.2552,5.3063,5.2168,5.2008,5.1977,5.1558,5.2077,5.2615,5.2197,5.2396,5.2715,5.2715,5.2715,5.2812,5.3234,5.3312,5.3398,5.3848,5.3926,5.3926,5.3926,5.3926,5.3906,5.3828,5.3496,5.3312,5.3312,5.3312,5.3331,5.341,5.4094,5.4297,5.3848,5.3777,5.3777,5.3777,5.3777,5.3777,5.3777,5.3887,5.3926,5.3926,5.4375,5.459,5.459,5.459,5.459,2.7229,2.7309,2.7443,2.8045,2.7965,2.7736,2.7869,2.7455,2.7068,2.7201,2.6987,2.6841,2.7001,2.7281,2.7749,2.8537,2.9272,3.0114,3.1129,3.1637,3.2398,3.3748,3.5434,3.6703,3.7187,3.9783,4.1451,4.1451,4.2608,4.3925,4.5452,4.5502,4.6153,4.7613,4.8885,4.9561,4.9561,4.8324,4.7681,4.7681,4.7681,4.8324,4.9561,4.9837,5.0476,5.1397,5.168,5.1641,5.1397,5.168,5.2031,5.2402,5.2168,5.2226,5.2383,5.2109,5.1728,5.1416,5.1699,5.1777,5.1855,5.2285,5.2422,5.25,5.293,5.3253,5.3468,5.3652,5.3574,5.3418,5.3418,5.3418,5.3418,5.3418,5.3418,5.3418,5.3418,5.3418,5.3476,5.3672,5.373,5.3789,5.3953,5.3972,5.4121,5.4336,5.4375,5.4375,5.4375,5.4199,5.4133,5.4133,5.3867,5.3828,5.4113,5.4453,5.459,5.4394,5.4375,5.4277,5.3992,5.4421,5.4609,5.4394,5.4609,5.4726,5.4726,5.4922,5.5019,5.5019,5.5019,5.5019,2.7282,2.7255,2.7349,2.7938,2.7857,2.7669,2.7949,2.7495,2.7054,2.7121,2.6894,2.676,2.6987,2.7629,2.8444,2.9419,3.0239,3.1002,3.1805,3.2118,3.3045,3.5054,3.7099,3.8892,4.0122,4.2659,4.4279,4.4279,4.4832,4.6103,4.8244,4.8342,4.9297,5.1328,5.1377,5.1377,5.1377,5.1523,5.1523,5.1377,5.1377,5.1377,5.1397,5.1777,5.1738,5.1416,5.1894,5.1836,5.1416,5.1914,5.2324,5.2676,5.2246,5.2402,5.2773,5.2012,5.1797,5.1914,5.2148,5.2226,5.2305,5.2734,5.2871,5.2949,5.3379,5.3516,5.3613,5.4062,5.418,5.416,5.4062,5.3972,5.3972,5.3972,5.3972,5.3972,5.3972,5.3972,5.4011,5.416,5.418,5.418,5.418,5.418,5.4297,5.4629,5.4687,5.4707,5.4824,5.4824,5.4824,5.4824,5.4531,5.4512,5.4941,5.4883,5.4863,5.4961,5.4883,5.4668,5.4336,5.4961,5.5156,5.4844,5.5137,5.5312,5.5312,5.541,5.5449,5.5449,5.5449,5.5449,2.7229,2.7068,2.6987,2.7589,2.7509,2.763,2.8655,2.827,2.7709,2.8031,2.7857,2.7615,2.7629,2.8577,2.9472,2.982,3.0835,3.1831,3.2447,3.2781,3.4234,3.7675,3.8298,3.96,4.2695,4.5502,4.7117,4.7117,4.9395,5.092,5.1085,5.1134,5.1183,5.1377,5.1377,5.1377,5.1377,5.1836,5.1836,5.1377,5.1377,5.1377,5.1377,5.1416,5.1416,5.1416,5.1894,5.1836,5.1416,5.1914,5.2324,5.2676,5.2246,5.2578,5.3312,5.2793,5.2871,5.3214,5.2793,5.2656,5.2734,5.3214,5.3371,5.3449,5.3848,5.3984,5.4082,5.4512,5.4629,5.4531,5.4141,5.3972,5.3972,5.3972,5.3972,5.3972,5.3972,5.3972,5.4141,5.4551,5.4629,5.4629,5.4629,5.4629,5.4648,5.4668,5.4687,5.4824,5.5215,5.5254,5.5254,5.5254,5.5234,5.539,5.5748,5.5488,5.543,5.5767,5.5469,5.5254,5.5215,5.5273,5.5293,5.5254,5.5293,5.5312,5.5312,5.565,5.5845,5.5845,5.5845,5.5845,2.6961,2.6907,2.692,2.7549,2.7615,2.7802,2.8775,2.8644,2.8404,2.8915,2.8591,2.8323,2.8497,2.9205,2.9967,3.0576,3.157,3.2974,3.4998,3.5508,3.6958,4.0363,4.2295,4.398,4.5683,4.8293,4.9904,4.9904,5.0822,5.1377,5.1377,5.1377,5.1377,5.1377,5.1699,5.1836,5.1836,5.2266,5.2383,5.2226,5.1953,5.1973,5.2207,5.1953,5.1836,5.1855,5.2012,5.1992,5.1855,5.2012,5.248,5.3105,5.2999,5.291,5.293,5.2773,5.2812,5.2969,5.3086,5.3155,5.3183,5.3633,5.3769,5.3808,5.3933,5.3972,5.4011,5.4238,5.4277,5.4297,5.4414,5.4629,5.4765,5.4492,5.4433,5.4433,5.4433,5.4433,5.4492,5.4648,5.4883,5.5058,5.5058,5.5058,5.5156,5.543,5.5469,5.5527,5.5631,5.5703,5.5703,5.5703,5.5703,5.5709,5.5865,5.5728,5.5879,5.6308,5.5937,5.5586,5.5312,5.582,5.5976,5.5703,5.5957,5.6094,5.6094,5.6269,5.6348,5.6348,5.6348,5.6348,2.6987,2.6894,2.692,2.7549,2.7629,2.7869,2.9001,2.9098,2.9018,2.9513,2.9232,2.8911,2.8975,2.9593,3.0287,3.0969,3.2606,3.4573,3.6699,3.8005,3.9892,4.3097,4.5262,4.7034,4.8515,5.0315,5.1377,5.1377,5.1377,5.1377,5.1377,5.1377,5.1377,5.1377,5.1855,5.2012,5.1875,5.2422,5.2637,5.2519,5.2226,5.2305,5.2695,5.2266,5.209,5.209,5.2226,5.2129,5.1894,5.2168,5.2539,5.3058,5.3418,5.3301,5.293,5.3066,5.3125,5.3164,5.3476,5.3574,5.3613,5.3926,5.3972,5.3972,5.3972,5.3972,5.4011,5.4199,5.4336,5.4492,5.4805,5.5,5.5058,5.4922,5.4883,5.4883,5.4883,5.4883,5.4883,5.4883,5.5215,5.543,5.5156,5.5215,5.541,5.5703,5.5742,5.584,5.6113,5.6133,5.6133,5.6133,5.6133,5.6133,5.6133,5.6133,5.6269,5.6562,5.6308,5.6015,5.5723,5.6269,5.6445,5.6152,5.6426,5.6582,5.6582,5.6582,5.6582,5.6582,5.6582,5.6582,2.7389,2.7054,2.6974,2.7549,2.7495,2.7791,2.9513,2.9686,2.9579,2.9873,2.97,2.9406,2.9068,2.978,3.0507,3.0801,3.3987,3.663,3.729,3.996,4.2972,4.5963,4.6682,4.8096,5.1124,5.1377,5.1377,5.1377,5.1377,5.1377,5.1377,5.1377,5.1377,5.1377,5.1855,5.1875,5.1397,5.2285,5.25,5.209,5.209,5.2305,5.2695,5.2266,5.207,5.2109,5.2519,5.2226,5.1455,5.2363,5.2461,5.2226,5.3516,5.375,5.3468,5.3867,5.3972,5.3972,5.3972,5.3972,5.3972,5.3972,5.3972,5.3972,5.3972,5.3972,5.4121,5.4551,5.498,5.5312,5.5312,5.5,5.4805,5.5215,5.5312,5.5312,5.5312,5.5312,5.5312,5.5312,5.5644,5.5631,5.4844,5.5039,5.5312,5.5312,5.5312,5.5625,5.6484,5.6582,5.6582,5.6582,5.6582,5.6582,5.6582,5.6582,5.6582,5.6582,5.6582,5.6582,5.6582,5.6582,5.6582,5.6582,5.6582,5.6582,5.6582,5.6582,5.6582,5.6582,5.6582,5.6582,2.7028,2.7041,2.7228,2.7602,2.811,2.8764,2.97,2.9847,3.0047,3.0955,3.0755,3.0381,3.0287,3.0488,3.1454,3.3732,3.538,3.7909,4.2141,4.3753,4.5664,4.8681,4.9387,5.0117,5.1289,5.1377,5.1377,5.1377,5.1377,5.1377,5.1377,5.1377,5.1377,5.1377,5.1855,5.2012,5.1894,5.2441,5.2637,5.2519,5.2519,5.2598,5.2695,5.1953,5.1797,5.209,5.2207,5.2285,5.2402,5.3281,5.3203,5.2617,5.3633,5.3945,5.3848,5.3984,5.3972,5.3972,5.3972,5.3972,5.3972,5.3972,5.3972,5.3972,5.3972,5.3972,5.4121,5.4551,5.4765,5.5,5.5586,5.5644,5.5586,5.567,5.5742,5.5742,5.5742,5.5742,5.5742,5.5742,5.6094,5.6308,5.6074,5.6133,5.6211,5.6211,5.6211,5.6308,5.6543,5.6582,5.6582,5.6582,5.6582,5.6582,5.6582,5.6582,5.6582,5.6582,5.6582,5.6582,5.6582,5.6582,5.6582,5.6582,5.6582,5.6582,5.6582,5.6582,5.6582,5.6582,5.6582,5.6582,2.7215,2.7388,2.775,2.8123,2.8588,2.9242,3.0221,3.0528,3.0849,3.1677,3.1557,3.1276,3.1156,3.2096,3.3475,3.5365,3.793,4.0954,4.4732,4.6569,4.8224,5.0181,5.0801,5.1152,5.1358,5.1377,5.1504,5.168,5.1699,5.1699,5.1699,5.1699,5.1601,5.1397,5.1855,5.1992,5.1836,5.2246,5.2383,5.2207,5.2207,5.2207,5.2207,5.2012,5.1992,5.207,5.1894,5.207,5.2519,5.3223,5.3183,5.2793,5.3691,5.3972,5.3972,5.3972,5.3972,5.3972,5.3972,5.3972,5.3972,5.3972,5.3972,5.3972,5.3972,5.4141,5.4336,5.4609,5.4922,5.5293,5.5748,5.6055,5.6191,5.6191,5.6191,5.6191,5.6191,5.6191,5.6133,5.5924,5.6289,5.6484,5.6133,5.6211,5.6328,5.6328,5.6465,5.6582,5.6582,5.6582,5.6582,5.6582,5.6738,5.6758,5.6601,5.6738,5.6758,5.6601,5.6582,5.6582,5.6582,5.6582,5.6582,5.6582,5.6582,5.6582,5.6582,5.6582,5.6582,5.6582,5.6582,5.6582,2.7655,2.7951,2.8379,2.8921,2.9175,2.9628,3.0989,3.157,3.1912,3.2131,3.2351,3.2435,3.2205,3.4486,3.649,3.6786,4.1264,4.4984,4.5943,4.8481,5.0371,5.0762,5.1172,5.1377,5.1377,5.1416,5.166,5.2051,5.209,5.209,5.209,5.2051,5.1836,5.1397,5.1816,5.1836,5.1397,5.1816,5.1816,5.1377,5.1377,5.1377,5.1416,5.2246,5.2402,5.2051,5.166,5.1719,5.2109,5.2578,5.2754,5.2793,5.3691,5.3972,5.3972,5.3972,5.3972,5.3972,5.3972,5.3972,5.3972,5.3972,5.3972,5.3992,5.4031,5.4375,5.4707,5.4765,5.5351,5.5885,5.5924,5.6289,5.6582,5.6582,5.6582,5.6582,5.6582,5.6582,5.6465,5.6074,5.6308,5.6328,5.5547,5.5742,5.5943,5.5943,5.6328,5.6582,5.6582,5.6621,5.664,5.664,5.6992,5.7051,5.668,5.6953,5.6992,5.6601,5.6582,5.6582,5.6582,5.6582,5.6582,5.6582,5.6582,5.6582,5.6582,5.6582,5.6582,5.6582,5.6582,5.6582,2.7403,2.7923,2.8698,2.9526,3.0595,3.1583,3.2179,3.2541,3.2768,3.2772,3.4212,3.5562,3.5738,3.7739,4.0226,4.281,4.4251,4.6033,4.8823,5.0057,5.0703,5.0801,5.1172,5.1377,5.1377,5.1738,5.1973,5.207,5.209,5.209,5.209,5.1758,5.1475,5.1397,5.1523,5.1475,5.1377,5.1475,5.1475,5.1377,5.1377,5.1377,5.1397,5.1572,5.1836,5.207,5.1973,5.1992,5.2148,5.291,5.3008,5.2793,5.3691,5.3972,5.3972,5.3972,5.3972,5.3972,5.3972,5.3972,5.3972,5.3972,5.3972,5.4101,5.4433,5.4609,5.4824,5.5469,5.5748,5.5963,5.6348,5.6504,5.6582,5.6582,5.6582,5.6582,5.6582,5.6582,5.6562,5.6465,5.6523,5.6523,5.6348,5.6387,5.6445,5.6445,5.6523,5.6582,5.6582,5.6875,5.707,5.707,5.7168,5.7168,5.709,5.6855,5.668,5.6601,5.6582,5.6582,5.6582,5.6582,5.6582,5.6582,5.6582,5.6582,5.6582,5.6582,5.6582,5.6582,5.6582,5.6582,2.7657,2.8379,2.9299,3.0461,3.165,3.2559,3.2768,3.3981,3.5062,3.5062,3.5983,3.7254,3.8729,4.1097,4.3467,4.5142,4.6629,4.8254,5.0228,5.0664,5.0879,5.1074,5.126,5.1377,5.1377,5.1836,5.209,5.209,5.251,5.2519,5.2109,5.2051,5.1806,5.1397,5.1377,5.1377,5.1377,5.1377,5.1377,5.1377,5.1377,5.1377,5.1377,5.1377,5.166,5.207,5.1855,5.1777,5.1836,5.2695,5.291,5.2793,5.3691,5.3972,5.3972,5.3972,5.3972,5.3972,5.3972,5.416,5.4336,5.4336,5.4473,5.4687,5.4902,5.5117,5.5371,5.5748,5.6074,5.6308,5.6523,5.6582,5.6582,5.6582,5.6582,5.6582,5.6582,5.6582,5.6582,5.6582,5.6582,5.6582,5.6582,5.6582,5.6582,5.6582,5.6582,5.6582,5.6582,5.6777,5.6914,5.6914,5.709,5.7129,5.6933,5.6894,5.6797,5.6601,5.6582,5.6582,5.6582,5.6582,5.6582,5.6582,5.6582,5.6582,5.6582,5.6582,5.6582,5.6582,5.6582,5.6582,2.7951,2.8955,3.0114,3.1524,3.2854,3.3836,3.3732,3.5985,3.8191,3.868,3.8729,3.9397,4.1576,4.4415,4.6478,4.6551,4.8672,5.043,5.0859,5.0918,5.1035,5.1338,5.1455,5.1543,5.1543,5.2012,5.2305,5.2305,5.294,5.293,5.2226,5.2383,5.2168,5.1397,5.1377,5.1377,5.1377,5.1377,5.1377,5.1377,5.1377,5.1377,5.1377,5.1377,5.1621,5.1953,5.1582,5.1465,5.1601,5.2383,5.2754,5.291,5.3711,5.3972,5.3972,5.3972,5.3972,5.3972,5.3972,5.4316,5.4687,5.4687,5.4961,5.5312,5.5312,5.5605,5.5885,5.5885,5.625,5.6582,5.6582,5.6582,5.6582,5.6582,5.6582,5.6582,5.6582,5.6582,5.6582,5.6582,5.6582,5.6582,5.6582,5.6582,5.6582,5.6582,5.6582,5.6582,5.6582,5.664,5.6699,5.6699,5.7012,5.707,5.6719,5.6933,5.6953,5.6601,5.6582,5.6582,5.6582,5.6582,5.6582,5.6582,5.6582,5.6582,5.6582,5.6582,5.6582,5.6582,5.6582,5.6582,2.7602,2.9339,3.1223,3.2233,3.4879,3.715,3.6805,3.9034,4.1829,4.4119,4.4569,4.4665,4.5048,4.7579,4.972,5.0068,5.0472,5.0859,5.124,5.1299,5.1319,5.1377,5.1758,5.1992,5.1992,5.2765,5.3234,5.3234,5.2949,5.2754,5.2637,5.1973,5.1494,5.1397,5.1377,5.1377,5.1377,5.1377,5.1377,5.1377,5.1377,5.1377,5.1377,5.1377,5.1416,5.1475,5.1416,5.1641,5.2031,5.2519,5.293,5.3371,5.3828,5.3972,5.3972,5.3972,5.3972,5.3972,5.3972,5.4316,5.4687,5.4687,5.4961,5.5312,5.5312,5.5605,5.5885,5.5885,5.625,5.6582,5.6582,5.6582,5.6582,5.6582,5.6582,5.6582,5.6582,5.6582,5.6582,5.6582,5.6582,5.6582,5.6582,5.6582,5.6582,5.6582,5.6582,5.6582,5.6582,5.6894,5.7129,5.7129,5.7187,5.7187,5.7129,5.6855,5.664,5.6582,5.6582,5.6582,5.6582,5.6582,5.6582,5.6582,5.6582,5.6582,5.6582,5.6582,5.6582,5.6582,5.6582,5.6582,2.827,3.1879,3.516,3.503,3.7384,3.9702,3.9544,4.1824,4.4303,4.5472,4.7195,4.848,4.8253,4.9501,5.0586,5.0781,5.0996,5.123,5.1358,5.1377,5.1523,5.1777,5.1973,5.2168,5.2402,5.2988,5.3312,5.3008,5.3281,5.3125,5.2402,5.2226,5.1933,5.1397,5.1377,5.1377,5.1377,5.1377,5.1377,5.1377,5.1377,5.1377,5.1377,5.1377,5.1514,5.1797,5.1797,5.2031,5.2461,5.2891,5.3183,5.3449,5.3848,5.3972,5.3972,5.3972,5.3972,5.3972,5.3972,5.4473,5.5039,5.5039,5.5488,5.6015,5.6015,5.6152,5.6308,5.6308,5.6445,5.6582,5.6582,5.6582,5.6582,5.6582,5.6582,5.6582,5.6582,5.6582,5.6582,5.6582,5.6582,5.6582,5.6582,5.6582,5.6582,5.6582,5.6582,5.6582,5.6582,5.6738,5.6855,5.6855,5.6855,5.6855,5.6855,5.6699,5.6582,5.6582,5.6582,5.6582,5.6582,5.6582,5.6582,5.6582,5.6582,5.6582,5.6582,5.6582,5.6582,5.6582,5.6582,5.6582,2.9902,3.3853,3.7318,3.7133,3.9449,4.1863,4.2113,4.4571,4.6885,4.6977,4.9024,5.0742,5.0527,5.0762,5.0996,5.1113,5.1289,5.1455,5.167,5.1514,5.1582,5.2031,5.2187,5.2363,5.2676,5.3203,5.3398,5.3066,5.3555,5.3437,5.2461,5.25,5.2266,5.1621,5.1436,5.1377,5.1377,5.1377,5.1377,5.1377,5.1377,5.1377,5.1377,5.1377,5.1719,5.2246,5.2129,5.2383,5.2891,5.3273,5.3468,5.3555,5.3906,5.3972,5.3972,5.3972,5.3972,5.3972,5.3972,5.459,5.5312,5.5312,5.5879,5.6562,5.6445,5.6504,5.6562,5.6445,5.6504,5.6582,5.6582,5.6582,5.6582,5.6582,5.6582,5.6582,5.6582,5.6582,5.6582,5.6582,5.6582,5.6582,5.6582,5.6582,5.6582,5.6582,5.6582,5.6582,5.6582,5.6582,5.6582,5.6582,5.6582,5.6582,5.6582,5.6582,5.6582,5.6582,5.6582,5.6582,5.6582,5.6582,5.6582,5.6582,5.6582,5.6582,5.6582,5.6582,5.6582,5.6582,5.6582,5.6582,3.2692,3.3912,3.5287,3.7034,4.0549,4.3787,4.4616,4.7459,5.0064,5.0453,5.0666,5.0918,5.124,5.1338,5.1523,5.1953,5.168,5.167,5.2539,5.1933,5.1582,5.2031,5.2441,5.2695,5.2715,5.3496,5.3984,5.3914,5.3613,5.341,5.3351,5.2539,5.209,5.2051,5.1641,5.1377,5.1377,5.1377,5.1377,5.1377,5.1377,5.1377,5.1377,5.1377,5.1875,5.2656,5.2246,5.2558,5.339,5.339,5.3613,5.3953,5.3972,5.3972,5.3972,5.3972,5.3972,5.3972,5.3972,5.459,5.5312,5.5312,5.5879,5.6504,5.6094,5.625,5.6504,5.6074,5.6269,5.6582,5.6582,5.6582,5.6582,5.6582,5.6582,5.6582,5.6582,5.6582,5.6582,5.6582,5.6582,5.6582,5.6582,5.6582,5.6582,5.6582,5.6582,5.6582,5.6582,5.6582,5.6582,5.6582,5.6582,5.6582,5.6582,5.6582,5.6582,5.6582,5.6582,5.6582,5.6582,5.6582,5.6582,5.6582,5.6582,5.6582,5.6582,5.6582,5.6582,5.6582,5.6582,5.6582,3.2989,3.5956,3.9218,3.9065,4.2051,4.5199,4.6015,4.8046,4.9883,5.0312,5.084,5.1328,5.1777,5.1855,5.1894,5.2051,5.2187,5.2363,5.2676,5.2441,5.2422,5.2901,5.3047,5.3242,5.3535,5.3797,5.3972,5.3972,5.3887,5.3535,5.2969,5.291,5.2519,5.1699,5.1777,5.1719,5.1377,5.1377,5.1377,5.1377,5.1377,5.1377,5.1397,5.1719,5.2168,5.2715,5.2851,5.3242,5.3789,5.3789,5.3887,5.3972,5.3972,5.3972,5.3972,5.3972,5.3972,5.3972,5.3972,5.459,5.5312,5.5312,5.5879,5.6562,5.6406,5.6465,5.6543,5.6406,5.6465,5.6582,5.6582,5.6582,5.6582,5.6582,5.6582,5.6582,5.6582,5.6582,5.6582,5.6582,5.6582,5.6582,5.6582,5.6582,5.6484,5.6211,5.6406,5.6484,5.6211,5.6406,5.6582,5.6582,5.6582,5.6582,5.6582,5.6582,5.6582,5.6582,5.6582,5.6582,5.6582,5.6582,5.6582,5.6582,5.6582,5.6582,5.6582,5.6582,5.6582,5.6582,5.6582,5.6582,3.4281,3.7254,4.0685,4.057,4.2584,4.5078,4.6933,4.8216,4.9336,5.0215,5.1055,5.1738,5.2031,5.2324,5.2569,5.2569,5.2617,5.2812,5.3105,5.2891,5.2871,5.3351,5.341,5.3476,5.3769,5.3945,5.3972,5.3972,5.3972,5.3769,5.3183,5.3144,5.2617,5.1416,5.1719,5.1719,5.1377,5.1377,5.1377,5.1377,5.1377,5.1455,5.166,5.1953,5.2402,5.2949,5.3292,5.3613,5.3972,5.3972,5.3972,5.3972,5.3972,5.3972,5.3972,5.3972,5.3972,5.3972,5.3972,5.4492,5.5098,5.5098,5.5586,5.6191,5.6328,5.6367,5.6406,5.6543,5.6582,5.6582,5.6582,5.6582,5.6582,5.6582,5.6582,5.6582,5.6582,5.6582,5.6582,5.6582,5.6582,5.6582,5.6582,5.6582,5.6484,5.6191,5.6406,5.6484,5.6191,5.6406,5.6582,5.6582,5.6582,5.6582,5.6582,5.6582,5.6582,5.6582,5.6582,5.6582,5.6582,5.6582,5.6582,5.6582,5.6582,5.6582,5.6582,5.6582,5.6582,5.6582,5.6582,5.6582,0.0,0.0,0.0,4.1172,4.2031,4.3318,4.7168,4.8066,4.8594,5.0371,5.1406,5.2031,5.209,5.2843,5.341,5.3429,5.3027,5.3066,5.3855,5.3301,5.293,5.339,5.3449,5.3449,5.3429,5.3789,5.3992,5.3972,5.3972,5.3972,5.3953,5.3164,5.2305,5.1436,5.1397,5.1377,5.1377,5.1377,5.1377,5.1377,5.1377,5.166,5.209,5.209,5.2608,5.341,5.3429,5.3633,5.3972,5.3972,5.3972,5.3972,5.3972,5.3972,5.3972,5.3972,5.3972,5.3972,5.3972,5.4316,5.4687,5.4687,5.498,5.539,5.5748,5.5885,5.5982,5.6445,5.6582,5.6582,5.6582,5.6582,5.6582,5.6582,5.6582,5.6582,5.6582,5.6582,5.6582,5.6582,5.6582,5.6582,5.6582,5.6582,5.6582,5.6562,5.6562,5.6562,5.6582,5.6582,5.6582,5.6601,5.6601,5.6582,5.6582,5.6601,5.6601,5.6601,5.6621,5.6621,5.6601,5.6601,5.6601,5.6582,5.6582,5.6582,5.6582,5.6582,5.6582,5.6582,5.6582,5.6582,3.6714,0.0,0.0,0.0,0.0,0.0,4.3455,4.4766,4.6113,4.8437,4.9629,5.0703,5.2246,5.2988,5.3527,5.3789,5.4004,5.4101,5.3992,5.4082,5.4062,5.3867,5.4121,5.4199,5.3867,5.4238,5.4375,5.4062,5.3972,5.3887,5.3555,5.2734,5.2148,5.1914,5.1601,5.1377,5.1377,5.1377,5.1377,5.1377,5.1377,5.166,5.209,5.2402,5.2832,5.3429,5.3711,5.3906,5.3972,5.3972,5.3972,5.3972,5.3972,5.3972,5.3972,5.3972,5.3972,5.3972,5.3972,5.4316,5.4687,5.4687,5.5176,5.5723,5.5527,5.5918,5.6367,5.6172,5.6348,5.6582,5.6582,5.6582,5.6582,5.6582,5.6582,5.6582,5.6582,5.6582,5.6582,5.6582,5.6582,5.6582,5.6582,5.6582,5.6484,5.6152,5.6113,5.623,5.6543,5.6308,5.6348,5.6973,5.6758,5.6582,5.6582,5.6855,5.7031,5.7031,5.7344,5.7363,5.7051,5.7031,5.6894,5.6601,5.6582,5.6582,5.6582,5.6582,5.6582,5.6582,5.6582,5.6582,0.0,0.0,0.0,3.8906,0.0,0.0,4.287,4.3965,4.5176,4.791,4.9043,4.9972,5.1621,5.2266,5.2754,5.3379,5.4004,5.4316,5.4011,5.4258,5.4316,5.4011,5.4258,5.4316,5.4062,5.4258,5.4297,5.3992,5.3972,5.375,5.3125,5.2441,5.1992,5.1816,5.1562,5.1377,5.1377,5.1377,5.1377,5.1377,5.1621,5.1933,5.2363,5.2793,5.3223,5.3652,5.3926,5.3972,5.3972,5.3972,5.3972,5.3972,5.3972,5.3972,5.3972,5.3972,5.3972,5.3972,5.3972,5.4316,5.4687,5.4687,5.5137,5.5625,5.539,5.5781,5.625,5.6015,5.625,5.6582,5.6582,5.6582,5.6582,5.6582,5.6582,5.6582,5.6582,5.6582,5.6582,5.6582,5.6582,5.6582,5.6582,5.6582,5.6504,5.625,5.6211,5.6367,5.6797,5.6484,5.6465,5.7148,5.6836,5.6582,5.6582,5.6973,5.7207,5.7207,5.7617,5.7808,5.75,5.748,5.7285,5.6855,5.6855,5.6758,5.6582,5.6582,5.6582,5.6582,5.6582,5.6582,3.7047,0.0,0.0,0.0,3.9473,0.0,4.3594,4.416,4.4766,4.7682,4.8613,4.9238,5.0195,5.0762,5.126,5.2012,5.3047,5.3758,5.3953,5.4011,5.4082,5.3992,5.4082,5.4082,5.3992,5.4082,5.4082,5.3992,5.3984,5.3594,5.2754,5.2363,5.1953,5.1475,5.1504,5.1436,5.1377,5.1377,5.1377,5.1397,5.1875,5.2305,5.2734,5.3214,5.3613,5.3972,5.3972,5.3972,5.3972,5.3972,5.3972,5.3972,5.3972,5.3972,5.3972,5.3972,5.3972,5.3972,5.3972,5.4316,5.4687,5.4687,5.4961,5.5312,5.5312,5.5605,5.5885,5.5943,5.6289,5.6582,5.6582,5.6582,5.6582,5.6582,5.6582,5.6582,5.6582,5.6582,5.6582,5.6582,5.6582,5.6582,5.6582,5.6582,5.6582,5.6582,5.6543,5.668,5.7148,5.6797,5.6699,5.7168,5.6836,5.6582,5.6582,5.6973,5.7226,5.7285,5.7695,5.7984,5.7984,5.7984,5.7715,5.7226,5.7168,5.6953,5.6582,5.6582,5.6582,5.6582,5.6582,5.6582,3.7637,3.7871,3.8184,3.8711,3.9023,0.0,4.0156,4.082,4.1836,4.385,4.4844,4.5859,4.7357,4.832,4.8769,4.8613,5.0469,5.2372,5.3777,5.4336,5.4433,5.4011,5.4336,5.4414,5.4011,5.4355,5.4414,5.4062,5.3691,5.3262,5.2734,5.2637,5.2402,5.1973,5.1953,5.1777,5.1397,5.1377,5.1377,5.1397,5.1875,5.2305,5.2734,5.3214,5.3613,5.3972,5.3972,5.3972,5.3972,5.3972,5.3972,5.3972,5.3972,5.3972,5.3972,5.3972,5.3972,5.3972,5.3972,5.4316,5.4687,5.4687,5.4961,5.5312,5.5312,5.5605,5.6015,5.6367,5.6523,5.6582,5.6582,5.6582,5.6582,5.6582,5.6582,5.6582,5.6582,5.6582,5.6582,5.6582,5.6582,5.6582,5.6582,5.6582,5.6582,5.6582,5.6289,5.6348,5.7109,5.6543,5.6348,5.7129,5.6836,5.6582,5.6582,5.6973,5.7363,5.7715,5.8144,5.8363,5.8363,5.8363,5.8027,5.7226,5.6875,5.666,5.6582,5.6582,5.6582,5.6582,5.6582,5.6582,3.7952,3.8086,3.8359,3.8769,3.8887,0.0,0.0,4.0351,4.1074,4.2988,4.3574,4.4199,4.566,4.6328,4.6836,4.748,4.9219,5.0889,5.2246,5.3535,5.4277,5.4062,5.4219,5.4277,5.3992,5.4219,5.418,5.373,5.3281,5.2851,5.2422,5.2187,5.1973,5.1758,5.1758,5.1758,5.1758,5.1543,5.1592,5.207,5.2285,5.2617,5.3047,5.3496,5.3808,5.3972,5.3972,5.3972,5.3972,5.3972,5.3972,5.3972,5.3972,5.3972,5.3972,5.3972,5.3972,5.3972,5.3972,5.4316,5.4687,5.4687,5.4961,5.5312,5.5312,5.5605,5.6015,5.6465,5.6582,5.6582,5.6582,5.6582,5.6582,5.6582,5.6582,5.6582,5.6582,5.6582,5.6582,5.6582,5.6582,5.6582,5.6582,5.6582,5.666,5.6855,5.6523,5.6562,5.7422,5.6797,5.6582,5.7441,5.6973,5.668,5.6875,5.709,5.7402,5.7851,5.8301,5.8597,5.8828,5.8828,5.8437,5.7558,5.7109,5.6797,5.6582,5.6582,5.6582,5.6582,5.6582,5.6582,3.8496,3.8691,3.9138,3.918,3.9141,3.9393,0.0,0.0,0.0,4.2617,4.2773,4.293,4.4062,4.4355,4.4824,4.6133,4.7715,4.9004,4.9609,5.1621,5.3164,5.3445,5.3672,5.3719,5.3719,5.3711,5.3535,5.3262,5.2676,5.2266,5.209,5.1758,5.1553,5.1631,5.1601,5.1758,5.2187,5.1777,5.1953,5.2715,5.2793,5.3008,5.3429,5.3828,5.3972,5.3972,5.3972,5.3972,5.3972,5.3972,5.3972,5.3972,5.3972,5.3972,5.3972,5.3972,5.3972,5.3972,5.3972,5.4316,5.4687,5.4687,5.5019,5.541,5.5332,5.5664,5.6133,5.6484,5.6582,5.6582,5.6582,5.6582,5.6582,5.6582,5.6582,5.6582,5.6582,5.6582,5.6582,5.6582,5.6582,5.6582,5.6582,5.6582,5.6699,5.7051,5.6797,5.6836,5.7574,5.7012,5.6855,5.7593,5.6992,5.6719,5.707,5.7168,5.7402,5.7851,5.8301,5.8711,5.918,5.9121,5.8711,5.8027,5.7558,5.7129,5.6699,5.6699,5.666,5.6582,5.6582,5.6582,0.0,4.0273,4.0644,3.9473,4.0039,4.0566,3.9217,0.0,4.0039,4.0273,0.0,4.0976,4.1504,0.0,0.0,4.1973,4.4277,4.6016,4.5723,4.7851,5.0019,5.1543,5.2402,5.2851,5.2851,5.2519,5.2441,5.2754,5.168,5.1328,5.2051,5.2031,5.2168,5.2558,5.2207,5.2207,5.2637,5.2226,5.2246,5.2715,5.3105,5.3371,5.3429,5.3828,5.3972,5.3972,5.3972,5.3972,5.3972,5.3972,5.3972,5.3972,5.3972,5.3972,5.3972,5.3972,5.3972,5.3972,5.3972,5.4316,5.4687,5.4687,5.5215,5.5801,5.543,5.5879,5.6523,5.6562,5.6582,5.6582,5.6582,5.6582,5.6582,5.6582,5.6582,5.6582,5.6582,5.6582,5.6582,5.6582,5.6582,5.6582,5.6582,5.6582,5.6601,5.664,5.6621,5.6621,5.6719,5.664,5.6621,5.6719,5.664,5.6601,5.666,5.6992,5.7402,5.7851,5.8301,5.8711,5.918,5.8828,5.8535,5.8421,5.8027,5.7578,5.7148,5.7148,5.6953,5.6582,5.6582,5.6582,0.0,4.0527,4.0957,3.9863,4.0195,4.0469,3.9219,3.9219,3.957,3.9844,0.0,0.0,0.0,0.0,0.0,0.0,4.3379,4.457,4.4648,4.623,4.8008,4.9726,5.0039,5.0293,5.082,5.1152,5.1406,5.1582,5.1113,5.0957,5.1328,5.1582,5.1777,5.1953,5.1797,5.2031,5.2695,5.2285,5.2558,5.3476,5.3398,5.3546,5.375,5.3945,5.3972,5.3972,5.3972,5.3972,5.3972,5.3972,5.3972,5.3972,5.3972,5.3972,5.3972,5.3972,5.3972,5.3972,5.3972,5.4141,5.4297,5.4297,5.4707,5.5215,5.5293,5.5723,5.625,5.6504,5.6582,5.6582,5.6582,5.6582,5.6582,5.6582,5.6582,5.6582,5.6582,5.6582,5.6582,5.6582,5.6582,5.6582,5.6582,5.6582,5.668,5.6914,5.6738,5.668,5.6914,5.6738,5.668,5.6914,5.6738,5.6777,5.7339,5.7265,5.75,5.8203,5.8652,5.9004,5.918,5.9004,5.8769,5.8535,5.8304,5.8027,5.7598,5.7598,5.75,5.7324,5.6816,5.6719,4.0703,4.1133,4.1426,4.0332,4.0293,4.0255,3.9394,3.9394,3.9687,4.0156,4.0664,0.0,0.0,0.0,4.168,0.0,0.0,4.3437,4.3652,4.459,4.5879,4.7598,4.7949,4.8418,4.9387,4.9766,5.0117,5.0605,5.0195,5.0176,5.0781,5.1094,5.1426,5.1777,5.1494,5.1894,5.2871,5.2461,5.2793,5.3848,5.3633,5.3711,5.3972,5.3972,5.3972,5.3972,5.3972,5.3972,5.3972,5.3972,5.3972,5.3972,5.3972,5.3972,5.3972,5.3972,5.3972,5.3972,5.3972,5.3972,5.3972,5.3972,5.4336,5.4746,5.5039,5.5508,5.5943,5.6308,5.6484,5.6582,5.6582,5.6582,5.6582,5.6582,5.6582,5.6582,5.6582,5.6582,5.6582,5.6582,5.6582,5.6582,5.6582,5.6582,5.668,5.6992,5.6777,5.6738,5.7168,5.6953,5.6914,5.7344,5.7109,5.7187,5.7867,5.7676,5.791,5.8652,5.9004,5.918,5.918,5.918,5.9023,5.8711,5.8711,5.8476,5.8027,5.8027,5.8027,5.8027,5.7285,5.7031,4.2461,4.2676,4.2617,4.0918,4.0469,4.0255,3.9394,3.9863,4.0605,4.1035,4.1797,4.2323,4.2343,0.0,0.0,0.0,0.0,0.0,0.0,4.2266,4.3162,4.4941,4.6601,4.8105,4.9394,4.8418,4.8379,5.0078,4.8633,4.8594,5.0703,5.082,5.1387,5.2637,5.1855,5.2051,5.3371,5.291,5.293,5.3429,5.3808,5.3972,5.3972,5.3972,5.3972,5.3972,5.3972,5.3972,5.3972,5.3972,5.3972,5.3972,5.3972,5.3972,5.3972,5.3972,5.3972,5.3972,5.3972,5.3972,5.3972,5.3972,5.4336,5.4687,5.4707,5.5273,5.5885,5.5904,5.625,5.6582,5.6582,5.6582,5.6582,5.6582,5.6582,5.6582,5.6582,5.6582,5.6582,5.6582,5.6582,5.6582,5.6582,5.6582,5.6582,5.6601,5.6601,5.6738,5.7168,5.7207,5.7363,5.7847,5.7867,5.7867,5.7926,5.8242,5.8655,5.9121,5.918,5.918,5.918,5.918,5.918,5.918,5.918,5.8945,5.848,5.848,5.848,5.8476,5.8027,5.7598,4.3769,4.4453,4.4668,4.2363,4.2207,4.2109,4.0117,4.0547,4.1406,4.1562,4.2266,4.2851,4.2851,0.0,0.0,0.0,0.0,0.0,0.0,4.1504,4.2129,4.3555,4.5019,4.584,4.5683,4.6562,4.7285,4.7598,4.7598,4.819,4.95,5.0078,5.0723,5.1426,5.1397,5.1914,5.293,5.2773,5.3086,5.3808,5.3914,5.3972,5.3972,5.3972,5.3972,5.3972,5.3972,5.3972,5.3972,5.3972,5.3972,5.3972,5.3972,5.3972,5.3972,5.3972,5.3972,5.3972,5.3972,5.3972,5.3972,5.3972,5.4141,5.4297,5.459,5.5078,5.5566,5.5859,5.625,5.6582,5.6582,5.6582,5.6582,5.6582,5.6582,5.6582,5.6582,5.6582,5.6582,5.6582,5.6582,5.668,5.6953,5.6992,5.6914,5.6621,5.6816,5.7051,5.7187,5.7207,5.7383,5.7867,5.7926,5.8023,5.8262,5.8711,5.9004,5.918,5.918,5.918,5.918,5.918,5.918,5.918,5.918,5.9121,5.8945,5.8945,5.8945,5.8945,5.8844,5.8496,4.5254,4.5898,4.6094,4.4258,4.4101,4.3887,4.1933,4.2363,4.3183,4.3183,4.3496,4.3867,4.416,4.3359,0.0,0.0,0.0,0.0,0.0,4.1308,4.1758,4.2734,4.373,4.4414,4.4609,4.5332,4.6055,4.6699,4.6699,4.7246,4.86,4.9473,5.0273,5.0996,5.124,5.1914,5.293,5.2793,5.3066,5.3789,5.3945,5.3972,5.3972,5.3972,5.3972,5.3972,5.3972,5.3972,5.3972,5.3972,5.3972,5.3972,5.3972,5.3972,5.3972,5.3972,5.3972,5.3972,5.3972,5.3972,5.3972,5.3972,5.3972,5.4082,5.4355,5.4844,5.5371,5.5644,5.6133,5.6582,5.6582,5.6582,5.6582,5.6582,5.6582,5.6582,5.6582,5.6582,5.6582,5.6582,5.6582,5.668,5.6933,5.7246,5.7344,5.707,5.7265,5.75,5.7656,5.7676,5.7851,5.8317,5.8375,5.8493,5.8711,5.9004,5.918,5.918,5.918,5.918,5.918,5.918,5.918,5.918,5.918,5.918,5.918,5.918,5.918,5.918,5.918,5.9023]},{"header":{"parameterUnit":"m.s-1","parameterCategory":1,"la1":30.6,"la2":29.2853,"lo1":-89.7004,"lo2":-87.6739,"dy":0.0162,"dx":0.0183,"nx":112,"ny":82,"refTime":"2026-04-06T12:00:00:Z","depth":0,"parameterNumber":3,"parameterNumberName":"V-component_of_WINDS"},"data":[0.0,0.0,0.0,0.0,0.0,0.0,0.0,0.0,0.0,0.0,0.0,0.0,0.0,0.0,0.0,0.0,0.0,0.0,0.0,0.0,0.0,0.0,0.0,0.0,0.0,0.0,0.0,0.0,0.0,0.0,0.0,0.0,0.0,0.0,0.0,0.0,0.0,0.0,0.0,0.0,0.0,0.0,0.0,0.0,0.0,0.0,0.0,0.0,0.0,0.0,0.0,0.0,0.0,0.0,0.0,0.0,0.0,0.0,0.0,0.0,0.0,0.0,0.0,0.0,0.0,0.0,0.0,0.0,0.0,0.0,0.0,0.0,0.0,0.0,0.0,0.0,0.0,0.0,0.0,0.0,0.0,0.0,0.0,0.0,0.0,0.0,0.0,0.0,0.0,0.0,4.621,4.6061,4.7834,4.9018,4.9018,4.8326,4.694,4.475,0.0,0.0,0.0,0.0,0.0,0.0,0.0,0.0,0.0,0.0,0.0,0.0,0.0,0.0,0.0,0.0,0.0,0.0,0.0,0.0,0.0,0.0,0.0,0.0,0.0,0.0,0.0,0.0,0.0,0.0,0.0,0.0,0.0,0.0,0.0,0.0,0.0,0.0,0.0,0.0,0.0,0.0,0.0,0.0,0.0,0.0,0.0,0.0,0.0,0.0,0.0,0.0,0.0,0.0,0.0,0.0,0.0,0.0,0.0,0.0,0.0,0.0,0.0,0.0,0.0,0.0,0.0,0.0,0.0,0.0,0.0,0.0,0.0,0.0,0.0,0.0,0.0,0.0,0.0,0.0,0.0,0.0,0.0,0.0,0.0,0.0,0.0,0.0,0.0,0.0,0.0,0.0,0.0,0.0,0.0,0.0,0.0,0.0,0.0,0.0,0.0,0.0,0.0,0.0,4.4843,4.7312,4.8428,4.9018,4.9018,4.8326,4.694,4.475,0.0,0.0,0.0,0.0,0.0,0.0,0.0,0.0,0.0,0.0,0.0,0.0,0.0,0.0,0.0,0.0,0.0,0.0,0.0,0.0,0.0,0.0,0.0,0.0,0.0,0.0,0.0,0.0,0.0,0.0,0.0,0.0,0.0,0.0,0.0,0.0,0.0,0.0,0.0,0.0,0.0,0.0,0.0,0.0,0.0,0.0,0.0,0.0,0.0,0.0,0.0,0.0,0.0,0.0,0.0,0.0,0.0,0.0,0.0,0.0,0.0,0.0,0.0,0.0,0.0,0.0,0.0,0.0,0.0,0.0,0.0,0.0,0.0,0.0,0.0,0.0,0.0,0.0,0.0,0.0,0.0,0.0,0.0,0.0,0.0,0.0,0.0,0.0,0.0,0.0,0.0,0.0,0.0,0.0,0.0,0.0,0.0,0.0,0.0,0.0,0.0,0.0,0.0,4.4485,4.5655,4.8225,4.8815,4.9018,4.9018,4.8326,4.7143,4.5297,4.4418,0.0,0.0,0.0,0.0,0.0,0.0,0.0,0.0,0.0,0.0,0.0,0.0,0.0,0.0,0.0,0.0,0.0,0.0,0.0,0.0,0.0,0.0,0.0,0.0,0.0,0.0,0.0,0.0,0.0,0.0,0.0,0.0,0.0,0.0,0.0,0.0,0.0,0.0,0.0,0.0,0.0,0.0,0.0,0.0,0.0,0.0,0.0,0.0,0.0,0.0,0.0,0.0,0.0,0.0,0.0,0.0,0.0,0.0,0.0,0.0,0.0,0.0,0.0,0.0,0.0,0.0,0.0,0.0,0.0,0.0,0.0,0.0,0.0,0.0,0.0,0.0,0.0,0.0,0.0,0.0,0.0,0.0,0.0,0.0,0.0,0.0,0.0,0.0,0.0,0.0,0.0,0.0,0.0,0.0,0.0,0.0,0.0,0.0,0.0,0.0,0.0,0.0,4.6244,4.694,4.8815,4.9018,4.9018,4.9018,4.8157,4.7008,4.5534,4.3998,0.0,0.0,0.0,0.0,0.0,0.0,0.0,0.0,0.0,0.0,0.0,0.0,0.0,0.0,0.0,0.0,0.0,0.0,0.0,0.0,0.0,0.0,0.0,0.0,0.0,0.0,0.0,0.0,0.0,0.0,0.0,0.0,0.0,0.0,0.0,0.0,0.0,0.0,0.0,0.0,0.0,0.0,0.0,0.0,0.0,0.0,0.0,0.0,0.0,0.0,0.0,0.0,0.0,0.0,0.0,0.0,0.0,0.0,0.0,0.0,0.0,0.0,0.0,0.0,0.0,0.0,0.0,0.0,0.0,0.0,0.0,0.0,0.0,0.0,0.0,0.0,0.0,0.0,0.0,0.0,0.0,0.0,0.0,0.0,0.0,0.0,0.0,0.0,0.0,0.0,0.0,0.0,0.0,0.0,0.0,0.0,0.0,0.0,0.0,0.0,0.0,0.0,4.6515,4.8056,4.8917,4.9018,4.9018,4.9018,4.7699,4.6259,4.477,4.3247,0.0,0.0,0.0,0.0,0.0,0.0,0.0,0.0,0.0,0.0,0.0,0.0,0.0,0.0,0.0,0.0,0.0,0.0,0.0,0.0,0.0,0.0,0.0,0.0,0.0,0.0,0.0,0.0,0.0,0.0,0.0,0.0,0.0,0.0,0.0,0.0,0.0,0.0,0.0,0.0,0.0,0.0,0.0,0.0,0.0,0.0,0.0,0.0,0.0,0.0,0.0,0.0,0.0,0.0,0.0,0.0,0.0,0.0,0.0,0.0,0.0,0.0,0.0,0.0,0.0,0.0,0.0,0.0,0.0,0.0,0.0,0.0,0.0,0.0,0.0,0.0,0.0,0.0,0.0,0.0,0.0,0.0,0.0,0.0,0.0,0.0,0.0,0.0,0.0,0.0,0.0,0.0,0.0,0.0,0.0,0.0,0.0,0.0,0.0,0.0,0.0,0.0,4.6805,4.836,0.0,4.971,4.9492,4.9052,4.8477,4.7361,4.5399,0.0,0.0,0.0,0.0,0.0,0.0,0.0,0.0,0.0,0.0,0.0,0.0,0.0,0.0,0.0,0.0,0.0,0.0,0.0,0.0,0.0,0.0,0.0,0.0,0.0,0.0,0.0,0.0,0.0,0.0,0.0,0.0,0.0,0.0,0.0,0.0,0.0,0.0,0.0,0.0,0.0,0.0,0.0,0.0,0.0,0.0,0.0,0.0,0.0,0.0,0.0,0.0,0.0,0.0,0.0,0.0,0.0,0.0,0.0,0.0,0.0,0.0,0.0,0.0,0.0,0.0,0.0,0.0,0.0,0.0,0.0,0.0,0.0,0.0,0.0,0.0,0.0,0.0,0.0,0.0,0.0,0.0,0.0,0.0,0.0,0.0,0.0,0.0,0.0,0.0,0.0,0.0,0.0,0.0,0.0,0.0,0.0,0.0,0.0,0.0,0.0,0.0,4.5466,4.7394,4.907,0.0,5.0236,4.9914,4.939,4.8714,4.7462,4.5466,0.0,0.0,0.0,0.0,0.0,0.0,0.0,0.0,0.0,0.0,0.0,0.0,0.0,0.0,0.0,0.0,0.0,0.0,0.0,0.0,0.0,0.0,0.0,0.0,0.0,0.0,0.0,0.0,0.0,0.0,0.0,0.0,0.0,0.0,0.0,0.0,0.0,0.0,0.0,0.0,0.0,0.0,0.0,0.0,0.0,0.0,0.0,0.0,0.0,0.0,0.0,0.0,0.0,0.0,0.0,0.0,0.0,0.0,0.0,0.0,0.0,0.0,0.0,0.0,0.0,0.0,0.0,0.0,0.0,0.0,0.0,0.0,0.0,0.0,0.0,0.0,0.0,0.0,0.0,0.0,0.0,0.0,0.0,0.0,0.0,0.0,0.0,0.0,0.0,0.0,0.0,0.0,0.0,0.0,0.0,0.0,0.0,0.0,0.0,0.0,0.0,0.0,4.5635,4.8274,5.0405,5.1133,5.0574,5.0117,5.0117,4.812,4.6191,0.0,0.0,0.0,0.0,0.0,0.0,0.0,0.0,0.0,0.0,0.0,0.0,0.0,0.0,0.0,0.0,0.0,0.0,0.0,0.0,0.0,0.0,0.0,0.0,0.0,0.0,0.0,0.0,0.0,0.0,0.0,0.0,0.0,0.0,0.0,0.0,0.0,0.0,0.0,0.0,0.0,0.0,0.0,0.0,0.0,0.0,0.0,0.0,0.0,0.0,0.0,0.0,0.0,0.0,0.0,0.0,0.0,0.0,0.0,0.0,0.0,0.0,0.0,0.0,0.0,0.0,0.0,0.0,0.0,0.0,0.0,0.0,0.0,0.0,0.0,0.0,0.0,0.0,0.0,0.0,0.0,0.0,0.0,0.0,0.0,0.0,0.0,0.0,0.0,0.0,0.0,0.0,0.0,0.0,0.0,0.0,0.0,0.0,0.0,0.0,0.0,0.0,0.0,4.638,4.9492,5.1725,5.1961,5.1792,5.1454,5.0897,4.9796,4.8037,4.5534,0.0,0.0,0.0,0.0,0.0,0.0,0.0,0.0,0.0,0.0,0.0,0.0,0.0,0.0,0.0,0.0,0.0,0.0,0.0,0.0,0.0,0.0,0.0,0.0,0.0,0.0,0.0,0.0,0.0,0.0,0.0,0.0,0.0,0.0,0.0,0.0,0.0,0.0,0.0,0.0,0.0,0.0,0.0,0.0,0.0,0.0,0.0,0.0,0.0,0.0,0.0,0.0,0.0,0.0,0.0,0.0,0.0,0.0,0.0,0.0,0.0,0.0,0.0,0.0,0.0,0.0,0.0,0.0,0.0,0.0,0.0,0.0,0.0,0.0,0.0,0.0,0.0,0.0,0.0,0.0,0.0,0.0,0.0,0.0,0.0,0.0,0.0,0.0,0.0,0.0,0.0,0.0,0.0,0.0,0.0,0.0,0.0,0.0,0.0,0.0,0.0,0.0,4.6733,4.9999,5.2435,5.2739,5.2503,5.2131,5.1674,5.0676,4.8966,4.6312,0.0,0.0,0.0,0.0,0.0,0.0,0.0,0.0,0.0,0.0,0.0,0.0,0.0,0.0,0.0,0.0,0.0,0.0,0.0,0.0,0.0,0.0,0.0,0.0,0.0,0.0,0.0,0.0,0.0,0.0,0.0,0.0,0.0,0.0,0.0,0.0,0.0,0.0,0.0,0.0,0.0,0.0,0.0,0.0,0.0,0.0,0.0,0.0,0.0,0.0,0.0,0.0,0.0,0.0,0.0,0.0,0.0,0.0,0.0,0.0,0.0,0.0,0.0,0.0,0.0,0.0,0.0,0.0,0.0,0.0,0.0,0.0,0.0,0.0,0.0,0.0,0.0,0.0,0.0,0.0,0.0,0.0,0.0,0.0,0.0,0.0,0.0,0.0,0.0,0.0,0.0,0.0,0.0,0.0,0.0,0.0,0.0,0.0,0.0,0.0,0.0,0.0,4.6921,5.0236,5.2807,5.3518,5.2942,5.2503,5.2435,5.1116,4.9338,4.7056,0.0,0.0,0.0,0.0,0.0,0.0,0.0,0.0,0.0,0.0,0.0,0.0,0.0,0.0,0.0,0.0,0.0,0.0,0.0,0.0,0.0,0.0,0.0,0.0,0.0,0.0,0.0,0.0,0.0,0.0,0.0,0.0,0.0,0.0,0.0,0.0,0.0,0.0,0.0,0.0,0.0,0.0,0.0,0.0,0.0,0.0,0.0,0.0,0.0,0.0,0.0,0.0,0.0,0.0,0.0,0.0,0.0,0.0,0.0,0.0,4.8428,4.7192,0.0,0.0,0.0,0.0,0.0,0.0,0.0,0.0,0.0,0.0,0.0,0.0,0.0,0.0,0.0,0.0,0.0,0.0,0.0,0.0,0.0,0.0,0.0,0.0,0.0,0.0,0.0,0.0,0.0,0.0,0.0,0.0,0.0,0.0,0.0,0.0,0.0,0.0,0.0,0.0,4.8443,5.1792,5.4177,5.4329,5.4194,5.3856,5.3281,5.2367,5.0642,4.7853,4.6955,0.0,0.0,0.0,0.0,0.0,0.0,0.0,0.0,0.0,0.0,0.0,0.0,0.0,0.0,0.0,0.0,0.0,0.0,0.0,0.0,0.0,0.0,0.0,0.0,0.0,0.0,0.0,0.0,0.0,0.0,0.0,0.0,0.0,0.0,0.0,0.0,0.0,0.0,0.0,0.0,0.0,0.0,0.0,0.0,0.0,0.0,0.0,0.0,0.0,0.0,0.0,0.0,0.0,0.0,0.0,0.0,0.0,0.0,0.0,5.1697,4.9796,0.0,0.0,0.0,0.0,0.0,0.0,0.0,0.0,0.0,0.0,0.0,0.0,0.0,0.0,0.0,0.0,0.0,0.0,0.0,0.0,0.0,0.0,0.0,0.0,0.0,0.0,0.0,0.0,0.0,0.0,0.0,0.0,0.0,0.0,0.0,0.0,0.0,0.0,0.0,0.0,4.8917,5.2266,5.4735,5.5108,5.5141,5.4972,5.4583,5.3501,5.2063,5.0119,4.8003,0.0,0.0,0.0,0.0,0.0,0.0,0.0,0.0,0.0,0.0,0.0,0.0,0.0,0.0,0.0,0.0,0.0,0.0,0.0,0.0,0.0,0.0,0.0,0.0,0.0,0.0,0.0,0.0,0.0,0.0,0.0,0.0,0.0,0.0,0.0,0.0,0.0,0.0,0.0,0.0,0.0,0.0,0.0,0.0,0.0,0.0,0.0,0.0,0.0,0.0,0.0,0.0,0.0,5.7974,5.8508,5.9304,5.9446,5.9888,6.0356,5.6288,5.4184,5.3569,5.3552,0.0,0.0,0.0,0.0,0.0,0.0,0.0,0.0,0.0,0.0,0.0,0.0,0.0,0.0,0.0,0.0,0.0,0.0,0.0,0.0,0.0,0.0,5.1572,5.2046,5.2182,5.1336,4.8293,0.0,0.0,0.0,0.0,0.0,0.0,0.0,0.0,0.0,0.0,0.0,4.9492,5.2739,5.5209,5.5834,5.5902,5.5834,5.5699,5.4583,5.345,5.2367,4.9458,4.7192,0.0,0.0,0.0,0.0,0.0,0.0,0.0,0.0,0.0,0.0,0.0,0.0,0.0,0.0,0.0,0.0,0.0,0.0,0.0,0.0,0.0,0.0,0.0,0.0,0.0,0.0,0.0,0.0,0.0,0.0,0.0,0.0,5.5978,5.5511,0.0,0.0,0.0,0.0,0.0,0.0,0.0,0.0,0.0,0.0,0.0,0.0,0.0,5.7868,5.7811,5.8614,5.9411,6.0238,6.1514,6.2564,6.3346,6.4005,6.436,6.4415,6.3763,0.0,5.8627,5.8567,0.0,0.0,0.0,0.0,0.0,0.0,0.0,0.0,0.0,0.0,0.0,0.0,0.0,0.0,0.0,0.0,0.0,0.0,0.0,0.0,0.0,0.0,5.6749,5.619,5.6055,5.5919,5.5446,5.186,4.824,4.665,4.653,4.6157,0.0,0.0,0.0,0.0,0.0,0.0,5.1758,5.46,5.6562,5.663,5.6664,5.6393,5.5767,5.553,5.4515,5.2435,5.191,5.015,4.6786,4.5737,0.0,0.0,0.0,0.0,0.0,0.0,0.0,0.0,0.0,0.0,0.0,0.0,0.0,0.0,0.0,0.0,0.0,0.0,0.0,0.0,0.0,0.0,0.0,0.0,0.0,0.0,0.0,0.0,0.0,5.6847,5.7691,5.6418,5.7361,5.7655,0.0,0.0,0.0,0.0,0.0,0.0,0.0,0.0,0.0,6.0234,6.1511,6.2414,6.2907,6.3705,6.4734,6.5982,6.6627,6.7591,6.8823,6.9171,6.9569,6.9947,6.9497,6.8367,6.6569,6.2907,6.0305,5.8551,0.0,0.0,0.0,0.0,5.6964,5.7093,5.7611,5.752,5.7137,5.7048,0.0,0.0,0.0,0.0,0.0,0.0,0.0,5.3788,5.5108,5.6968,5.866,5.9201,5.9641,5.9844,5.9438,5.7171,5.4296,5.1183,5.0202,4.9289,4.7394,4.7327,0.0,0.0,0.0,5.208,5.2875,5.5209,5.6968,5.7374,5.7408,5.7273,5.6968,5.6562,5.5868,5.4905,5.3247,5.1589,4.9965,4.8003,4.6433,0.0,0.0,0.0,0.0,0.0,0.0,0.0,0.0,0.0,0.0,0.0,0.0,0.0,0.0,0.0,0.0,0.0,0.0,0.0,0.0,0.0,0.0,0.0,0.0,0.0,0.0,0.0,0.0,5.8462,5.9526,5.7912,5.9343,5.982,0.0,0.0,0.0,0.0,0.0,0.0,6.0737,6.2291,6.3539,6.4334,6.5985,6.7197,6.8017,6.8641,6.9646,7.1027,7.0807,7.1578,7.3105,7.2679,7.2936,7.367,7.2863,7.2496,7.2093,6.6897,6.387,6.245,6.2131,6.156,6.0956,6.1286,6.1448,6.1668,6.2811,6.2848,6.2366,6.2169,6.0894,5.8988,5.668,0.0,0.0,0.0,0.0,5.5784,5.8373,5.9607,6.0467,6.1839,6.255,6.2821,6.2245,6.1231,5.9268,5.5378,5.3856,5.2604,5.0744,5.027,0.0,4.9409,5.1505,5.3382,5.3991,5.5818,5.7273,5.7832,5.79,5.79,5.79,5.7408,5.7002,5.6799,5.4702,5.3281,5.2909,5.0592,4.8901,4.7936,0.0,0.0,0.0,0.0,0.0,0.0,0.0,0.0,0.0,0.0,0.0,0.0,0.0,0.0,0.0,0.0,0.0,0.0,0.0,0.0,0.0,0.0,0.0,0.0,0.0,0.0,0.0,0.0,0.0,6.0407,6.2365,0.0,0.0,0.0,0.0,6.3625,6.3772,6.4127,6.4958,6.6512,6.7774,6.8554,7.0169,7.138,7.2202,7.2239,7.2679,7.3501,7.2753,7.323,7.472,7.3193,7.2936,7.367,7.2863,7.2496,7.2371,7.048,6.8779,6.729,6.6496,6.5689,6.4927,6.4196,6.3934,6.3928,6.4004,6.4021,6.4218,6.5573,6.4489,6.2214,5.9732,5.8446,0.0,0.0,5.8693,6.0148,6.1738,6.2719,6.3477,6.4241,6.4478,6.4478,6.4444,6.2753,6.052,5.8118,5.6528,5.5259,5.4465,0.0,5.3281,5.3213,5.4549,5.553,5.5564,5.69,5.7866,5.79,5.79,5.79,5.79,5.7866,5.7543,5.6833,5.6664,5.5953,5.4532,5.3687,5.252,5.0998,4.8868,0.0,0.0,0.0,0.0,0.0,0.0,0.0,0.0,0.0,0.0,0.0,0.0,0.0,0.0,0.0,0.0,0.0,0.0,0.0,0.0,0.0,0.0,0.0,0.0,0.0,0.0,0.0,0.0,6.2915,6.5375,0.0,6.4897,6.4751,6.5228,6.6342,6.737,6.8311,6.9105,7.0697,7.1702,7.1982,7.3046,7.3729,7.4023,7.4023,7.4169,7.4478,7.4184,7.4353,7.4903,7.4845,7.4698,7.4478,7.4169,7.3744,7.3193,7.2092,7.0991,6.9926,6.9119,6.8641,6.8357,6.8064,6.8309,6.8741,6.875,6.8734,6.8646,6.813,6.7011,6.5401,6.2958,6.1633,6.0911,6.0804,6.1163,6.1907,6.3429,6.4343,6.4986,6.5256,6.5662,6.5899,6.5392,6.4681,6.3734,6.2448,5.9438,5.7036,5.6783,5.6512,5.6156,5.5716,5.69,5.7829,5.7829,5.8269,5.8626,5.8626,5.8186,5.79,5.79,5.79,5.7798,5.7509,5.707,5.6562,5.6055,5.531,5.4414,5.3416,5.2164,5.0506,0.0,0.0,0.0,0.0,0.0,0.0,0.0,0.0,0.0,0.0,0.0,0.0,0.0,0.0,0.0,0.0,0.0,0.0,0.0,0.0,0.0,0.0,0.0,0.0,0.0,6.4297,6.6512,6.6512,6.8641,6.9706,6.8641,6.8274,6.8568,6.9646,7.0711,7.1651,7.2481,7.378,7.4515,7.4515,7.527,7.5711,7.5711,7.5711,7.5711,7.5711,7.5417,7.5454,7.5711,7.5711,7.5542,7.527,7.5014,7.4588,7.4074,7.3523,7.2863,7.2041,7.1211,7.0917,7.0917,7.0917,7.1248,7.1711,7.1711,7.1857,7.1821,7.0243,6.9238,6.8253,6.5775,6.4375,6.3618,6.3557,6.3517,6.3822,6.5019,6.5696,6.6068,6.6068,6.644,6.6677,6.617,6.5886,6.5581,6.5053,6.1941,5.9422,5.9422,5.8983,5.8389,5.7645,5.8573,5.9284,5.9013,5.9216,5.9351,5.9351,5.893,5.8524,5.8287,5.8017,5.79,5.79,5.6968,5.6562,5.6799,5.6335,5.5707,5.4973,5.426,5.2753,5.0404,0.0,0.0,0.0,0.0,0.0,0.0,0.0,0.0,0.0,0.0,0.0,0.0,0.0,0.0,0.0,0.0,0.0,0.0,0.0,0.0,0.0,0.0,0.0,6.5251,6.749,6.9619,7.1233,7.2165,7.2679,7.2642,7.1931,7.2114,7.367,7.378,7.4147,7.494,7.5726,7.613,7.613,7.6885,7.7289,7.7289,7.7289,7.7289,7.7252,7.6481,7.6481,7.7179,7.5637,7.5344,7.6019,7.527,7.4903,7.4903,7.4903,7.4441,7.367,7.2863,7.2532,7.2496,7.2496,7.2496,7.2496,7.2496,7.2995,7.3421,7.1814,7.1196,7.0616,6.8142,6.6739,6.596,6.5814,6.5784,6.5954,6.6622,6.6791,6.6791,6.6791,6.6791,6.6791,6.6791,6.6237,6.5751,6.5751,6.3991,6.2502,6.2415,6.1197,5.9979,5.9216,5.9708,0.0,5.9182,5.9708,6.0148,6.0114,6.008,5.9776,5.9047,5.8321,5.79,5.797,5.6598,5.6141,5.6888,5.6916,5.6581,5.5854,5.5097,5.4409,5.3744,0.0,0.0,0.0,0.0,0.0,0.0,0.0,0.0,0.0,0.0,0.0,0.0,0.0,0.0,0.0,0.0,0.0,0.0,0.0,0.0,0.0,6.5742,6.7467,6.71,7.011,7.2753,7.3802,7.5689,7.668,7.6041,7.5784,7.5601,7.5432,7.5968,7.6408,7.6628,7.6848,7.6959,7.6959,7.7179,7.7289,7.7289,7.7289,7.6995,7.6423,7.6203,7.5909,7.5564,7.5711,7.5579,7.5234,7.5616,7.5432,7.4903,7.4903,7.4757,7.4478,7.367,7.301,7.2496,7.2496,7.2496,7.2496,7.2496,7.2537,7.2556,7.2106,7.1368,7.054,6.9834,6.8975,6.8085,6.7472,6.7286,6.7218,6.6914,6.6791,6.6791,6.6791,6.6791,6.6791,6.6791,6.6622,6.6508,6.6508,6.5561,6.4444,6.3396,6.2835,6.2293,6.1569,6.1637,6.167,6.1501,6.1163,6.0757,6.0148,5.9641,5.9216,5.9013,5.8321,5.8393,5.9563,5.8703,5.8542,5.9356,5.942,5.93,5.9104,5.7754,5.6971,0.0,0.0,0.0,0.0,0.0,0.0,0.0,0.0,0.0,0.0,0.0,0.0,0.0,0.0,0.0,0.0,0.0,0.0,0.0,0.0,0.0,0.0,6.9045,7.1101,7.1651,7.345,7.5249,7.679,7.7928,7.8516,7.8369,7.7693,7.7105,7.6628,7.7032,7.7289,7.7289,7.7289,7.7289,7.7289,7.7289,7.7289,7.7289,7.7289,7.7069,7.6592,7.6592,7.6371,7.5931,7.6371,7.6335,7.5931,7.6408,7.6335,7.5894,7.5894,7.5711,7.5307,0.0,0.0,0.0,0.0,7.301,7.2936,7.2606,7.2401,7.2253,7.2221,7.1462,7.0545,7.0505,6.9816,6.8944,6.8132,6.7895,6.7726,6.7015,6.7028,6.7252,6.7252,6.7252,6.7252,6.7252,6.7252,6.7252,6.7252,6.6914,0.0,6.5067,6.4356,6.3734,6.2956,6.2854,6.2854,6.2854,6.2212,6.1806,6.1975,6.1061,6.071,6.1397,6.0203,0.0,0.0,0.0,5.9941,6.0415,6.0123,0.0,0.0,0.0,0.0,0.0,6.0115,0.0,0.0,5.9444,5.9501,0.0,0.0,0.0,0.0,0.0,0.0,0.0,0.0,0.0,0.0,0.0,0.0,0.0,0.0,0.0,0.0,7.2532,7.4918,7.7252,7.7032,7.7451,7.9669,7.9412,7.925,7.989,7.8573,7.7693,7.7582,7.7582,7.7582,7.7582,7.7582,0.0,0.0,0.0,7.7436,7.7436,7.7436,7.7509,7.7582,7.7582,7.7582,7.7582,7.7582,7.7582,7.7582,7.7509,7.7436,7.7436,7.7362,7.6885,7.6166,7.5234,7.4903,7.4793,7.4111,7.3817,7.3707,7.301,0.0,0.0,7.2197,7.1388,7.0404,7.0344,6.9767,6.8944,6.8132,6.7895,6.7726,6.7015,6.7354,6.7895,6.7793,6.7827,6.7895,6.7895,6.7895,6.7895,6.7895,6.7895,6.7658,6.6927,6.5662,6.4478,6.3748,6.3612,6.3612,6.3612,6.3057,6.3151,6.449,6.3459,0.0,6.4923,6.3118,6.231,6.3279,6.2144,6.1357,6.1299,6.0638,6.088,6.2254,6.2304,6.3356,6.5582,6.5582,6.6402,6.7847,6.2683,6.1912,0.0,0.0,0.0,0.0,0.0,0.0,0.0,0.0,0.0,0.0,0.0,0.0,0.0,0.0,0.0,7.2569,7.5028,7.7215,7.9066,7.9727,8.0241,8.0718,8.1195,8.1305,8.0828,8.0461,8.0021,7.936,7.9323,7.9323,7.9323,7.9323,7.9029,7.8369,7.8369,7.8369,7.8369,7.8369,7.8662,7.9323,7.9323,0.0,7.9323,7.9323,7.9323,7.9302,7.8626,7.8369,7.8295,7.7582,7.7215,7.6922,7.5454,7.4903,7.4867,7.472,7.4661,7.4647,7.45,7.3378,7.2068,7.205,7.0841,6.939,6.9369,6.9252,0.0,6.8132,6.7895,6.7726,6.7015,6.7354,6.776,6.7151,6.7489,6.7895,6.7895,6.7895,6.7895,6.7895,6.7895,6.7658,6.6927,6.6068,6.5222,6.4512,6.4377,6.4377,6.4377,6.4275,6.4344,6.4788,6.4606,6.4855,6.5947,6.506,6.5119,6.6572,6.6445,6.6327,6.6303,6.6156,6.6223,6.6526,6.6526,6.6746,6.726,6.726,6.8068,6.9596,6.7834,6.7724,0.0,0.0,0.0,0.0,0.0,0.0,0.0,0.0,0.0,0.0,0.0,6.6269,6.7467,0.0,7.3156,7.5175,7.7231,7.8993,8.0241,8.1085,8.1452,8.1048,8.1342,8.1452,8.1048,8.0645,8.0241,7.9816,7.9816,7.9816,7.9816,7.9816,7.9633,7.9229,7.9192,7.9192,7.9192,7.9192,7.9412,7.9816,7.9816,7.9816,7.9816,7.9816,7.9816,7.9779,7.9376,7.9192,7.9192,7.8736,7.8552,7.8479,7.7671,7.6864,7.6041,7.5637,7.5506,7.5372,7.4467,7.3207,7.1988,7.183,7.0808,6.9722,7.0094,7.0195,7.006,6.9248,6.9045,6.8876,6.8132,6.8504,6.8944,6.8605,6.8774,6.9045,6.9045,6.9045,6.9045,6.9045,6.8741,6.8368,6.803,6.7407,6.6669,6.5846,6.5792,6.598,6.6356,6.6171,6.6352,6.7195,6.6601,6.6829,6.8557,6.8069,6.7996,6.8808,6.8119,6.7884,6.8274,6.7921,6.7884,6.8274,6.8692,6.9316,7.011,7.0527,7.1321,7.2481,7.1981,7.1529,0.0,0.0,0.0,0.0,0.0,0.0,0.0,6.48,6.5057,6.6035,6.7504,6.9169,7.0954,7.3509,7.5968,7.7729,7.9286,8.055,8.1342,8.215,8.2443,8.1782,8.1709,8.1709,8.1709,8.0975,8.0514,8.0514,8.0367,8.0257,8.0257,8.0257,8.0183,8.0036,8.0036,8.0036,8.0036,8.0036,8.011,8.0257,8.0257,8.0257,8.0257,8.0257,8.0257,8.0257,8.011,7.9926,7.9816,7.9816,7.9816,7.9816,7.9816,7.8956,7.7693,7.7047,7.6717,7.6338,7.4678,7.3259,7.2161,7.1728,7.0865,7.0094,7.0703,7.085,7.077,7.0161,7.0014,6.9857,6.9248,6.9654,7.0184,7.0014,7.0116,7.0217,7.0217,7.0217,7.0217,7.0217,6.9884,6.956,6.9424,6.9141,6.8566,6.7482,6.7473,6.7904,6.8828,6.8432,6.8678,7.0273,6.9329,6.9468,7.1648,7.1326,7.1027,7.1027,6.983,6.9376,7.0022,6.9449,6.9339,6.9816,7.0624,7.1578,7.2716,7.3523,7.4242,7.483,7.4678,7.3896,6.4693,6.39,6.347,6.3285,6.3807,6.4886,0.0,6.7297,6.7737,6.9229,7.0844,7.2679,7.4992,7.6298,7.7803,8.0188,8.1342,8.2223,8.3014,8.3838,8.4315,8.4205,8.4205,8.4205,8.4205,8.3454,8.2977,8.2977,8.2333,8.1929,8.1929,8.1929,8.1599,8.0901,8.0865,8.0865,8.0865,8.0865,8.1232,8.1929,8.1929,8.1929,8.1929,8.1929,8.1929,8.1893,8.1195,8.0461,7.9816,7.9816,7.9816,7.9816,7.9816,7.9706,7.9522,7.9412,7.8935,7.8149,7.6995,7.503,7.2905,7.1982,7.0565,6.9248,6.9316,6.935,6.9316,6.9248,6.9214,6.9214,6.9113,6.9654,7.0026,6.9383,6.9722,7.0217,7.0217,7.0217,7.0217,7.0217,7.087,7.1214,7.0563,7.1135,7.1089,6.9461,6.933,6.9954,7.1457,7.0982,7.1161,7.2897,7.2925,7.3269,7.4378,7.4418,7.4353,7.4353,7.4169,7.4133,7.4243,7.4133,7.3817,7.3171,7.3964,7.4111,7.356,7.4368,7.4707,7.4641,7.4613,7.449,6.4692,6.4761,6.5158,6.5553,6.6765,6.8299,7.0092,7.1211,7.2202,7.3377,7.4882,7.635,7.7378,7.8993,8.0498,8.1525,8.2774,8.347,8.3172,8.4378,8.4882,8.3754,8.5017,8.5637,8.4682,8.4315,8.4095,8.4095,8.3361,8.292,8.292,8.2443,8.2039,8.1709,8.1709,8.1709,8.1709,8.1709,8.1856,8.2186,8.2186,8.2186,8.2186,8.2186,8.2443,8.2847,8.2039,8.1782,8.1856,8.1379,8.1211,8.1211,8.1211,8.1211,8.1,7.945,7.8649,7.8118,7.6439,7.4862,7.3447,7.2408,7.1304,7.0376,7.0376,7.0376,7.0376,7.0376,7.0376,7.0376,7.0376,7.0601,7.077,7.0444,7.0635,7.0838,7.0838,7.1321,7.1726,7.1726,7.2189,7.2484,7.2187,7.2547,7.2848,7.2567,7.219,7.2128,7.2826,7.3086,7.349,7.4238,7.4306,7.4482,7.4874,7.4903,7.4903,7.4903,7.4903,7.4903,7.4903,7.4903,7.472,7.4404,7.5212,7.5153,7.4215,7.5015,7.5077,7.4421,7.3814,7.353,6.4924,6.587,6.7226,6.8124,6.9737,7.1505,7.312,7.439,7.5542,7.657,7.7745,7.8736,7.9176,8.0865,8.226,8.248,8.362,8.417,8.3332,8.4628,8.5081,8.3441,8.5281,8.6224,8.5049,8.4939,8.4939,8.4939,8.4205,8.3711,8.3711,8.3177,8.2847,8.2847,8.2847,8.2847,8.2847,8.2847,8.2737,8.2517,8.2517,8.2406,8.2186,8.2443,8.2957,8.3711,8.3104,8.3177,8.3675,8.3104,8.2737,8.2517,8.2517,8.2406,8.1872,7.9359,7.8495,7.8261,7.6428,7.5074,7.404,7.3017,7.2326,7.1921,7.1921,7.1751,7.1594,7.1594,7.1458,7.1289,7.1289,7.1289,7.1289,7.1289,7.1289,7.1379,7.1644,7.2279,7.288,7.3151,7.3585,7.3902,7.3902,7.4265,7.474,7.532,7.4921,7.4559,7.4559,7.5139,7.5564,7.5564,7.5564,7.5564,7.5564,7.5564,7.5564,7.5564,7.5564,7.5564,7.5564,7.5564,7.5312,7.4826,7.5593,7.5398,7.4185,7.4992,7.4867,7.385,7.3131,7.2769,6.6108,6.7682,6.9756,7.0901,7.24,7.4001,7.5616,7.6019,7.6533,7.8185,7.8552,7.9066,8.0645,8.1636,8.2443,8.3234,8.3791,8.4106,8.4068,8.4792,8.4992,8.414,8.5098,8.582,8.5764,8.5747,8.5747,8.5747,8.5013,8.4572,8.4572,8.4535,8.4535,8.4535,8.4535,8.4535,8.4535,8.4535,8.4132,8.3344,8.3344,8.2957,8.2223,8.3014,8.3785,8.4572,8.4535,8.4535,8.4572,8.4535,8.4058,8.3344,8.3344,8.2884,8.1952,7.977,7.9136,7.9215,7.8096,7.6506,7.4814,7.3799,7.3466,7.3432,7.3432,7.2935,7.236,7.236,7.1853,7.1289,7.1289,7.1289,7.1289,7.1289,7.1289,7.159,7.254,7.2776,7.307,7.4062,7.5048,7.5716,7.5716,7.6506,7.7169,7.7206,7.7206,7.7169,7.7169,7.72,7.7252,7.7252,7.7252,7.7252,7.7252,7.7252,7.7252,7.7252,7.7252,7.7252,7.7252,7.7252,7.6386,7.4649,7.5388,7.4921,7.3142,7.3939,7.3811,7.2838,7.2818,7.2657,6.6963,6.8889,7.107,7.2516,7.4515,7.6371,7.7488,7.8589,7.9507,8.0094,8.0204,8.0351,8.0901,8.1082,8.1642,8.3134,8.3828,8.4093,8.3804,8.5287,8.5371,8.2524,8.43,8.56,8.5049,8.549,8.6004,8.6554,8.5857,8.538,8.538,8.4903,8.4609,8.4609,8.4609,8.4609,8.4609,8.4609,8.4462,8.4205,8.4205,8.4058,8.3801,8.4058,8.4646,8.538,8.4829,8.4903,8.5343,8.4829,8.4462,8.4205,8.4205,8.3575,8.2541,8.1283,7.9985,7.8581,7.6952,7.5674,7.4662,7.4338,7.3883,7.35,7.35,7.3331,7.3105,7.3105,7.2935,7.2766,7.2766,7.2766,7.2938,7.366,7.3822,7.411,7.5143,7.5909,7.6314,7.6141,7.6944,7.7466,7.6902,7.7066,7.7289,7.7289,7.7289,7.7289,7.7289,7.7289,7.7289,7.7289,7.7289,7.7289,7.7289,7.7289,7.7546,7.8148,7.7619,7.7546,7.8148,7.7619,7.6715,7.5426,7.6149,7.5351,7.2908,7.4179,7.4002,7.2558,7.3036,7.3221,6.8924,7.077,7.2679,7.4882,7.6607,7.806,7.9213,8.0277,8.1085,8.1379,8.1195,8.1012,8.1012,8.0864,8.1332,8.3114,8.3828,8.4165,8.4222,8.5468,8.5371,8.258,8.4101,8.527,8.5049,8.5233,8.582,8.6904,8.6518,8.6224,8.6224,8.5747,8.5453,8.5453,8.5453,8.5453,8.5453,8.5453,8.5306,8.5013,8.4756,8.4756,8.5013,8.5013,8.5453,8.6187,8.5673,8.5747,8.6187,8.5673,8.5306,8.5013,8.5013,8.4397,8.3357,8.2092,8.0704,7.9186,7.7011,7.5714,7.4999,7.4999,7.4661,7.4312,7.4312,7.4086,7.3883,7.3883,7.368,7.35,7.35,7.3787,7.4237,7.4934,7.5373,7.5936,7.7015,7.7757,7.8165,7.802,7.8569,7.8846,7.828,7.817,7.817,7.817,7.817,7.7986,7.7399,7.7289,7.7289,7.7289,7.7289,7.7289,7.7289,7.7582,7.7986,7.8552,7.7996,7.7892,7.8439,7.7542,7.653,7.5539,7.6,7.5172,7.3048,7.3988,7.3887,7.28,7.3297,7.3612,7.1688,7.3193,7.4625,7.7818,7.8662,7.914,8.0718,8.1048,8.1232,8.2039,8.1489,8.0901,8.0938,8.089,8.1387,8.3087,8.3773,8.4357,8.517,8.5408,8.5119,8.4213,8.4424,8.4976,8.571,8.5123,8.5306,8.6867,8.6941,8.6941,8.6978,8.7014,8.7014,8.6978,8.7014,8.7014,8.6978,8.6978,8.6628,8.5874,8.5086,8.5123,8.5857,8.5857,8.6261,8.6978,8.6978,8.6978,8.6978,8.6978,8.6554,8.5857,8.5857,8.5346,8.4356,8.2179,8.1334,8.0914,7.8267,7.6656,7.5811,7.5811,7.5811,7.5811,7.5811,7.5337,7.4796,7.4833,7.4301,7.376,7.3865,7.4599,7.5286,7.5414,7.6212,7.716,7.8188,7.8419,7.8679,7.9657,7.9816,7.9816,7.9816,7.9816,7.9853,7.9816,7.9853,7.925,7.7656,7.7436,7.7436,7.7436,7.7436,7.7436,7.7436,7.8185,7.8647,7.8636,7.8366,7.8188,7.817,7.7089,7.6037,7.5007,7.5054,7.4547,7.35,7.3601,7.3601,7.3567,7.3635,7.4052,7.2679,7.4882,7.6738,7.8222,7.9507,8.0645,8.1672,8.1415,8.1232,8.2039,8.0608,7.9396,8.0,7.9447,7.972,8.2125,8.3445,8.445,8.5189,8.6555,8.663,8.438,8.4916,8.5563,8.58,8.56,8.5894,8.6904,8.6444,8.6371,8.6978,8.7582,8.7619,8.7014,8.7582,8.7619,8.7014,8.6978,8.6904,8.6701,8.6481,8.6518,8.6701,8.6701,8.6811,8.6978,8.6978,8.6978,8.6978,8.6978,8.6867,8.6701,8.6701,8.6044,8.4875,8.2939,8.1661,8.061,7.8539,7.7634,7.7401,7.7401,7.7401,7.7401,7.7401,7.7266,7.7314,7.8178,7.7656,7.7237,7.8951,7.8532,7.8071,7.9688,7.9852,7.9901,8.0939,8.1177,8.108,8.0743,8.0204,7.9816,7.9816,8.0277,8.0498,7.989,8.0314,8.0314,7.9286,7.914,7.914,7.914,7.914,7.914,7.914,7.9376,7.9418,7.9204,7.8563,7.8098,7.7902,7.7008,7.6037,7.5007,7.5539,7.5063,7.35,7.4593,7.4864,7.4356,7.5506,7.6115,7.4625,7.6261,7.7693,7.925,8.0351,8.1048,8.1138,8.1085,8.0828,8.0167,7.8993,7.8185,7.8626,7.8212,7.8761,8.1701,8.3724,8.5282,8.6428,8.7832,8.8158,8.6611,8.668,8.6995,8.7362,8.7068,8.7178,8.7968,8.7325,8.7031,8.7509,8.828,8.8519,8.8078,8.8482,8.8519,8.8042,8.7675,8.7675,8.8042,8.7344,8.7161,8.7509,8.7178,8.6978,8.6978,8.6978,8.7198,8.7509,8.7124,8.7198,8.7456,8.6939,8.6369,8.5569,8.3825,8.282,8.1965,8.0106,7.9456,7.9286,7.8339,7.8,7.8,7.8,7.8,7.8147,7.8766,7.886,7.9037,8.0334,8.0549,8.079,8.2022,8.2342,8.253,8.3114,8.3251,8.3104,8.2663,8.2223,8.1893,8.1893,8.2296,8.2443,8.1966,8.2296,8.2296,8.1489,8.0477,7.9816,7.9816,7.9816,7.9816,7.9816,7.9978,7.9887,7.9432,7.8724,7.81,7.7613,7.7018,7.6399,7.5857,7.6554,7.646,7.5496,7.6284,7.6487,7.6115,7.6961,7.7367,7.6995,7.7729,7.8316,8.0445,8.1012,8.0791,8.0,8.0167,7.9931,7.7876,7.7289,7.7252,7.7582,7.7619,7.8683,8.1856,8.4278,8.6371,8.7986,8.8886,8.94,8.94,8.8793,8.8647,8.9326,8.8776,8.8647,8.9363,8.8867,8.8463,8.8353,8.9106,8.9546,8.9546,8.9473,8.94,8.94,8.872,8.872,8.9363,8.7968,8.7675,8.8353,8.7638,8.7308,8.7308,8.7308,8.7638,8.8169,8.7565,8.7619,8.7972,8.7114,8.6714,8.646,8.4929,8.4341,8.4058,8.213,8.1452,8.1114,7.8982,7.8305,7.833,7.8467,7.8516,7.8555,7.8883,7.9591,8.0295,8.057,8.1901,8.317,8.3336,8.4022,8.4609,8.4609,8.4609,8.4609,8.4609,8.4609,8.4609,8.4609,8.4609,8.4609,8.4609,8.4609,8.4302,8.3434,8.1554,8.0293,8.0293,8.0145,8.0101,8.019,8.0458,8.0255,7.9498,7.8967,7.8286,7.7416,7.7161,7.7063,7.7063,7.7671,7.8,7.8,7.8102,7.817,7.8145,7.8373,7.844,7.8883,7.9837,8.0445,8.0901,8.1012,8.0791,8.0,7.8846,7.8023,7.8332,7.7268,7.6937,7.8993,7.9376,8.0204,8.2757,8.4646,8.6371,8.7986,8.8886,8.94,8.94,8.929,8.9253,8.94,8.9253,8.9253,8.94,8.9877,8.9877,8.9216,8.995,9.0391,9.0391,8.9767,8.94,8.94,8.9253,8.9253,8.94,8.9106,8.9069,8.9179,8.9033,8.8996,8.8996,8.8996,8.8666,8.8243,8.8776,8.8262,8.7344,8.8434,8.8453,8.7706,8.6154,8.5591,8.5242,8.2977,8.2205,8.1968,8.0344,7.9803,7.9969,8.0929,8.1226,8.1632,8.3511,8.349,8.3344,8.5221,8.4825,8.415,8.5093,8.4948,8.4609,8.4609,8.4609,8.4609,8.4609,8.4609,8.4609,8.4609,8.4609,8.4609,8.4609,8.4609,8.4227,8.3121,8.2871,8.2757,8.2757,8.1916,8.1618,8.2287,8.1575,8.0673,7.9631,7.9468,7.8948,7.7924,7.7827,7.7807,7.7807,7.7933,7.8,7.8,7.8619,7.8923,7.8957,8.0141,8.0741,7.9984,8.1012,8.1636,8.1636,8.1929,8.1583,7.9066,7.8222,7.7635,7.6313,7.5726,7.5983,7.7561,7.8222,7.9176,8.1195,8.2884,8.4792,8.7215,8.828,8.9216,9.0519,9.0665,9.0665,9.0665,9.0665,9.0665,9.0665,9.1033,9.0886,9.006,9.0812,9.1216,9.1216,9.0849,9.0665,9.0665,9.0207,9.0207,9.0629,8.9803,8.962,8.9987,8.9583,8.94,8.94,8.94,8.94,8.9454,8.94,8.9179,8.8887,8.9018,8.8848,8.8309,8.6719,8.6149,8.5857,8.3713,8.3381,8.3625,8.1894,8.1359,8.1546,8.2731,8.31,8.3474,8.5173,8.5708,8.5901,8.655,8.6793,8.6903,8.7001,8.7068,8.7088,8.7088,8.7088,8.7088,8.7088,8.7088,8.7088,8.7088,8.7088,8.6877,8.6265,8.5828,8.5005,8.3419,8.3017,8.2711,8.2315,8.175,8.16,8.1977,8.1359,8.0577,7.967,7.9438,7.8948,7.8059,7.872,7.9126,7.9126,7.9904,8.0276,8.0276,8.0648,8.0818,8.0826,8.1528,8.1866,8.1085,8.2113,8.2663,8.248,8.281,8.2133,7.8206,7.7693,7.7268,7.4515,7.4478,7.527,7.6423,7.7142,7.8133,7.98,8.1138,8.3141,8.65,8.7545,8.8904,9.1473,9.195,9.206,9.206,9.2244,9.2317,9.2317,9.217,9.1803,9.1179,9.173,9.206,9.206,9.1913,9.1803,9.1803,9.1179,9.1179,9.1767,9.0519,9.0244,9.0849,9.0207,8.9913,8.9913,8.9913,9.017,9.0537,9.0097,8.9934,8.9898,8.9294,8.8777,8.8252,8.6884,8.6414,8.6148,8.4359,8.4361,8.4923,8.3354,8.2852,8.2997,8.421,8.4577,8.4844,8.6311,8.7364,8.7923,8.7288,8.8252,8.9253,8.861,8.8923,8.94,8.94,8.94,8.9328,8.9057,8.922,8.9328,8.9057,8.922,8.9002,8.7778,8.7099,8.5993,8.3907,8.312,8.2435,8.1533,8.1237,8.1232,8.1584,8.0994,8.0337,7.9752,7.9635,7.9295,7.8745,7.9972,8.0682,8.0682,8.1832,8.2408,8.2408,8.272,8.2787,8.2644,8.3152,8.3287,8.272,8.3765,8.4205,8.3454,8.281,8.1452,7.8133,7.6827,7.6056,7.5014,7.483,7.5601,7.7928,7.8442,7.8993,8.0645,8.1012,8.248,8.6427,8.7051,8.828,9.1436,9.2501,9.2978,9.2978,9.3639,9.4079,9.4079,9.3382,9.2941,9.2868,9.2941,9.2978,9.2978,9.2207,9.1803,9.1803,9.173,9.173,9.1803,9.1657,9.162,9.1693,9.162,9.1583,9.1583,9.1583,9.1216,9.0665,9.1326,9.0132,8.8012,8.9376,8.8754,8.7117,8.661,8.6414,8.6217,8.4946,8.4558,8.463,8.4464,8.4242,8.4223,8.539,8.5746,8.6225,8.8465,8.9166,8.9238,8.9165,8.9255,8.9363,8.9326,8.9363,8.94,8.94,8.94,8.9057,8.799,8.8634,8.9039,8.7935,8.8653,8.9002,8.7778,8.7548,8.6653,8.4344,8.4003,8.3538,8.2394,8.1355,8.1309,8.272,8.1229,8.0215,8.0148,8.0758,8.108,8.1012,8.1765,8.2205,8.2205,8.234,8.2408,8.2408,8.3734,8.4039,8.3456,8.552,8.6129,8.226,8.3985,8.5123,8.4315,8.3875,8.281,7.958,7.8185,7.7231,7.5909,7.5616,7.6093,7.7546,7.7803,7.8023,7.8683,7.8757,7.9858,8.2941,8.4225,8.6023,8.9234,9.1216,9.2537,9.3051,9.3822,9.4299,9.4299,9.4006,9.4042,9.452,9.3639,9.3088,9.3088,9.2758,9.2317,9.1803,9.2317,9.2574,9.2574,9.3051,9.3051,9.2611,9.3088,9.3051,9.2611,9.3088,9.2831,9.2134,9.2464,9.1619,9.0185,9.0842,9.0592,8.9774,8.8907,8.8579,8.8402,8.7198,8.7246,8.7723,8.7008,8.7186,8.7655,8.7369,8.7785,8.8706,9.0391,9.0849,9.0739,9.0244,9.0097,9.0244,9.0739,9.0849,9.0849,9.0849,9.0849,9.0685,9.0224,9.0941,9.1215,8.9967,9.0561,9.0403,8.7959,8.7193,8.6137,8.4008,8.3371,8.3066,8.3069,8.2258,8.198,8.2585,8.197,8.1528,8.1528,8.1799,8.1968,8.1968,8.2678,8.305,8.305,8.3498,8.3964,8.4437,8.5046,8.5418,8.5587,8.6501,8.6738,8.2333,8.4315,8.5654,8.5086,8.4609,8.3471,8.0477,7.8993,7.7818,7.6387,7.6093,7.635,7.7142,7.7289,7.7289,7.7289,7.7289,7.8243,8.0975,8.2133,8.3858,8.7105,8.9197,9.0886,9.2244,9.3969,9.4923,9.4666,9.4666,9.4887,9.5455,9.4446,9.3822,9.3822,9.3088,9.2648,9.2537,9.2905,9.3235,9.3455,9.4042,9.4006,9.3455,9.4042,9.3969,9.3492,9.4042,9.3969,9.3455,9.3198,9.2518,9.1669,9.1669,9.1067,9.0143,8.9535,8.9066,8.8645,8.7808,8.8205,8.8954,8.8076,8.8886,8.9944,8.8727,8.9124,9.03,9.1783,9.1987,9.1657,9.1106,9.1143,9.1473,9.206,9.2354,9.2537,9.2537,9.2223,9.1884,9.1501,9.1915,9.1917,9.0687,9.1203,9.094,8.8306,8.7463,8.6469,8.4725,8.4065,8.3862,8.4133,8.393,8.3456,8.278,8.2746,8.2644,8.2382,8.305,8.3219,8.2746,8.3862,8.4403,8.4167,8.4884,8.5554,8.6129,8.6332,8.6602,8.6913,8.7347,8.755,8.3691,8.5159,8.58,8.5783,8.4609,8.2757,8.0367,7.8516,7.7069,7.6276,7.6093,7.635,7.7142,7.7289,7.7289,7.7289,7.7289,7.8427,8.1746,8.1525,8.2223,8.5433,8.6554,8.7968,9.0391,9.4299,9.6355,9.5528,9.5492,9.5492,9.5492,9.5474,9.5493,9.5455,9.3088,9.2611,9.4263,9.3492,9.3492,9.4299,9.4299,9.4299,9.4299,9.4299,9.4299,9.4299,9.4299,9.4299,9.4226,9.3418,9.2393,9.1331,9.1331,8.9312,8.6567,8.7414,8.6937,8.5838,8.5811,8.6318,8.6928,8.69,8.8584,9.0351,8.91,8.9302,9.0445,9.2515,9.2464,9.1803,9.1803,9.2427,9.3088,9.3088,9.3675,9.4263,9.4263,9.3287,9.205,9.0834,9.056,9.0141,8.8926,8.9724,9.0105,8.8886,8.8685,8.8235,8.7003,8.6873,8.6602,8.5824,8.6433,8.596,8.3693,8.349,8.3186,8.2475,8.4505,8.5107,8.3558,8.5655,8.6535,8.579,8.6501,8.6907,8.6907,8.7617,8.7617,8.6941,8.8395,8.91,8.0718,8.2313,8.3324,8.3324,8.2553,8.1415,8.011,7.8956,7.7965,7.7105,7.6922,7.6995,7.7252,7.7289,7.7509,7.8112,7.8185,7.8552,7.958,8.1415,8.3014,8.4058,8.8316,9.1913,9.3767,9.5621,9.6575,9.6355,9.5804,9.5749,9.6282,9.4777,9.4373,9.5455,9.474,9.4336,9.4299,9.4593,9.4868,9.5144,9.5694,9.5658,9.5144,9.5694,9.5658,9.5144,9.5694,9.5143,9.3869,9.4472,9.3686,9.2042,9.2042,9.1419,9.0428,8.9835,8.935,8.9012,8.9012,8.9162,8.9518,9.0363,9.1163,9.2008,9.3031,9.2553,9.178,9.2453,9.2445,9.2387,9.3268,9.3712,9.3932,9.3932,9.4116,9.4074,9.3187,9.2667,9.2044,9.0743,9.0974,9.0904,8.9675,9.0218,9.0275,8.8487,8.8204,8.7905,8.7029,8.6907,8.6805,8.6569,8.6771,8.6399,8.5182,8.552,8.5723,8.5493,8.6163,8.6332,8.5858,8.6535,8.6805,8.6569,8.6771,8.7144,8.7651,8.7888,8.8125,8.8395,8.8897,8.91,7.947,8.0975,8.1819,8.2113,8.1379,8.0424,7.9926,7.8919,7.7949,7.7399,7.7289,7.7289,7.7289,7.7289,7.7472,7.8038,7.8112,7.8222,7.8552,8.0351,8.2023,8.3271,8.8299,9.2336,9.3969,9.5694,9.6575,9.6282,9.5804,9.5712,9.6208,9.452,9.4299,9.5914,9.507,9.4813,9.518,9.5401,9.5639,9.5951,9.6465,9.6428,9.5969,9.6465,9.6179,9.5274,9.5768,9.4954,0.0,9.3865,9.3284,9.2114,9.2114,9.1671,9.0928,9.0446,8.9986,8.9543,8.9543,9.0038,9.0842,9.1619,9.1872,9.2228,9.3982,9.4058,9.3526,9.3199,9.2786,9.2688,9.3961,9.3798,9.3425,9.3919,9.3918,9.3535,9.2776,9.2211,9.1642,9.0831,9.0692,9.0543,9.004,9.0353,9.029,8.9008,8.8835,8.8564,8.782,8.7719,8.7617,8.7347,8.755,8.755,8.7103,8.7211,8.7211,8.6941,8.7414,8.7482,8.6941,8.7448,8.7617,8.7313,8.7583,8.8091,8.8835,8.9106,8.9478,8.9918,8.9918,8.9918,0.0,8.0645,8.0828,8.1636,8.0718,7.9633,7.9633,7.8442,0.0,7.7289,7.7289,7.7289,7.7252,7.7215,7.7215,7.7215,7.7252,7.7582,7.8405,7.8772,8.0167,8.3454,8.7271,9.028,9.184,9.485,9.6392,9.5639,9.5565,9.5565,9.5565,9.4813,9.5107,9.6649,9.4371,9.4298,9.6685,9.5951,9.5951,9.6685,9.6685,9.6647,9.657,9.657,9.5887,9.4677,9.4677,9.3945,9.2707,9.2047,9.1741,9.1647,9.1647,9.0506,8.8927,8.9604,8.9114,8.8091,8.8091,8.9299,9.0893,9.0971,9.1074,9.1372,9.2539,9.392,9.4921,9.425,9.3211,9.2583,9.3896,9.2998,9.209,9.3266,9.3229,9.2873,9.2778,9.184,9.0971,9.0962,8.9976,8.941,9.0154,9.029,9.029,9.029,9.029,9.0019,8.9342,8.9235,8.8903,8.8226,8.8767,8.9201,8.9201,8.8531,8.7888,8.7245,8.8497,8.8632,8.7279,8.8531,8.8903,8.826,8.8903,8.9579,9.029,9.0966,9.1305,9.1305,9.1305,9.1305,7.6607,0.0,7.7451,7.8243,7.817,7.7876,0.0,7.7582,7.7289,7.7289,7.7289,7.7105,7.6497,7.6387,7.6387,7.6387,7.6885,7.7362,7.7582,8.0298,8.3675,8.7528,9.0501,9.2611,9.3602,9.5511,9.6612,9.6428,9.6428,9.6428,9.6428,9.5658,9.5658,9.6685,9.462,9.4507,9.6666,9.6502,9.6502,9.6685,9.6685,9.6183,9.5259,9.5259,9.4532,9.334,9.334,9.2611,9.1515,9.2314,9.2051,9.117,9.117,9.0862,9.0348,8.9566,8.9073,8.8835,8.8835,8.9154,8.9724,9.0658,9.1665,9.2515,9.2802,9.1824,9.0753,9.1572,9.1551,9.1624,9.2898,9.2949,9.2684,9.2986,9.2966,9.2635,9.1665,9.1219,9.0857,9.0474,9.0143,9.0188,9.0899,9.1034,9.1034,9.1034,9.1034,9.0966,9.0797,9.029,8.9884,8.9715,8.985,8.9951,8.9951,8.9782,8.985,9.0256,9.0594,9.0628,9.029,9.0594,9.0696,9.0527,9.0696,9.0865,9.1034,9.1203,9.1305,9.1305,9.1305,9.1305,7.5763,7.6093,7.6276,7.7105,7.7032,7.6738,7.6738,7.6445,7.6188,7.6188,7.6188,7.6078,7.5652,7.5542,7.5689,7.6056,7.646,7.7399,7.9286,8.1766,8.5032,8.9436,9.1803,9.3565,9.474,9.5988,9.6539,9.6171,9.6171,9.5886,9.5304,9.4535,9.433,9.494,9.3502,9.3719,9.581,9.5244,9.4955,9.4955,9.4955,9.4576,9.3922,9.3922,9.3224,9.2038,9.2038,9.1321,9.0197,9.0858,9.0944,9.0596,9.0253,9.0356,9.0522,8.9481,8.91,8.91,8.91,8.9477,9.0197,9.1439,9.1964,9.2073,9.2424,9.1149,8.9993,9.1868,9.2214,9.2313,9.3572,9.303,9.2304,9.2915,9.2586,9.1975,9.1307,9.1145,9.1036,9.0736,9.0696,9.0932,9.1677,9.1812,9.1812,9.1812,9.1812,9.1677,9.1338,9.0966,9.0696,9.0696,9.0696,9.0831,9.1174,9.1208,9.1237,9.1305,9.1305,9.1305,9.1305,9.1305,9.1305,9.1305,9.1643,9.1812,9.1812,9.2184,9.2353,9.2353,9.2353,9.2353,7.5652,7.5909,7.613,7.7069,7.6702,7.613,7.6276,7.5564,7.494,7.505,7.4977,7.4903,7.4903,7.4903,7.516,7.5983,7.6423,7.8038,8.2003,8.3361,8.5656,9.0262,9.2281,9.3859,9.5345,9.6054,9.6123,9.5445,9.5216,9.4629,9.3546,9.2848,9.2607,9.2908,9.2047,9.2446,9.4226,9.334,9.2896,9.2896,9.2896,9.2802,9.2611,9.2611,9.1915,9.0684,9.0684,9.0089,8.91,8.91,8.9512,9.0154,8.9512,8.9647,9.0154,8.9613,8.9303,8.91,8.91,8.9799,9.0893,9.2094,9.1739,9.1029,9.1754,9.1303,9.1001,9.3142,9.3346,9.3168,9.4267,9.2901,9.1551,9.2638,9.2108,9.1305,9.1305,9.1305,9.1338,9.144,9.1474,9.1711,9.2426,9.2561,9.2561,9.2561,9.2561,9.2387,9.1711,9.1541,9.1474,9.1474,9.1474,9.1711,9.2358,9.2595,9.2455,9.1711,9.1643,9.1643,9.1643,9.1643,9.1643,9.1643,9.2286,9.2561,9.259,9.3368,9.3774,9.3774,9.3774,9.3774,7.4683,7.5087,7.5454,7.6922,7.6702,7.6276,7.6959,7.5968,7.5087,7.5799,7.538,7.4903,7.4903,7.4903,7.516,7.5983,7.7855,8.0388,8.3765,8.551,8.7711,9.1216,9.3088,9.4483,9.5418,9.5235,9.5061,9.4916,9.39,9.3208,9.3024,9.2894,9.2836,9.292,9.1735,9.1258,9.1565,9.2442,9.2896,9.2896,9.2896,9.2321,9.1296,9.1296,9.0614,8.94,8.94,8.9261,8.91,8.91,8.9512,9.0188,9.0087,9.0121,9.0256,9.0763,9.0154,8.91,8.91,8.924,8.953,9.0364,9.0457,9.0459,9.1206,9.1714,9.2141,9.2561,9.2158,9.1636,9.1828,9.158,9.1362,9.1557,9.1443,9.1305,9.1305,9.1305,9.1474,9.2087,9.2223,9.2489,9.3267,9.3402,9.3402,9.3402,9.3402,9.3368,9.3233,9.2658,9.2223,9.2223,9.2223,9.2257,9.2392,9.3575,9.4045,9.3267,9.3262,9.3262,9.3262,9.3262,9.3262,9.3262,9.3334,9.3402,9.3402,9.418,9.4552,9.4552,9.4552,9.4552,7.4683,7.4903,7.527,7.6922,7.6702,7.6203,7.657,7.5432,7.4368,7.4735,7.4147,7.3744,7.4184,7.4955,7.624,7.8405,8.0424,8.2737,8.5527,8.6921,8.9014,9.2721,9.3219,9.3776,9.5013,9.4295,9.3787,9.3787,9.3224,9.2611,9.1915,9.189,9.1565,9.0858,9.0269,8.9989,8.9989,9.0526,9.0867,9.0867,9.0867,9.0526,8.9989,9.0372,9.0017,8.9134,8.9512,8.9444,8.9134,8.9512,9.0121,9.0763,9.0357,9.0459,9.0729,9.0256,8.9709,8.9168,8.9545,8.9681,8.9816,9.056,9.0797,9.0932,9.1677,9.2121,9.2493,9.2928,9.2793,9.2522,9.2522,9.2522,9.2522,9.2522,9.2522,9.2522,9.2522,9.2522,9.2624,9.2962,9.3064,9.3165,9.3567,9.3601,9.374,9.4112,9.418,9.418,9.418,9.3876,9.3643,9.3643,9.33,9.3233,9.3609,9.4315,9.4552,9.4214,9.418,9.4011,9.3634,9.4379,9.4586,9.4214,9.4586,9.4789,9.4789,9.5127,9.5296,9.5296,9.5296,9.5296,7.483,7.4757,7.5014,7.6628,7.6408,7.6019,7.679,7.5542,7.4331,7.4515,7.3891,7.3523,7.4147,7.5909,7.8148,8.0828,8.2941,8.5032,8.7234,8.8243,9.0025,9.3446,9.299,9.289,9.4236,9.3201,9.2442,9.2442,9.2175,9.159,9.0614,9.0561,9.0089,8.9128,8.91,8.91,8.91,8.9241,8.9241,8.91,8.91,8.91,8.9134,8.9681,8.9613,8.9168,8.9884,8.9782,8.9168,8.9918,9.0628,9.1237,9.0493,9.0763,9.1406,9.0087,8.9715,8.9918,9.0324,9.0459,9.0594,9.1338,9.1575,9.1711,9.2455,9.2692,9.2861,9.3639,9.3842,9.3808,9.3639,9.3601,9.3601,9.3601,9.3601,9.3601,9.3601,9.3601,9.3668,9.3808,9.3842,9.3842,9.3842,9.3842,9.4045,9.462,9.4721,9.4755,9.4958,9.4958,9.4958,9.4958,9.4451,9.4417,9.5161,9.506,9.5026,9.5195,9.506,9.4687,9.4112,9.5195,9.5533,9.4992,9.5499,9.5804,9.5804,9.5973,9.6041,9.6041,9.6041,9.6041,7.4683,7.4368,7.4147,7.5799,7.5579,7.5784,7.8862,7.7671,7.613,7.6885,7.6408,7.5873,7.5909,7.8516,8.0975,8.1929,8.4719,8.7308,8.8996,8.9913,9.0958,9.2378,9.246,9.259,9.3013,9.189,9.1117,9.1117,9.0036,8.9317,8.9268,8.924,8.9212,8.91,8.91,8.91,8.91,8.9782,8.9782,8.91,8.91,8.91,8.91,8.9168,8.9168,8.9168,8.9884,8.9782,8.9168,8.9918,9.0628,9.1237,9.0493,9.1068,9.2223,9.144,9.1575,9.2054,9.144,9.1203,9.1338,9.2054,9.2324,9.2459,9.3267,9.3503,9.3673,9.4417,9.462,9.4451,9.3774,9.3601,9.3601,9.3601,9.3601,9.3601,9.3601,9.3601,9.3774,9.4485,9.462,9.462,9.462,9.462,9.4654,9.4687,9.4721,9.4958,9.5635,9.5702,9.5702,9.5702,9.5669,9.5939,9.668,9.6108,9.6007,9.6714,9.6074,9.5702,9.5635,9.5736,9.577,9.5702,9.577,9.5804,9.5804,9.6511,9.6849,9.6849,9.6849,9.6849,7.4074,7.3927,7.4089,7.5689,7.5873,7.6387,7.9192,7.8699,7.8038,7.9307,7.8552,7.7818,7.8295,8.0241,8.2333,8.4148,8.6738,8.8635,8.899,8.9713,9.0477,9.1193,9.0572,9.0548,9.1626,9.0587,8.9799,8.9799,8.9373,8.91,8.91,8.91,8.91,8.91,8.9545,8.9782,8.9782,9.0527,9.0729,9.0459,8.9985,9.0019,9.0425,8.9985,8.9782,8.9816,9.0087,9.0053,8.9816,9.0087,9.0899,9.1981,9.1682,9.1643,9.1677,9.1406,9.1474,9.1744,9.1947,9.1952,9.2116,9.2895,9.3131,9.3199,9.3533,9.3601,9.3668,9.3943,9.4011,9.4045,9.4248,9.462,9.4857,9.4383,9.4282,9.4282,9.4282,9.4282,9.4383,9.4654,9.506,9.5364,9.5364,9.5364,9.5533,9.6007,9.6074,9.6176,9.6477,9.648,9.648,9.648,9.648,9.6612,9.6883,9.6646,9.6785,9.7529,9.6886,9.6277,9.5804,9.6683,9.6954,9.648,9.692,9.7157,9.7157,9.7461,9.7597,9.7597,9.7597,9.7597,7.4147,7.3891,7.4089,7.5689,7.5909,7.657,7.9816,7.9947,7.9727,8.1085,8.0314,7.9433,7.9743,8.1305,8.3214,8.5086,8.7355,8.8905,8.9148,8.9533,8.9863,8.9976,8.9433,8.9397,9.0291,8.9614,8.91,8.91,8.91,8.91,8.91,8.91,8.91,8.91,8.9816,9.0087,8.985,9.0797,9.1169,9.0966,9.0459,9.0594,9.1271,9.0527,9.0222,9.0222,9.0459,9.029,8.9884,9.0357,9.1,9.1783,9.2522,9.2319,9.1677,9.1913,9.2015,9.2083,9.2624,9.2793,9.2861,9.3402,9.3601,9.3601,9.3601,9.3601,9.3668,9.3876,9.4112,9.4383,9.4924,9.5263,9.5364,9.5127,9.506,9.506,9.506,9.506,9.506,9.506,9.5635,9.6007,9.5533,9.5635,9.5973,9.648,9.6548,9.6717,9.7191,9.7225,9.7225,9.7225,9.7225,9.7225,9.7225,9.7225,9.7461,9.7969,9.7529,9.7022,9.6514,9.7461,9.7766,9.7258,9.7732,9.8003,9.8003,9.8003,9.8003,9.8003,9.8003,9.8003,7.5124,7.4331,7.4111,7.5689,7.5542,7.6225,8.1085,8.1562,8.1269,8.2076,8.1599,8.0791,8.0,8.1819,8.3675,8.4482,8.6281,8.8162,8.9749,8.962,8.9213,8.8767,8.9318,8.9629,8.911,8.91,8.91,8.91,8.91,8.91,8.91,8.91,8.91,8.91,8.9816,8.985,8.9134,9.056,9.0932,9.0222,9.0222,9.0594,9.1271,9.0527,9.0188,9.0256,9.0966,9.0459,8.9235,9.0696,9.0865,9.0459,9.2692,9.3098,9.2493,9.33,9.3601,9.3601,9.3601,9.3601,9.3601,9.3601,9.3601,9.3601,9.3601,9.3601,9.374,9.4485,9.5229,9.5804,9.5804,9.5263,9.4924,9.5635,9.5804,9.5804,9.5804,9.5804,9.5804,9.5804,9.6379,9.6477,9.4992,9.533,9.5804,9.5804,9.5804,9.6345,9.7834,9.8003,9.8003,9.8003,9.8003,9.8003,9.8003,9.8003,9.8003,9.8003,9.8003,9.8003,9.8003,9.8003,9.8003,9.8003,9.8003,9.8003,9.8003,9.8003,9.8003,9.8003,9.8003,9.8003,7.4258,7.4294,7.4808,7.5836,7.7231,7.9029,8.1599,8.2003,8.2553,8.5049,8.4499,8.3471,8.3214,8.3765,8.4408,8.4954,8.648,8.7577,8.7489,8.7874,8.7954,8.7485,8.8075,8.8695,8.906,8.91,8.91,8.91,8.91,8.91,8.91,8.91,8.91,8.91,8.9816,9.0087,8.9884,9.0831,9.1169,9.0966,9.0966,9.1102,9.1271,8.9985,8.9715,9.0222,9.0425,9.056,9.0763,9.2286,9.215,9.1135,9.2895,9.3436,9.3267,9.3503,9.3601,9.3601,9.3601,9.3601,9.3601,9.3601,9.3601,9.3601,9.3601,9.3601,9.374,9.4485,9.4857,9.5263,9.6277,9.6379,9.6277,9.6545,9.6548,9.6548,9.6548,9.6548,9.6548,9.6548,9.7157,9.7529,9.7123,9.7225,9.736,9.736,9.736,9.7529,9.7935,9.8003,9.8003,9.8003,9.8003,9.8003,9.8003,9.8003,9.8003,9.8003,9.8003,9.8003,9.8003,9.8003,9.8003,9.8003,9.8003,9.8003,9.8003,9.8003,9.8003,9.8003,9.8003,9.8003,7.4771,7.5249,7.6114,7.7268,7.8678,8.0477,8.303,8.3875,8.4756,8.7031,8.6701,8.593,8.56,8.5419,8.5391,8.5642,8.6204,8.6713,8.6853,8.7124,8.7336,8.7355,8.7989,8.8598,8.9066,8.91,8.9207,8.9512,8.9545,8.9545,8.9545,8.9545,8.9376,8.9134,8.9816,9.0053,8.9782,9.0493,9.0729,9.0425,9.0425,9.0425,9.0425,9.0087,9.0053,9.0188,8.9884,9.0188,9.0966,9.2184,9.2116,9.144,9.2996,9.3601,9.3601,9.3601,9.3601,9.3601,9.3601,9.3601,9.3601,9.3601,9.3601,9.3601,9.3601,9.3774,9.4112,9.4586,9.5127,9.577,9.668,9.7089,9.7326,9.7326,9.7326,9.7326,9.7326,9.7326,9.7225,9.6985,9.7495,9.7834,9.7225,9.736,9.7563,9.7563,9.78,9.8003,9.8003,9.8003,9.8003,9.8003,9.8273,9.8307,9.8037,9.8273,9.8307,9.8037,9.8003,9.8003,9.8003,9.8003,9.8003,9.8003,9.8003,9.8003,9.8003,9.8003,9.8003,9.8003,9.8003,9.8003,7.5983,7.6665,7.7839,7.9596,8.0293,8.1542,8.5286,8.6738,8.7528,8.828,8.8283,8.7919,8.7296,8.6714,8.6357,8.6401,8.5787,8.5841,8.7323,8.7238,8.7245,8.7922,8.8632,8.91,8.91,8.9168,8.9478,9.0154,9.0222,9.0222,9.0222,9.0154,8.9782,8.9134,8.9748,8.9782,8.9134,8.9748,8.9748,8.91,8.91,8.91,8.9168,9.0493,9.0763,9.0154,8.9478,8.9579,9.0256,9.1068,9.1372,9.144,9.2996,9.3601,9.3601,9.3601,9.3601,9.3601,9.3601,9.3601,9.3601,9.3601,9.3601,9.3634,9.3702,9.418,9.4755,9.4857,9.5872,9.6917,9.6985,9.7495,9.8003,9.8003,9.8003,9.8003,9.8003,9.8003,9.78,9.7123,9.7529,9.7563,9.621,9.6548,9.7018,9.7018,9.7563,9.8003,9.8003,9.807,9.8104,9.8104,9.8713,9.8815,9.8172,9.8645,9.8713,9.8037,9.8003,9.8003,9.8003,9.8003,9.8003,9.8003,9.8003,9.8003,9.8003,9.8003,9.8003,9.8003,9.8003,9.8003,7.516,7.6717,7.8846,8.1122,8.4058,8.6775,8.8262,8.9253,8.9877,9.0041,8.8835,8.7882,8.8316,8.7054,8.602,8.6336,8.6265,8.6347,8.6958,8.7471,8.782,8.7989,8.8632,8.91,8.91,8.9613,9.0019,9.0188,9.0222,9.0222,9.0222,8.9647,8.9269,8.9134,8.9241,8.9269,8.91,8.9269,8.9269,8.91,8.91,8.91,8.9134,8.9438,8.9782,9.0188,9.0019,9.0053,9.0324,9.1643,9.1812,9.144,9.2996,9.3601,9.3601,9.3601,9.3601,9.3601,9.3601,9.3601,9.3601,9.3601,9.3601,9.3706,9.4282,9.4586,9.4958,9.6074,9.668,9.7052,9.7597,9.7867,9.8003,9.8003,9.8003,9.8003,9.8003,9.8003,9.7969,9.78,9.7901,9.7901,9.7597,9.7664,9.7766,9.7766,9.7901,9.8003,9.8003,9.851,9.8848,9.8848,9.9018,9.9018,9.8882,9.8476,9.8172,9.8037,9.8003,9.8003,9.8003,9.8003,9.8003,9.8003,9.8003,9.8003,9.8003,9.8003,9.8003,9.8003,9.8003,9.8003,7.5858,7.7839,8.0498,8.3691,8.6958,8.9454,8.9877,9.0135,9.0307,9.0307,8.9481,8.8705,8.8541,8.751,8.6707,8.6948,8.6781,8.6828,8.7327,8.7753,8.8125,8.8463,8.8897,8.91,8.91,8.9782,9.0222,9.0222,9.0836,9.0966,9.0256,9.0154,8.9844,8.9134,8.91,8.91,8.91,8.91,8.91,8.91,8.91,8.91,8.91,8.91,8.9478,9.0188,8.9816,8.9681,8.9782,9.1271,9.1643,9.144,9.2996,9.3601,9.3601,9.3601,9.3601,9.3601,9.3601,9.3808,9.4112,9.4112,9.4349,9.4721,9.5093,9.5466,9.5905,9.668,9.7123,9.7529,9.7901,9.8003,9.8003,9.8003,9.8003,9.8003,9.8003,9.8003,9.8003,9.8003,9.8003,9.8003,9.8003,9.8003,9.8003,9.8003,9.8003,9.8003,9.8003,9.8341,9.8578,9.8578,9.8882,9.895,9.8612,9.8544,9.8375,9.8037,9.8003,9.8003,9.8003,9.8003,9.8003,9.8003,9.8003,9.8003,9.8003,9.8003,9.8003,9.8003,9.8003,9.8003,7.6665,7.9417,8.2737,8.6464,8.9055,9.0649,9.0521,9.0196,8.9836,8.9626,8.9605,8.9271,8.8278,8.776,8.7527,8.7665,8.7356,8.7347,8.8091,8.8192,8.8395,8.9032,8.9235,8.9275,8.9275,9.0087,9.0594,9.0594,9.158,9.1677,9.0459,9.0729,9.0357,8.9134,8.91,8.91,8.91,8.91,8.91,8.91,8.91,8.91,8.91,8.91,8.941,8.9985,8.9342,8.914,8.9376,9.0729,9.1372,9.1643,9.303,9.3601,9.3601,9.3601,9.3601,9.3601,9.3601,9.4079,9.4721,9.4721,9.5195,9.5804,9.5804,9.6311,9.6917,9.6917,9.7428,9.8003,9.8003,9.8003,9.8003,9.8003,9.8003,9.8003,9.8003,9.8003,9.8003,9.8003,9.8003,9.8003,9.8003,9.8003,9.8003,9.8003,9.8003,9.8003,9.8003,9.8104,9.8206,9.8206,9.8747,9.8848,9.824,9.8612,9.8645,9.8037,9.8003,9.8003,9.8003,9.8003,9.8003,9.8003,9.8003,9.8003,9.8003,9.8003,9.8003,9.8003,9.8003,9.8003,7.5836,8.0608,8.5783,8.8409,9.0127,9.0947,9.0244,8.9771,8.9194,8.8128,8.7945,8.7896,8.7701,8.7289,8.7213,8.7824,8.7863,8.8091,8.8863,8.8965,8.8998,8.91,8.9647,9.0053,9.0053,9.1276,9.2087,9.2087,9.1711,9.1372,9.1169,9.0019,8.9303,8.9134,8.91,8.91,8.91,8.91,8.91,8.91,8.91,8.91,8.91,8.91,8.9168,8.9269,8.9168,8.9444,9.0121,9.0966,9.1677,9.2324,9.3233,9.3601,9.3601,9.3601,9.3601,9.3601,9.3601,9.4079,9.4721,9.4721,9.5195,9.5804,9.5804,9.6311,9.6917,9.6917,9.7428,9.8003,9.8003,9.8003,9.8003,9.8003,9.8003,9.8003,9.8003,9.8003,9.8003,9.8003,9.8003,9.8003,9.8003,9.8003,9.8003,9.8003,9.8003,9.8003,9.8003,9.8544,9.895,9.895,9.9051,9.9051,9.895,9.8476,9.8104,9.8003,9.8003,9.8003,9.8003,9.8003,9.8003,9.8003,9.8003,9.8003,9.8003,9.8003,9.8003,9.8003,9.8003,9.8003,7.7671,8.1318,8.4754,8.8222,8.9286,8.9435,8.9078,8.8679,8.8254,8.7701,8.7719,8.7686,8.7275,8.7382,8.7617,8.7955,8.8328,8.8734,8.9066,8.91,8.9241,8.9681,9.0019,9.0357,9.0763,9.1778,9.2223,9.1812,9.2286,9.2015,9.0763,9.0459,8.9951,8.9134,8.91,8.91,8.91,8.91,8.91,8.91,8.91,8.91,8.91,8.91,8.9337,8.9715,8.9715,9.0121,9.0865,9.1609,9.2116,9.2459,9.3267,9.3601,9.3601,9.3601,9.3601,9.3601,9.3601,9.4349,9.533,9.533,9.6108,9.7022,9.7022,9.7258,9.7529,9.7529,9.7766,9.8003,9.8003,9.8003,9.8003,9.8003,9.8003,9.8003,9.8003,9.8003,9.8003,9.8003,9.8003,9.8003,9.8003,9.8003,9.8003,9.8003,9.8003,9.8003,9.8003,9.8273,9.8476,9.8476,9.8476,9.8476,9.8476,9.8206,9.8003,9.8003,9.8003,9.8003,9.8003,9.8003,9.8003,9.8003,9.8003,9.8003,9.8003,9.8003,9.8003,9.8003,9.8003,9.8003,7.7267,7.9753,8.1769,8.5912,8.7066,8.7276,8.7676,8.7593,8.7486,8.7658,8.7875,8.7888,8.7516,8.7922,8.8328,8.8531,8.8835,8.9235,8.9607,8.9337,8.9342,9.0121,9.0391,9.0696,9.1237,9.215,9.2489,9.1913,9.2759,9.2556,9.0865,9.0932,9.0527,8.941,8.9201,8.91,8.91,8.91,8.91,8.91,8.91,8.91,8.91,8.91,8.9579,9.0493,9.029,9.0729,9.1609,9.2155,9.2493,9.2759,9.3368,9.3601,9.3601,9.3601,9.3601,9.3601,9.3601,9.4552,9.5804,9.5804,9.6785,9.7969,9.7766,9.7867,9.7969,9.7766,9.7867,9.8003,9.8003,9.8003,9.8003,9.8003,9.8003,9.8003,9.8003,9.8003,9.8003,9.8003,9.8003,9.8003,9.8003,9.8003,9.8003,9.8003,9.8003,9.8003,9.8003,9.8003,9.8003,9.8003,9.8003,9.8003,9.8003,9.8003,9.8003,9.8003,9.8003,9.8003,9.8003,9.8003,9.8003,9.8003,9.8003,9.8003,9.8003,9.8003,9.8003,9.8003,9.8003,9.8003,7.1944,7.4307,7.6985,8.0912,8.3138,8.4791,8.6165,8.6731,8.7152,8.7829,8.7977,8.8192,8.8863,8.9032,8.9241,8.9985,8.9512,8.9607,9.1,8.9951,8.9342,9.0121,9.0831,9.1271,9.1305,9.2658,9.3503,9.3499,9.2861,9.2392,9.229,9.1,9.0222,9.0154,8.9444,8.91,8.91,8.91,8.91,8.91,8.91,8.91,8.91,8.91,8.985,9.1203,9.0493,9.1034,9.2358,9.2358,9.2861,9.3567,9.3601,9.3601,9.3601,9.3601,9.3601,9.3601,9.3601,9.4552,9.5804,9.5804,9.6785,9.7867,9.7157,9.7428,9.7867,9.7123,9.7461,9.8003,9.8003,9.8003,9.8003,9.8003,9.8003,9.8003,9.8003,9.8003,9.8003,9.8003,9.8003,9.8003,9.8003,9.8003,9.8003,9.8003,9.8003,9.8003,9.8003,9.8003,9.8003,9.8003,9.8003,9.8003,9.8003,9.8003,9.8003,9.8003,9.8003,9.8003,9.8003,9.8003,9.8003,9.8003,9.8003,9.8003,9.8003,9.8003,9.8003,9.8003,9.8003,9.8003,7.0947,7.2512,7.4442,7.8033,7.9925,8.1331,8.2799,8.4705,8.6399,8.7144,8.8057,8.8903,8.9681,8.9816,8.9884,9.0154,9.0391,9.0696,9.1237,9.0831,9.0797,9.1513,9.188,9.2218,9.2725,9.3296,9.3601,9.3601,9.3334,9.2725,9.1744,9.1643,9.0966,8.9545,8.9681,8.9579,8.91,8.91,8.91,8.91,8.91,8.91,8.9134,8.9579,9.0357,9.1305,9.1541,9.2218,9.3165,9.3165,9.3334,9.3601,9.3601,9.3601,9.3601,9.3601,9.3601,9.3601,9.3601,9.4552,9.5804,9.5804,9.6785,9.7969,9.7698,9.78,9.7935,9.7698,9.78,9.8003,9.8003,9.8003,9.8003,9.8003,9.8003,9.8003,9.8003,9.8003,9.8003,9.8003,9.8003,9.8003,9.8003,9.8003,9.7834,9.736,9.7698,9.7834,9.736,9.7698,9.8003,9.8003,9.8003,9.8003,9.8003,9.8003,9.8003,9.8003,9.8003,9.8003,9.8003,9.8003,9.8003,9.8003,9.8003,9.8003,9.8003,9.8003,9.8003,9.8003,9.8003,9.8003,6.8197,6.9514,7.1365,7.4915,7.6528,7.8077,8.1291,8.3618,8.5452,8.6974,8.8429,8.9613,9.0121,9.0628,9.0938,9.0938,9.1135,9.1474,9.1981,9.1609,9.1575,9.229,9.2392,9.2624,9.3131,9.3436,9.3601,9.3601,9.3601,9.3131,9.2116,9.2049,9.1135,8.9168,8.9579,8.9579,8.91,8.91,8.91,8.91,8.91,8.9235,8.9478,8.9985,9.0763,9.1711,9.2189,9.2861,9.3601,9.3601,9.3601,9.3601,9.3601,9.3601,9.3601,9.3601,9.3601,9.3601,9.3601,9.4383,9.5432,9.5432,9.6277,9.7326,9.7563,9.7631,9.7698,9.7935,9.8003,9.8003,9.8003,9.8003,9.8003,9.8003,9.8003,9.8003,9.8003,9.8003,9.8003,9.8003,9.8003,9.8003,9.8003,9.8003,9.7834,9.7326,9.7698,9.7834,9.7326,9.7698,9.8003,9.8003,9.8003,9.8003,9.8003,9.8003,9.8003,9.8003,9.8003,9.8003,9.8003,9.8003,9.8003,9.8003,9.8003,9.8003,9.8003,9.8003,9.8003,9.8003,9.8003,9.8003,0.0,0.0,0.0,7.1312,7.28,7.5124,8.1697,8.3253,8.4167,8.7245,8.9038,9.0121,9.0222,9.1411,9.2392,9.2426,9.1846,9.1913,9.3398,9.2319,9.1677,9.2358,9.2459,9.2459,9.2426,9.3165,9.3634,9.3601,9.3601,9.3601,9.3567,9.2083,9.0594,8.9201,8.9134,8.91,8.91,8.91,8.91,8.91,8.91,8.9478,9.0222,9.0222,9.1005,9.2392,9.2426,9.2895,9.3601,9.3601,9.3601,9.3601,9.3601,9.3601,9.3601,9.3601,9.3601,9.3601,9.3601,9.4079,9.4721,9.4721,9.5229,9.5939,9.668,9.6917,9.7086,9.7766,9.8003,9.8003,9.8003,9.8003,9.8003,9.8003,9.8003,9.8003,9.8003,9.8003,9.8003,9.8003,9.8003,9.8003,9.8003,9.8003,9.8003,9.7969,9.7969,9.7969,9.8003,9.8003,9.8003,9.8037,9.8037,9.8003,9.8003,9.8037,9.8037,9.8037,9.807,9.807,9.8037,9.8037,9.8037,9.8003,9.8003,9.8003,9.8003,9.8003,9.8003,9.8003,9.8003,9.8003,6.3511,0.0,0.0,0.0,0.0,0.0,7.5361,7.7536,7.987,8.3896,8.596,8.782,9.0493,9.1778,9.2595,9.3165,9.3537,9.3706,9.3634,9.3673,9.3639,9.33,9.374,9.3876,9.33,9.3943,9.418,9.3639,9.3601,9.3334,9.2759,9.1338,9.0324,8.9918,8.9376,8.91,8.91,8.91,8.91,8.91,8.91,8.9478,9.0222,9.0763,9.1508,9.2426,9.303,9.3368,9.3601,9.3601,9.3601,9.3601,9.3601,9.3601,9.3601,9.3601,9.3601,9.3601,9.3601,9.4079,9.4721,9.4721,9.5567,9.6514,9.6176,9.6853,9.7631,9.7292,9.7597,9.8003,9.8003,9.8003,9.8003,9.8003,9.8003,9.8003,9.8003,9.8003,9.8003,9.8003,9.8003,9.8003,9.8003,9.8003,9.7834,9.7258,9.7191,9.7394,9.7935,9.7529,9.7597,9.8679,9.8307,9.8003,9.8003,9.8476,9.8781,9.8781,9.9322,9.9356,9.8815,9.8781,9.8544,9.8037,9.8003,9.8003,9.8003,9.8003,9.8003,9.8003,9.8003,9.8003,0.0,0.0,0.0,6.7387,0.0,0.0,7.4346,7.6149,7.8247,8.2983,8.4945,8.6663,8.941,9.0527,9.1372,9.2455,9.3537,9.4079,9.3668,9.3977,9.4079,9.3668,9.3977,9.4079,9.3639,9.3977,9.4045,9.3634,9.3601,9.3098,9.2015,9.0831,9.0053,8.9748,8.9309,8.91,8.91,8.91,8.91,8.91,8.941,8.9951,9.0696,9.144,9.2184,9.2928,9.3402,9.3601,9.3601,9.3601,9.3601,9.3601,9.3601,9.3601,9.3601,9.3601,9.3601,9.3601,9.3601,9.4079,9.4721,9.4721,9.5499,9.6345,9.5939,9.6616,9.7428,9.7022,9.7428,9.8003,9.8003,9.8003,9.8003,9.8003,9.8003,9.8003,9.8003,9.8003,9.8003,9.8003,9.8003,9.8003,9.8003,9.8003,9.7867,9.7428,9.736,9.7631,9.8375,9.7834,9.78,9.8984,9.8442,9.8003,9.8003,9.8679,9.9085,9.9085,9.9796,10.0001,9.9593,9.9559,9.9221,9.8476,9.8476,9.8307,9.8003,9.8003,9.8003,9.8003,9.8003,9.8003,6.4086,0.0,0.0,0.0,6.8368,0.0,7.5506,7.6487,7.7536,8.2483,8.42,8.5283,8.6941,8.7922,8.8897,9.0087,9.188,9.3228,9.3567,9.3668,9.3673,9.3634,9.3673,9.3673,9.3634,9.3673,9.3673,9.3634,9.3503,9.2827,9.1372,9.0696,8.9985,8.9269,8.9207,8.9201,8.91,8.91,8.91,8.9134,8.985,9.0594,9.1338,9.2054,9.2861,9.3601,9.3601,9.3601,9.3601,9.3601,9.3601,9.3601,9.3601,9.3601,9.3601,9.3601,9.3601,9.3601,9.3601,9.4079,9.4721,9.4721,9.5195,9.5804,9.5804,9.6311,9.6917,9.7018,9.7495,9.8003,9.8003,9.8003,9.8003,9.8003,9.8003,9.8003,9.8003,9.8003,9.8003,9.8003,9.8003,9.8003,9.8003,9.8003,9.8003,9.8003,9.7935,9.8172,9.8984,9.8375,9.8206,9.9018,9.8442,9.8003,9.8003,9.8679,9.9119,9.9221,9.9931,10.0305,10.0305,10.0305,9.9965,9.9119,9.9018,9.8645,9.8003,9.8003,9.8003,9.8003,9.8003,9.8003,6.5189,6.5595,6.6136,6.7049,6.759,0.0,6.9553,7.0703,7.2462,7.5855,7.7671,7.9431,8.2129,8.3693,8.4471,8.42,8.7414,9.0826,9.3262,9.4112,9.4282,9.3668,9.4112,9.4248,9.3668,9.4146,9.4248,9.3639,9.2996,9.2252,9.1338,9.1169,9.0763,9.0019,8.9985,8.9681,8.9134,8.91,8.91,8.9134,8.985,9.0594,9.1338,9.2054,9.2861,9.3601,9.3601,9.3601,9.3601,9.3601,9.3601,9.3601,9.3601,9.3601,9.3601,9.3601,9.3601,9.3601,9.3601,9.4079,9.4721,9.4721,9.5195,9.5804,9.5804,9.6311,9.7022,9.7631,9.7901,9.8003,9.8003,9.8003,9.8003,9.8003,9.8003,9.8003,9.8003,9.8003,9.8003,9.8003,9.8003,9.8003,9.8003,9.8003,9.8003,9.8003,9.7495,9.7597,9.8916,9.7935,9.7597,9.895,9.8442,9.8003,9.8003,9.8679,9.9356,9.9965,10.0709,10.1214,10.1214,10.1214,10.0506,9.9119,9.851,9.8138,9.8003,9.8003,9.8003,9.8003,9.8003,9.8003,6.5818,6.5967,6.644,6.7151,6.7354,0.0,0.0,6.9891,7.1142,7.4458,7.5473,7.6555,7.9185,8.0242,8.1122,8.2238,8.5249,8.8254,9.0493,9.2725,9.4011,9.3639,9.3909,9.4011,9.3634,9.3909,9.3842,9.3064,9.2286,9.1541,9.0797,9.0391,9.0019,8.9647,8.9647,8.9647,8.9647,8.9275,8.9472,9.0188,9.056,9.1135,9.188,9.2658,9.3199,9.3601,9.3601,9.3601,9.3601,9.3601,9.3601,9.3601,9.3601,9.3601,9.3601,9.3601,9.3601,9.3601,9.3601,9.4079,9.4721,9.4721,9.5195,9.5804,9.5804,9.6311,9.7022,9.78,9.8003,9.8003,9.8003,9.8003,9.8003,9.8003,9.8003,9.8003,9.8003,9.8003,9.8003,9.8003,9.8003,9.8003,9.8003,9.8003,9.8138,9.8476,9.7901,9.7969,9.9457,9.8375,9.8003,9.9491,9.8679,9.8172,9.851,9.8882,9.9424,10.0202,10.098,10.1621,10.1893,10.1893,10.1216,9.9694,9.8916,9.8375,9.8003,9.8003,9.8003,9.8003,9.8003,9.8003,6.6677,6.7015,6.7704,6.7861,6.7793,6.8144,0.0,0.0,0.0,7.3815,7.4086,7.4356,7.6318,7.6826,7.7638,7.9904,8.2644,8.4877,8.5926,8.941,9.2083,9.2687,9.2962,9.3161,9.3161,9.303,9.2725,9.2252,9.1237,9.0527,9.0222,8.9647,8.9404,8.954,8.9376,8.9647,9.0391,8.9681,8.9985,9.1305,9.144,9.1812,9.2426,9.3233,9.3601,9.3601,9.3601,9.3601,9.3601,9.3601,9.3601,9.3601,9.3601,9.3601,9.3601,9.3601,9.3601,9.3601,9.3601,9.4079,9.4721,9.4721,9.5296,9.5973,9.5838,9.6413,9.7225,9.7834,9.8003,9.8003,9.8003,9.8003,9.8003,9.8003,9.8003,9.8003,9.8003,9.8003,9.8003,9.8003,9.8003,9.8003,9.8003,9.8003,9.8206,9.8815,9.8375,9.8442,9.9595,9.8747,9.8476,9.9629,9.8713,9.824,9.8848,9.9018,9.9424,10.0202,10.098,10.169,10.2502,10.2401,10.169,10.0506,9.9694,9.895,9.8206,9.8206,9.8138,9.8003,9.8003,9.8003,0.0,6.9755,7.0308,6.8368,6.935,7.0173,6.784,0.0,6.935,6.9755,0.0,7.0973,7.1887,0.0,0.0,7.2608,7.669,7.9701,7.9194,8.2881,8.6636,8.9275,9.0763,9.1541,9.1541,9.0966,9.0831,9.1372,8.9512,8.8903,9.0154,9.0121,9.0357,9.1034,9.0425,9.0425,9.1169,9.0459,9.0493,9.1305,9.1981,9.2324,9.2426,9.3233,9.3601,9.3601,9.3601,9.3601,9.3601,9.3601,9.3601,9.3601,9.3601,9.3601,9.3601,9.3601,9.3601,9.3601,9.3601,9.4079,9.4721,9.4721,9.5635,9.665,9.6007,9.6785,9.7901,9.7969,9.8003,9.8003,9.8003,9.8003,9.8003,9.8003,9.8003,9.8003,9.8003,9.8003,9.8003,9.8003,9.8003,9.8003,9.8003,9.8003,9.8037,9.8104,9.807,9.807,9.824,9.8104,9.807,9.824,9.8104,9.8037,9.8138,9.8713,9.9424,10.0202,10.098,10.169,10.2502,10.1893,10.1386,10.1316,10.0506,9.9728,9.8984,9.8984,9.8645,9.8003,9.8003,9.8003,0.0,7.0195,7.085,6.9045,6.962,7.0094,6.7929,6.7929,6.8538,6.9011,0.0,0.0,0.0,0.0,0.0,0.0,7.5134,7.7198,7.7333,8.0073,8.3152,8.6129,8.667,8.711,8.8023,8.8598,8.9038,8.9342,8.8531,8.826,8.8903,8.9342,8.9681,8.9985,8.9715,9.0121,9.1271,9.056,9.1034,9.2624,9.2489,9.2629,9.3098,9.3436,9.3601,9.3601,9.3601,9.3601,9.3601,9.3601,9.3601,9.3601,9.3601,9.3601,9.3601,9.3601,9.3601,9.3601,9.3601,9.3774,9.4045,9.4045,9.4755,9.5635,9.577,9.6514,9.7428,9.7867,9.8003,9.8003,9.8003,9.8003,9.8003,9.8003,9.8003,9.8003,9.8003,9.8003,9.8003,9.8003,9.8003,9.8003,9.8003,9.8003,9.8172,9.8578,9.8273,9.8172,9.8578,9.8273,9.8172,9.8578,9.8273,9.8341,9.9189,9.9187,9.9593,10.0811,10.1589,10.2198,10.2502,10.2198,10.1792,10.1386,10.1113,10.0506,9.9762,9.9762,9.9593,9.9288,9.8409,9.824,7.05,7.1244,7.1751,6.9857,6.9789,6.9811,6.8233,6.8233,6.8741,6.9553,7.0432,0.0,0.0,0.0,7.2191,0.0,0.0,7.5236,7.5608,7.7232,7.9464,8.2441,8.305,8.3862,8.5648,8.6196,8.6805,8.7651,8.6941,8.6907,8.7955,8.8497,8.9072,8.9681,8.9303,8.9884,9.1575,9.0865,9.144,9.3267,9.2895,9.303,9.3601,9.3601,9.3601,9.3601,9.3601,9.3601,9.3601,9.3601,9.3601,9.3601,9.3601,9.3601,9.3601,9.3601,9.3601,9.3601,9.3601,9.3601,9.3601,9.3601,9.4112,9.4823,9.533,9.6142,9.7018,9.7529,9.7834,9.8003,9.8003,9.8003,9.8003,9.8003,9.8003,9.8003,9.8003,9.8003,9.8003,9.8003,9.8003,9.8003,9.8003,9.8003,9.8172,9.8713,9.8341,9.8273,9.9018,9.8645,9.8578,9.9322,9.8916,9.9051,10.0102,9.9897,10.0303,10.1589,10.2198,10.2502,10.2502,10.2502,10.2231,10.169,10.169,10.1284,10.0506,10.0506,10.0506,10.0506,9.9221,9.8781,7.3544,7.3916,7.3815,7.0872,7.0184,6.9811,6.8233,6.9045,7.0331,7.1075,7.2394,7.3398,7.3432,0.0,0.0,0.0,0.0,0.0,0.0,7.3206,7.4853,7.7841,8.0716,8.3321,8.5554,8.3862,8.3795,8.6738,8.4234,8.4167,8.782,8.8023,8.9004,9.1169,8.9816,9.0154,9.2324,9.1643,9.1677,9.2426,9.3199,9.3601,9.3601,9.3601,9.3601,9.3601,9.3601,9.3601,9.3601,9.3601,9.3601,9.3601,9.3601,9.3601,9.3601,9.3601,9.3601,9.3601,9.3601,9.3601,9.3601,9.3601,9.4112,9.4721,9.4755,9.5736,9.6917,9.6951,9.7428,9.8003,9.8003,9.8003,9.8003,9.8003,9.8003,9.8003,9.8003,9.8003,9.8003,9.8003,9.8003,9.8003,9.8003,9.8003,9.8003,9.8037,9.8037,9.8273,9.9018,9.9085,9.9356,10.0069,10.0102,10.0102,10.0204,10.0878,10.1722,10.2401,10.2502,10.2502,10.2502,10.2502,10.2502,10.2502,10.2502,10.2096,10.1418,10.1418,10.1418,10.1284,10.0506,9.9762,7.5811,7.6995,7.7367,7.3375,7.3105,7.2935,6.9485,7.0229,7.1718,7.1988,7.3206,7.4221,7.4221,0.0,0.0,0.0,0.0,0.0,0.0,7.1887,7.2969,7.5439,7.7976,7.9397,7.9126,8.0648,8.19,8.2441,8.2441,8.3362,8.5628,8.6738,8.7854,8.9072,8.9134,8.9918,9.1677,9.1406,9.1947,9.3199,9.3499,9.3601,9.3601,9.3601,9.3601,9.3601,9.3601,9.3601,9.3601,9.3601,9.3601,9.3601,9.3601,9.3601,9.3601,9.3601,9.3601,9.3601,9.3601,9.3601,9.3601,9.3601,9.3774,9.4045,9.4552,9.5398,9.6244,9.6751,9.7428,9.8003,9.8003,9.8003,9.8003,9.8003,9.8003,9.8003,9.8003,9.8003,9.8003,9.8003,9.8003,9.8172,9.8645,9.8713,9.8578,9.807,9.8409,9.8815,9.9051,9.9085,9.939,10.0102,10.0204,10.0373,10.0912,10.169,10.2198,10.2502,10.2502,10.2502,10.2502,10.2502,10.2502,10.2502,10.2502,10.2401,10.2096,10.2096,10.2096,10.2096,10.1793,10.1318,7.8382,7.9498,7.9837,7.6657,7.6386,7.6014,7.2631,7.3375,7.4796,7.4796,7.5337,7.598,7.6487,7.51,0.0,0.0,0.0,0.0,0.0,7.1548,7.2326,7.4018,7.5743,7.6927,7.7266,7.8517,7.9769,8.0885,8.0885,8.1832,8.4072,8.5689,8.7076,8.8328,8.8863,8.9918,9.1677,9.144,9.1913,9.3165,9.3436,9.3601,9.3601,9.3601,9.3601,9.3601,9.3601,9.3601,9.3601,9.3601,9.3601,9.3601,9.3601,9.3601,9.3601,9.3601,9.3601,9.3601,9.3601,9.3601,9.3601,9.3601,9.3601,9.3673,9.4146,9.4992,9.5905,9.6379,9.7225,9.8003,9.8003,9.8003,9.8003,9.8003,9.8003,9.8003,9.8003,9.8003,9.8003,9.8003,9.8003,9.8172,9.8612,9.9153,9.9322,9.8848,9.9187,9.9593,9.9863,9.9897,10.0202,10.088,10.0982,10.1185,10.169,10.2198,10.2502,10.2502,10.2502,10.2502,10.2502,10.2502,10.2502,10.2502,10.2502,10.2502,10.2502,10.2502,10.2502,10.2502,10.2502,10.2231]}]]